[[{"header":{"parameterUnit":"m.s-1","parameterCategory":1,"la1":30.6,"la2":28.766,"lo1":-90.7593,"lo2":-88.6598,"dy":0.0162,"dx":0.0183,"nx":116,"ny":114,"refTime":"2024-06-04T18:00:00:Z","depth":0,"parameterNumber":2,"parameterNumberName":"U-component_of_WINDS"},"data":[0.0,0.0,0.0,0.0,0.0,0.0,0.0,0.0,0.0,0.0,0.0,0.0,0.0,0.0,0.0,0.0,0.0,0.0,0.0,0.0,0.0,0.0,0.0,0.0,0.0,0.0,0.0,0.0,0.0,0.0,0.0,0.0,0.0,0.0,0.0,0.0,0.0,0.0,0.0,0.0,0.0,0.0,0.0,0.0,0.0,0.0,0.0,0.0,0.0,0.0,0.0,0.0,0.0,0.0,0.0,0.0,0.0,0.0,0.0,0.0,0.0,0.0,0.0,0.0,0.0,0.0,0.0,0.0,0.0,0.0,0.0,0.0,0.0,0.0,0.0,0.0,0.0,0.0,0.0,0.0,0.0,0.0,0.0,0.0,0.0,0.0,0.0,0.0,0.0,0.0,0.0,0.0,0.0,0.0,0.0,0.0,0.0,0.0,0.0,0.0,0.0,0.0,0.0,0.0,0.0,0.0,0.0,0.0,0.0,0.0,0.0,0.0,0.0,0.0,0.0,0.0,0.0,0.0,0.0,0.0,0.0,0.0,0.0,0.0,0.0,0.0,0.0,0.0,0.0,0.0,0.0,0.0,0.0,0.0,0.0,0.0,0.0,0.0,0.0,0.0,0.0,0.0,0.0,0.0,0.0,0.0,0.0,0.0,0.0,0.0,0.0,0.0,0.0,0.0,0.0,0.0,0.0,0.0,0.0,0.0,0.0,0.0,0.0,0.0,0.0,0.0,0.0,0.0,0.0,0.0,0.0,0.0,0.0,0.0,0.0,0.0,0.0,0.0,0.0,0.0,0.0,0.0,0.0,0.0,0.0,0.0,0.0,0.0,0.0,0.0,0.0,0.0,0.0,0.0,0.0,0.0,0.0,0.0,0.0,0.0,0.0,0.0,0.0,0.0,0.0,0.0,0.0,0.0,0.0,0.0,0.0,0.0,0.0,0.0,0.0,0.0,0.0,0.0,0.0,0.0,0.0,0.0,0.0,0.0,0.0,0.0,0.0,0.0,0.0,0.0,0.0,0.0,0.0,0.0,0.0,0.0,0.0,0.0,0.0,0.0,0.0,0.0,0.0,0.0,0.0,0.0,0.0,0.0,0.0,0.0,0.0,0.0,0.0,0.0,0.0,0.0,0.0,0.0,0.0,0.0,0.0,0.0,0.0,0.0,0.0,0.0,0.0,0.0,0.0,0.0,0.0,0.0,0.0,0.0,0.0,0.0,0.0,0.0,0.0,0.0,0.0,0.0,0.0,0.0,0.0,0.0,0.0,0.0,0.0,0.0,0.0,0.0,0.0,0.0,0.0,0.0,0.0,0.0,0.0,0.0,0.0,0.0,0.0,0.0,0.0,0.0,0.0,0.0,0.0,0.0,0.0,0.0,0.0,0.0,0.0,0.0,0.0,0.0,0.0,0.0,0.0,0.0,0.0,0.0,0.0,0.0,0.0,0.0,0.0,0.0,0.0,0.0,0.0,0.0,0.0,0.0,0.0,0.0,0.0,0.0,0.0,0.0,0.0,0.0,0.0,0.0,0.0,0.0,0.0,0.0,0.0,0.0,0.0,0.0,0.0,0.0,0.0,0.0,0.0,0.0,0.0,0.0,0.0,0.0,0.0,0.0,0.0,0.0,0.0,0.0,0.0,0.0,0.0,0.0,0.0,0.0,0.0,0.0,0.0,0.0,0.0,0.0,0.0,0.0,0.0,0.0,0.0,0.0,0.0,0.0,0.0,0.0,0.0,0.0,0.0,0.0,0.0,0.0,0.0,0.0,0.0,0.0,0.0,0.0,0.0,0.0,0.0,0.0,0.0,0.0,0.0,0.0,0.0,0.0,0.0,0.0,0.0,0.0,0.0,0.0,0.0,0.0,0.0,0.0,0.0,0.0,0.0,0.0,0.0,0.0,0.0,0.0,0.0,0.0,0.0,0.0,0.0,0.0,0.0,0.0,0.0,0.0,0.0,0.0,0.0,0.0,0.0,0.0,0.0,0.0,0.0,0.0,0.0,0.0,0.0,0.0,0.0,0.0,0.0,0.0,0.0,0.0,0.0,0.0,0.0,0.0,0.0,0.0,0.0,0.0,0.0,0.0,0.0,0.0,0.0,0.0,0.0,0.0,0.0,0.0,0.0,0.0,0.0,0.0,0.0,0.0,0.0,0.0,0.0,0.0,0.0,0.0,0.0,0.0,0.0,0.0,0.0,0.0,0.0,0.0,0.0,0.0,0.0,0.0,0.0,0.0,0.0,0.0,0.0,0.0,0.0,0.0,0.0,0.0,0.0,0.0,0.0,0.0,0.0,0.0,0.0,0.0,0.0,0.0,0.0,0.0,0.0,0.0,0.0,0.0,0.0,0.0,0.0,0.0,0.0,0.0,0.0,0.0,0.0,0.0,0.0,0.0,0.0,0.0,0.0,0.0,0.0,0.0,0.0,0.0,0.0,0.0,0.0,0.0,0.0,0.0,0.0,0.0,0.0,0.0,0.0,0.0,0.0,0.0,0.0,0.0,0.0,0.0,0.0,0.0,0.0,0.0,0.0,0.0,0.0,0.0,0.0,0.0,0.0,0.0,0.0,0.0,0.0,0.0,0.0,0.0,0.0,0.0,0.0,0.0,0.0,0.0,0.0,0.0,0.0,0.0,0.0,0.0,0.0,0.0,0.0,0.0,0.0,0.0,0.0,0.0,0.0,0.0,0.0,0.0,0.0,0.0,0.0,0.0,0.0,0.0,0.0,0.0,0.0,0.0,0.0,0.0,0.0,0.0,0.0,0.0,0.0,0.0,0.0,0.0,0.0,0.0,0.0,0.0,0.0,0.0,0.0,0.0,0.0,0.0,0.0,0.0,0.0,0.0,0.0,0.0,0.0,0.0,0.0,0.0,0.0,0.0,0.0,0.0,0.0,0.0,0.0,0.0,0.0,0.0,0.0,0.0,0.0,0.0,0.0,0.0,0.0,0.0,0.0,0.0,0.0,0.0,0.0,0.0,0.0,0.0,0.0,0.0,0.0,0.0,0.0,0.0,0.0,0.0,0.0,0.0,0.0,0.0,0.0,0.0,0.0,0.0,0.0,0.0,0.0,0.0,0.0,0.0,0.0,0.0,0.0,0.0,0.0,0.0,0.0,0.0,0.0,0.0,0.0,0.0,0.0,0.0,0.0,0.0,0.0,0.0,0.0,0.0,0.0,0.0,0.0,0.0,0.0,0.0,0.0,0.0,0.0,0.0,0.0,0.0,0.0,0.0,0.0,0.0,0.0,0.0,0.0,0.0,0.0,0.0,0.0,0.0,0.0,0.0,0.0,0.0,0.0,0.0,0.0,0.0,0.0,0.0,0.0,0.0,0.0,0.0,0.0,0.0,0.0,0.0,0.0,0.0,0.0,0.0,0.0,0.0,0.0,0.0,0.0,0.0,0.0,0.0,0.0,0.0,0.0,0.0,0.0,0.0,0.0,0.0,0.0,0.0,0.0,0.0,0.0,0.0,0.0,0.0,0.0,0.0,0.0,0.0,0.0,0.0,0.0,0.0,0.0,0.0,0.0,0.0,0.0,0.0,0.0,0.0,0.0,0.0,0.0,0.0,0.0,0.0,0.0,0.0,0.0,0.0,0.0,0.0,0.0,0.0,0.0,0.0,0.0,0.0,0.0,0.0,0.0,0.0,0.0,0.0,0.0,0.0,0.0,0.0,0.0,0.0,0.0,0.0,0.0,0.0,0.0,0.0,0.0,0.0,0.0,0.0,0.0,0.0,0.0,0.0,0.0,0.0,0.0,0.0,0.0,0.0,0.0,0.0,0.0,0.0,0.0,0.0,0.0,0.0,0.0,0.0,0.0,0.0,0.0,0.0,0.0,0.0,0.0,0.0,0.0,0.0,0.0,0.0,0.0,0.0,0.0,0.0,0.0,0.0,0.0,0.0,0.0,0.0,0.0,0.0,0.0,0.0,0.0,0.0,0.0,0.0,0.0,0.0,0.0,0.0,0.0,0.0,0.0,0.0,0.0,0.0,0.0,0.0,0.0,0.0,0.0,0.0,0.0,0.0,0.0,0.0,0.0,0.0,0.0,0.0,0.0,0.0,0.0,0.0,0.0,0.0,0.0,0.0,0.0,0.0,0.0,0.0,0.0,0.0,0.0,0.0,0.0,0.0,0.0,0.0,0.0,0.0,0.0,0.0,0.0,0.0,0.0,0.0,0.0,0.0,0.0,0.0,0.0,0.0,0.0,0.0,0.0,0.0,0.0,0.0,0.0,0.0,0.0,0.0,0.0,0.0,0.0,0.0,0.0,0.0,0.0,0.0,0.0,0.0,0.0,0.0,0.0,0.0,0.0,0.0,0.0,0.0,0.0,0.0,0.0,0.0,0.0,0.0,0.0,0.0,0.0,0.0,0.0,0.0,0.0,0.0,0.0,0.0,0.0,0.0,0.0,0.0,0.0,0.0,0.0,0.0,0.0,0.0,0.0,0.0,0.0,0.0,0.0,0.0,0.0,0.0,0.0,0.0,0.0,0.0,0.0,0.0,0.0,0.0,0.0,0.0,0.0,0.0,0.0,0.0,0.0,0.0,0.0,0.0,0.0,0.0,0.0,0.0,0.0,0.0,0.0,0.0,0.0,0.0,0.0,0.0,0.0,0.0,0.0,0.0,0.0,0.0,0.0,0.0,0.0,0.0,0.0,0.0,0.0,0.0,0.0,0.0,0.0,0.0,0.0,0.0,0.0,0.0,0.0,0.0,0.0,0.0,0.0,0.0,0.0,0.0,0.0,0.0,0.0,0.0,0.0,0.0,0.0,0.0,0.0,0.0,0.0,0.0,0.0,0.0,0.0,0.0,0.0,0.0,0.0,0.0,0.0,0.0,0.0,0.0,0.0,0.0,0.0,0.0,0.0,0.0,0.0,0.0,0.0,0.0,0.0,0.0,0.0,0.0,0.0,0.0,0.0,0.0,0.0,0.0,0.0,0.0,0.0,0.0,0.0,0.0,0.0,0.0,0.0,0.0,0.0,0.0,0.0,0.0,0.0,0.0,0.0,0.0,0.0,0.0,0.0,0.0,0.0,0.0,0.0,0.0,0.0,0.0,0.0,0.0,0.0,0.0,0.0,0.0,0.0,0.0,0.0,0.0,0.0,0.0,0.0,0.0,0.0,0.0,0.0,0.0,0.0,0.0,0.0,0.0,0.0,0.0,0.0,0.0,0.0,0.0,0.0,0.0,0.0,0.0,0.0,0.0,0.0,0.0,0.0,0.0,0.0,0.0,0.0,0.0,0.0,0.0,0.0,0.0,0.0,0.0,0.0,0.0,0.0,0.0,0.0,0.0,0.0,0.0,0.0,0.0,0.0,0.0,0.0,0.0,0.0,0.0,0.0,0.0,0.0,0.0,0.0,0.0,0.0,0.0,0.0,0.0,0.0,0.0,0.0,0.0,0.0,0.0,0.0,0.0,0.0,0.0,0.0,0.0,0.0,0.0,0.0,0.0,0.0,0.0,0.0,0.0,0.0,0.0,0.0,0.0,0.0,0.0,0.0,0.0,0.0,0.0,0.0,0.0,0.0,0.0,0.0,0.0,0.0,0.0,0.0,0.0,0.0,0.0,0.0,0.0,0.0,0.0,0.0,0.0,0.0,0.0,0.0,0.0,0.0,0.0,0.0,0.0,0.0,0.0,0.0,0.0,0.0,0.0,0.0,0.0,0.0,0.0,0.0,0.0,0.0,0.0,0.0,0.0,0.0,0.0,0.0,0.0,0.0,0.0,0.0,0.0,0.0,0.0,0.0,0.0,0.0,0.0,0.0,0.0,0.0,0.0,0.0,0.0,0.0,0.0,0.0,0.0,0.0,0.0,0.0,0.0,0.0,0.0,0.0,0.0,0.0,0.0,0.0,0.0,0.0,0.0,0.0,0.0,0.0,0.0,0.0,0.0,0.0,0.0,0.0,0.0,0.0,0.0,0.0,0.0,0.0,0.0,0.0,0.0,0.0,0.0,0.0,0.0,0.0,0.0,0.0,0.0,0.0,0.0,0.0,0.0,0.0,0.0,0.0,0.0,0.0,0.0,0.0,0.0,0.0,0.0,0.0,0.0,0.0,0.0,0.0,0.0,0.0,0.0,0.0,0.0,-0.986,-0.9595,0.0,0.0,0.0,0.0,0.0,0.0,0.0,0.0,0.0,0.0,0.0,0.0,0.0,0.0,0.0,0.0,0.0,0.0,0.0,0.0,0.0,0.0,0.0,1.2369,1.2602,1.2187,1.1839,1.1546,1.1239,0.0,0.0,0.0,0.0,0.0,0.6135,0.5334,0.4557,0.3849,0.3517,0.2503,0.0877,0.1399,0.2195,0.3174,0.0,0.0,0.0,0.0,0.0,0.0,0.0,0.0,0.0,0.0,0.0,0.0,0.0,0.0,0.0,0.0,0.0,0.0,0.0,0.0,0.0,0.0,0.0,0.0,0.0,0.0,0.0,0.0,0.0,0.0,0.0,0.0,0.0,0.0,0.0,0.0,0.0,0.0,0.0,0.0,0.0,0.0,0.0,0.0,0.0,0.0,0.0,0.0,0.0,0.0,0.0,0.0,0.0,0.0,0.0,0.0,0.0,0.0,0.0,0.0,0.0,0.0,0.0,0.0,0.0,0.0,0.0,0.0,0.0,0.0,-1.1707,-1.1036,0.0,0.0,0.0,0.0,0.0,0.0,0.0,0.0,0.0,0.0,0.0,0.0,0.0,0.0,0.0,0.0,0.0,0.0,0.0,0.0,0.0,1.2065,1.0892,1.1719,1.2103,1.159,1.126,1.0874,1.0485,1.035,0.0,0.0,0.0,0.6901,0.5424,0.4641,0.359,0.224,0.1279,-0.0083,-0.1739,-0.2062,-0.1232,0.0581,0.0946,0.0,0.0,0.0,0.0,0.0,0.0,0.0,0.0,0.0,0.0,0.0,0.0,0.0,0.0,0.0,0.0,0.0,0.0,0.0,0.0,0.0,0.0,0.0,0.0,0.0,0.0,0.0,0.0,0.0,0.0,0.0,0.0,0.0,0.0,0.0,0.0,0.0,0.0,0.0,0.0,0.0,0.0,0.0,0.0,0.0,0.0,0.0,0.0,0.0,0.0,0.0,0.0,0.0,0.0,0.0,0.0,0.0,0.0,0.0,0.0,0.0,0.0,0.0,-1.2905,-1.3504,-1.4215,-1.4256,-1.4809,-1.5644,-1.3088,-1.219,-1.246,-1.1868,0.0,0.0,0.0,0.0,0.0,0.0,0.0,0.0,0.0,0.0,0.0,0.0,0.0,0.0,0.0,0.0,0.0,0.0,0.0,1.129,1.0318,1.104,1.1319,1.0544,1.0312,0.9971,0.9448,0.9368,0.0,0.0,0.7266,0.6361,0.5338,0.4256,0.2986,0.1527,-0.083,-0.263,-0.3888,-0.3934,-0.353,-0.2716,-0.2042,-0.0508,0.1531,0.0,0.0,0.0,0.0,0.0,0.0,0.0,0.0,0.0,0.0,0.0,0.0,0.0,0.0,0.0,0.0,0.0,0.0,0.0,0.0,0.0,0.0,0.0,0.0,0.0,0.0,0.0,0.0,0.0,0.0,0.0,0.0,0.0,0.0,0.0,0.0,0.0,0.0,0.0,0.0,0.0,-0.3263,-0.5965,0.0,0.0,0.0,0.0,0.0,0.0,0.0,0.0,0.0,0.0,0.0,0.0,0.0,-1.4624,-1.4443,-1.5666,-1.6331,-1.6468,-1.6707,-1.6787,-1.6853,-1.7308,-1.716,-1.6605,-1.5887,0.0,-1.4805,-1.4435,0.0,0.0,0.0,0.0,0.0,0.0,0.0,0.0,0.0,0.0,0.0,0.0,0.0,0.0,0.0,0.0,0.0,0.0,0.0,0.0,0.0,0.9788,1.0068,0.999,0.9118,0.8799,0.9274,0.846,0.7634,0.6868,0.6149,0.5163,0.3869,0.2857,0.1319,-0.085,-0.2175,-0.3806,-0.5705,-0.5694,-0.5723,-0.5687,-0.5376,-0.3697,-0.1172,-0.0847,0.0,0.0,0.0,0.0,0.0,0.0,0.0,0.0,0.0,0.0,0.0,0.0,0.0,0.0,0.0,0.0,0.0,0.0,0.0,0.0,0.0,0.0,0.0,0.0,0.0,0.0,0.0,0.0,0.0,0.0,0.0,0.0,0.0,0.0,0.0,0.0,0.0,0.0,0.0,-0.4148,-0.5479,-0.7592,-0.7999,-0.8463,0.0,0.0,0.0,0.0,0.0,0.0,0.0,0.0,0.0,-1.6299,-1.689,-1.7276,-1.7513,-1.817,-1.846,-1.8246,-1.8371,-1.8371,-1.8386,-1.8491,-1.8403,-1.8161,-1.7312,-1.6764,-1.6398,-1.5542,-1.4808,-1.4233,0.0,0.0,0.0,0.0,-1.2302,-1.2057,0.0,0.0,0.0,0.0,0.0,0.0,0.0,0.0,0.0,0.0,0.0,0.0,0.8611,0.8767,0.8972,0.9165,0.8116,0.7777,0.8571,0.7581,0.6594,0.5712,0.533,0.4292,0.2486,0.1181,-0.0575,-0.2848,-0.3586,-0.4931,-0.6854,-0.7156,-0.7382,-0.7502,-0.7502,-0.6036,-0.3568,-0.2464,-0.1885,0.0,0.0,0.0,0.0,0.0,0.0,0.0,0.0,0.0,0.0,0.0,0.0,0.0,0.0,0.0,0.0,0.0,0.0,0.0,0.0,0.0,0.0,0.0,0.0,0.0,0.0,0.0,0.0,0.0,0.0,0.0,0.0,0.0,0.0,0.0,0.0,0.0,0.0,-0.6807,-0.7682,-0.9069,-1.0454,-1.1473,0.0,0.0,0.0,0.0,0.0,0.0,-1.6988,-1.7157,-1.7713,-1.8939,-1.925,-1.9589,-1.9923,-2.0169,-2.012,-1.9893,-1.981,-1.9801,-1.9828,-1.9834,-1.9823,-1.9655,-1.8291,-1.7678,-1.752,-1.6145,-1.546,-1.5099,-1.5151,-1.5006,-1.4625,-1.4077,-1.3899,-1.3902,0.0,0.0,0.0,0.0,0.0,0.0,0.0,0.0,0.0,0.0,0.0,0.8959,0.8026,0.8341,0.8415,0.7863,0.7509,0.7078,0.0,0.673,0.6282,0.4822,0.5056,0.4091,0.1784,-0.0646,-0.2405,-0.346,-0.5344,-0.6496,-0.7019,-0.8158,-0.8263,-0.7502,-0.7502,-0.6518,-0.4825,-0.4843,-0.4095,-0.2809,0.0,0.0,0.0,0.0,0.0,0.0,0.0,0.0,0.0,0.0,0.0,0.0,0.0,0.0,0.0,0.0,0.0,0.0,0.0,0.0,0.0,0.0,0.0,0.0,0.0,0.0,0.0,0.0,0.0,0.0,0.0,0.0,0.0,0.0,0.0,0.0,0.0,0.0,0.0,-1.14,-1.3424,0.0,0.0,0.0,0.0,-1.8165,-1.8586,-1.9409,-2.0914,-2.0781,-2.0806,-2.112,-2.1654,-2.166,-2.1153,-2.1398,-2.172,-2.2039,-2.1758,-2.1583,-2.1496,-2.2116,-2.1813,-2.0723,-1.9298,-1.8417,-1.803,-1.6594,-1.5544,-1.4935,-1.5112,-1.5023,-1.4684,-1.4791,-1.4698,-1.4419,0.0,0.0,0.0,0.0,0.0,1.0105,0.942,0.9182,0.8845,0.8208,0.8274,0.8225,0.7801,0.7289,0.7169,0.7681,0.6223,0.5708,0.6686,0.5943,0.5236,0.4714,0.3883,0.2078,-0.0672,-0.217,-0.3685,-0.5224,-0.6363,-0.7603,-0.8937,-0.9391,-0.9377,-0.8964,-0.8913,-0.808,-0.6781,-0.5679,-0.4768,-0.4025,-0.365,-0.3317,0.0,0.0,0.0,0.0,0.0,0.0,0.0,0.0,0.0,0.0,0.0,0.0,0.0,0.0,0.0,0.0,0.0,0.0,0.0,0.0,0.0,0.0,0.0,0.0,0.0,0.0,0.0,0.0,0.0,0.0,0.0,0.0,0.0,0.0,0.0,0.0,0.0,-1.3624,-1.5342,0.0,-1.7617,-1.8726,-1.9668,-2.0271,-2.0705,-2.136,-2.2337,-2.2223,-2.2324,-2.2756,-2.2972,-2.3132,-2.3242,-2.314,-2.324,-2.3603,-2.2805,-2.2352,-2.2201,-2.1547,-2.1122,-2.085,-1.9307,-1.8334,-1.777,-1.6945,-1.612,-1.5453,-1.5689,-1.565,-1.5434,-1.5314,-1.5396,-1.548,0.0,0.0,0.0,0.0,0.9763,0.9867,0.9621,0.9035,0.8617,0.8552,0.8052,0.7688,0.7593,0.6789,0.646,0.7087,0.5487,0.4927,0.5935,0.4979,0.4231,0.3846,0.2165,0.0204,-0.1973,-0.3249,-0.4673,-0.6307,-0.7253,-0.8431,-0.9848,-1.0164,-1.0081,-0.9718,-0.9619,-0.8978,-0.7858,-0.6644,-0.5775,-0.5167,-0.4677,-0.4128,-0.3506,0.0,0.0,0.0,0.0,0.0,0.0,0.0,0.0,0.0,0.0,0.0,0.0,0.0,0.0,0.0,0.0,0.0,0.0,0.0,0.0,0.0,0.0,0.0,0.0,0.0,0.0,0.0,0.0,0.0,0.0,0.0,0.0,0.0,0.0,-1.2061,-1.3974,-1.5915,-1.7467,-1.8839,-1.9961,-2.1083,-2.1869,-2.2156,-2.2476,-2.2928,-2.3612,-2.3593,-2.3734,-2.4179,-2.4192,-2.431,-2.4506,-2.432,-2.4218,-2.4277,-2.359,-2.2964,-2.2396,-2.1668,-2.1237,-2.0941,-1.9729,-1.8687,-1.7801,-1.7189,-1.6403,-1.568,-1.6175,-1.6254,-1.6053,-1.5938,-1.606,-1.6281,0.0,0.0,0.0,0.9711,1.0144,1.0371,0.9957,0.923,0.8794,0.8978,0.8091,0.742,0.7394,0.6868,0.6337,0.6019,0.5355,0.4684,0.4156,0.3909,0.3272,0.2098,0.0051,-0.13,-0.1908,-0.383,-0.536,-0.647,-0.7941,-0.8954,-0.9611,-1.0439,-1.0387,-0.9577,-0.9566,-0.8922,-0.7914,-0.7711,-0.7072,-0.6154,-0.5896,-0.4736,-0.3181,0.0,0.0,0.0,0.0,0.0,0.0,0.0,0.0,0.0,0.0,0.0,0.0,0.0,0.0,0.0,0.0,0.0,0.0,0.0,0.0,0.0,0.0,0.0,0.0,0.0,0.0,0.0,0.0,0.0,0.0,0.0,0.0,0.0,-1.2215,-1.4267,-1.6386,-1.8302,-1.9922,-2.1314,-2.2343,-2.3446,-2.4054,-2.3949,-2.3891,-2.4255,-2.4996,-2.5022,-2.5101,-2.5281,-2.5294,-2.5116,-2.4845,-2.4798,-2.4532,-2.4067,-2.4141,-2.3475,-2.2233,-2.2755,-2.2367,-2.1256,-2.053,-1.9499,-1.8203,-1.737,-1.6473,-1.5676,-1.6554,-1.6768,-1.6596,-1.6596,-1.6596,-1.6625,0.0,0.0,0.9273,0.9873,1.0144,1.021,0.9944,0.9387,0.9,0.8997,0.8539,0.8055,0.7712,0.6638,0.6034,0.6246,0.4616,0.3855,0.4541,0.3864,0.263,0.0884,-0.0883,-0.2152,-0.2925,-0.39,-0.4956,-0.6003,-0.666,-0.7713,-0.9096,-0.9326,-0.9177,-0.8652,-0.8466,-0.7686,-0.6499,-0.6124,-0.5711,-0.5226,-0.5175,-0.4745,-0.4035,0.0,0.0,0.0,0.0,0.0,0.0,0.0,0.0,0.0,0.0,0.0,0.0,0.0,0.0,0.0,0.0,0.0,0.0,0.0,0.0,0.0,0.0,0.0,0.0,0.0,0.0,0.0,0.0,0.0,0.0,0.0,-1.2216,-1.3969,-1.4277,-1.5848,-1.757,-1.9206,-2.0616,-2.2055,-2.3506,-2.4006,-2.4319,-2.439,-2.4261,-2.4452,-2.5103,-2.4914,-2.4929,-2.5281,-2.5178,-2.5154,-2.5403,-2.5075,-2.5059,-2.5386,-2.4583,-2.4177,-2.3991,-2.2209,-2.1384,-2.1311,-1.9895,-1.8715,-1.7861,-1.7792,-1.7478,-1.691,-1.6613,-1.6413,-1.6399,-1.656,-1.6633,-1.6471,0.0,0.8814,0.9571,1.0016,1.0167,1.0235,1.0211,0.9478,0.9153,0.9713,0.8955,0.8315,0.8312,0.713,0.6334,0.6354,0.4994,0.4308,0.469,0.3585,0.2328,0.1021,-0.0486,-0.1686,-0.254,-0.3577,-0.4661,-0.5756,-0.6249,-0.7138,-0.8387,-0.8338,-0.8147,-0.7847,-0.7594,-0.6944,-0.5994,-0.5716,-0.5261,-0.4694,-0.4048,-0.3775,-0.3727,-0.2876,-0.2467,-0.2188,-0.1234,-0.0831,-0.0653,-0.0272,0.0,0.0,0.0,0.0,0.0,0.0,0.0,0.0,0.0,0.0,0.0,0.0,0.0,0.0,0.0,0.0,0.0,0.0,0.0,0.0,0.0,0.0,0.0,0.0,-1.3751,-1.5392,-1.6323,-1.7492,-1.8931,-2.0879,-2.1543,-2.2531,-2.4239,-2.4421,-2.4421,-2.4492,-2.4305,-2.4577,-2.5374,-2.5175,-2.5355,-2.5986,-2.5845,-2.583,-2.6009,-2.5306,-2.5016,-2.503,-2.3916,-2.3177,-2.2799,-2.1354,-2.0642,-2.0565,-1.971,-1.8844,-1.7995,-1.8184,-1.783,-1.7195,0.0,0.0,0.0,0.0,-1.6177,-1.5816,0.0,0.9473,1.0328,1.027,1.0362,1.0483,1.0608,0.9736,0.9482,1.0659,0.9443,0.8633,0.9019,0.8042,0.7064,0.6319,0.5944,0.5446,0.0,0.0,0.2524,0.2055,0.0783,-0.035,-0.1297,-0.2771,-0.4137,-0.538,-0.6065,-0.6717,-0.7294,-0.7205,-0.7022,-0.6837,-0.6759,-0.6358,-0.5791,-0.5673,-0.5071,-0.4111,-0.2677,-0.24,-0.2865,-0.2749,-0.2018,-0.101,-0.0842,-0.0447,-0.0,0.0725,0.0,0.0,0.0,0.0,0.0,0.0,0.0,0.0,0.0,0.0,0.0,0.0,0.0,0.0,0.0,0.0,0.0,0.0,0.0,0.0,0.0,0.0,0.0,0.0,-1.5187,-1.6372,-1.8245,-1.8998,-2.0211,-2.2637,-2.248,-2.2872,-2.4667,-2.4677,-2.4549,-2.4363,-2.4287,-2.4695,-2.5781,-2.5677,0.0,0.0,0.0,-2.6476,-2.6427,-2.5283,-2.4377,-2.3833,-2.2763,-2.1677,-2.0466,-2.0542,-2.0161,-1.9578,-1.9714,-1.9191,-1.8344,-1.8344,-1.7783,-1.6875,-1.6911,-1.683,-1.6652,-1.614,-1.5589,-1.5082,0.0,1.0328,1.0725,1.108,1.1267,1.1247,1.0968,1.1121,1.1057,1.0428,1.0564,1.0394,0.9425,0.8619,0.7589,0.6175,0.6135,0.5946,0.0,0.0,0.4238,0.3067,0.2243,0.1125,-0.0333,-0.1296,-0.2319,-0.3459,-0.3733,-0.4179,-0.4718,-0.4922,-0.4899,-0.4768,-0.4875,-0.4584,-0.4061,-0.3781,-0.3058,-0.2047,-0.174,-0.2099,-0.2609,-0.1301,-0.0449,-0.0,0.0112,0.0825,0.1664,0.1345,0.1776,0.2475,0.2859,0.2959,0.0,0.0,0.0,0.0,0.0,0.0,0.0,0.0,0.0,0.0,0.0,0.0,0.0,0.0,0.0,0.0,0.0,0.0,0.0,-1.3424,-1.5239,-1.7142,-1.9165,-1.9979,-2.0671,-2.1643,-2.2342,-2.3331,-2.4821,-2.4765,-2.4607,-2.4673,-2.4895,-2.5239,-2.5935,-2.6155,-2.6517,-2.7224,-2.604,-2.5586,-2.599,-2.4225,-2.3656,-2.4249,-2.322,0.0,-2.2759,-2.1353,-2.0471,-2.0201,-1.9104,-1.8428,-1.8056,-1.8056,-1.7596,-1.6875,-1.6911,-1.7033,-1.7216,-1.6013,-1.578,-1.5777,1.1308,1.1332,1.1389,1.1571,1.1511,1.1477,1.1575,1.1774,1.1934,1.1981,1.1841,1.1445,1.0816,0.9912,0.8878,0.7753,0.7498,0.0,0.0,0.6283,0.5608,0.4834,0.3671,0.2526,0.1356,0.0383,-0.077,-0.208,-0.227,-0.2795,-0.3596,-0.3804,-0.3923,-0.3968,-0.3971,-0.3299,-0.2235,-0.2069,-0.1566,-0.0894,-0.0447,-0.0734,-0.1259,-0.0451,0.0056,0.0448,0.1569,0.2386,0.2843,0.2678,0.3007,0.3444,0.3444,0.3335,0.3162,0.0,0.0,0.0,0.0,0.0,0.0,0.0,0.0,0.0,0.0,0.0,0.0,0.0,0.0,-0.8045,-0.9087,0.0,-1.2598,-1.4738,-1.6049,-1.7514,-1.9394,-2.0158,-2.0968,-2.2186,-2.2912,-2.3695,-2.4892,-2.4986,-2.501,-2.5077,-2.5418,-2.5741,-2.5884,-2.574,-2.5702,-2.5933,-2.4811,-2.4304,-2.4621,-2.31,-2.2671,-2.3279,-2.1989,-2.1531,-2.1834,-2.0485,-1.9625,-1.916,-1.8233,-1.7608,-1.7157,-1.6802,-1.6385,-1.585,-1.5593,-1.5667,-1.5881,-1.4859,-1.4433,-1.419,1.2542,1.2369,1.2148,1.2078,1.1867,1.189,1.2527,1.2567,1.281,1.3541,1.2957,1.2388,1.2149,1.1346,1.0545,0.0,0.0,0.0,0.0,0.7825,0.7287,0.6962,0.5478,0.4306,0.3582,0.2355,0.1079,-0.0146,-0.0638,-0.1287,-0.2196,-0.2319,-0.2483,-0.2733,-0.2624,-0.1848,-0.0558,-0.0167,0.0167,0.0558,0.1283,0.1284,0.0838,0.0838,0.0726,0.0838,0.2858,0.3593,0.3649,0.3919,0.4089,0.4147,0.3965,0.3655,0.3342,0.2999,0.284,0.0,0.0,0.0,0.0,0.0,0.0,0.0,0.0,-0.3452,-0.474,-0.5949,-0.7175,-0.8516,-0.9995,-1.1472,-1.3368,-1.5916,-1.6861,-1.7833,-1.9278,-2.0009,-2.1071,-2.2834,-2.3207,-2.3682,-2.4553,-2.4828,-2.4945,-2.4925,-2.5371,-2.5574,-2.5489,-2.4954,-2.4686,-2.4641,-2.3634,-2.3078,-2.3161,-2.1932,-2.1509,-2.18,-2.0498,-1.9808,-1.9766,-1.9153,-1.8436,-1.7675,-1.725,-1.6733,-1.6088,-1.5517,-1.5092,-1.4681,-1.4011,-1.3947,-1.4106,-1.3528,-1.2921,-1.2378,0.0,1.3366,1.2776,1.2994,1.3058,1.3289,1.3968,1.4495,1.4404,1.3251,1.376,1.3688,1.2344,1.2497,1.2399,1.1677,0.0,0.0,1.0118,1.0255,1.005,0.934,0.8227,0.7221,0.6372,0.4687,0.3865,0.3961,0.2305,0.1437,0.1345,0.1391,0.1175,0.0719,0.0719,0.0609,0.0555,0.2343,0.3299,0.3685,0.3968,0.4018,0.3889,0.3889,0.295,0.1789,0.3135,0.3694,0.3852,0.4229,0.4181,0.4076,0.4284,0.392,0.3381,0.3324,0.3092,0.2747,0.2502,0.0843,-0.0546,0.06,-0.0709,-0.2371,0.0,-0.4003,-0.5453,-0.7161,-0.8439,-0.9623,-1.0731,-1.2561,-1.4296,-1.5299,-1.6859,-1.819,-1.9065,-1.9868,-2.0839,-2.1939,-2.2372,-2.2822,-2.3423,-2.3398,-2.3299,-2.3168,-2.3563,-2.3989,-2.433,-2.4217,-2.4413,-2.4825,-2.3084,-2.2344,-2.2746,-2.1014,-2.0243,-2.0427,-1.986,-1.9089,-1.8072,-1.8083,-1.7627,-1.6704,-1.6158,-1.5737,-1.5446,-1.5084,-1.4649,-1.4011,-1.3215,-1.2792,-1.2592,-1.2666,-1.2763,-1.2721,0.0,1.4206,1.4567,1.4595,1.3929,1.3798,1.494,1.5431,1.5615,1.5408,1.5544,1.5414,1.4784,1.4137,1.3588,1.3146,0.0,0.0,1.1387,1.1591,1.1421,1.0774,1.0021,0.9211,0.8382,0.7201,0.6322,0.5819,0.4788,0.3923,0.3201,0.2985,0.2823,0.2821,0.4216,0.4275,0.3385,0.4505,0.4625,0.4132,0.4442,0.4422,0.4349,0.471,0.4242,0.3458,0.4271,0.4595,0.0,0.0,0.5124,0.5075,0.5173,0.491,0.4543,0.4286,0.3837,0.3152,0.2036,0.1103,0.0413,0.0221,-0.0957,-0.2132,-0.2284,-0.353,-0.5047,-0.6444,-0.7822,-0.9074,-1.0139,-1.2137,-1.3939,-1.4832,-1.6528,-1.7823,-1.8243,-1.8921,-1.9692,-2.0427,-2.0862,-2.1679,-2.3173,-2.353,-2.3528,-2.3356,-2.3882,-2.414,-2.4267,-2.3593,-2.3242,-2.3364,-2.1474,-2.0468,-2.0566,-1.9449,-1.9015,-1.929,-1.8863,-1.8468,-1.8156,-1.7798,-1.7019,-1.5885,-1.4982,-1.4545,-1.441,-1.3665,-1.3302,-1.3091,-1.2432,-1.207,-1.1929,-1.1781,-1.1776,-1.1859,0.0,1.4762,1.5571,1.5707,1.5073,1.4922,1.6131,1.6403,1.6634,1.7057,1.6857,1.6669,1.6689,1.5496,1.4622,1.441,1.3984,0.0,0.0,1.3069,1.3119,1.2568,1.192,1.132,1.0714,0.978,0.8909,0.8178,0.7671,0.6851,0.5727,0.5422,0.5263,0.5259,0.7111,0.7252,0.61,0.6579,0.6206,0.5333,0.5743,0.591,0.5905,0.6276,0.6294,0.5962,0.5405,0.519,0.0,0.5878,0.5966,0.5826,0.6135,0.5812,0.5309,0.4978,0.4439,0.3617,0.2235,0.1762,0.1321,0.0055,-0.0862,-0.1605,-0.2204,-0.3197,-0.4294,-0.5546,-0.6961,-0.8285,-0.9186,-1.1322,-1.3189,-1.399,-1.5804,-1.7081,-1.7232,-1.8039,-1.8797,-1.9285,-1.9651,-2.0483,-2.2049,-2.2676,-2.2945,-2.2735,-2.2939,-2.3029,-2.3041,-2.2023,-2.1485,-2.1479,-1.9899,-1.8957,-1.8751,-1.8422,-1.8223,-1.819,-1.7975,-1.7789,-1.7497,-1.6921,-1.6088,-1.5046,-1.4122,-1.363,-1.3419,-1.2298,-1.1929,-1.1929,-1.1329,-1.1031,-1.1025,-1.0732,-1.0881,-1.1335,0.0,0.0,1.5088,1.5939,1.6641,1.7261,1.7753,1.7764,1.7591,1.7171,1.7088,1.7107,1.7162,1.6336,1.5647,1.5381,1.547,1.5023,1.3907,1.5082,1.5572,1.5093,1.4262,1.3775,1.3764,1.2415,1.1748,1.1836,1.1305,1.0632,0.9834,0.9891,0.9416,0.856,0.8916,0.8684,0.8059,0.8674,0.879,0.8614,0.908,0.9599,1.008,0.9722,0.9712,0.9512,0.6335,0.0,0.0,0.6436,0.6318,0.5775,0.6884,0.6298,0.5204,0.519,0.4735,0.4236,0.389,0.3021,0.1839,0.0439,-0.023,-0.1068,-0.306,-0.3265,-0.3411,-0.4655,-0.6312,-0.7686,-0.8127,-1.0409,-1.2204,-1.2467,-1.4522,-1.6115,-1.6172,-1.7435,-1.8537,-1.8971,-1.8965,-1.9073,-1.9388,-2.0107,-2.0442,-2.0194,-1.9528,-1.9406,-1.9944,-1.9303,-1.9116,-1.9548,-1.891,-1.8465,-1.8228,-1.8231,-1.7765,-1.6924,-1.7464,-1.6872,-1.5254,-1.4864,-1.4489,-1.4129,-1.3702,-1.32,-1.2526,-1.1335,-1.0738,-1.0513,-0.9679,-0.9372,-0.9372,-0.9372,-1.0351,-1.1706,0.0,0.0,0.0,1.73,1.8041,1.8658,1.8789,1.8513,1.8191,1.7988,1.8046,0.0,0.0,0.0,0.0,0.0,1.5573,1.5178,1.4664,1.5164,1.5551,1.5728,1.579,1.5646,1.5313,1.4948,1.4778,1.4788,1.4052,1.3401,1.2863,1.2537,1.1925,1.1062,1.1663,1.1481,1.0669,1.1333,1.1426,1.1021,1.0997,1.094,1.0779,1.0483,1.0134,0.964,0.0,0.0,0.7775,0.8027,0.7884,0.7641,0.8017,0.7602,0.6744,0.5869,0.5524,0.5125,0.3637,0.3076,0.2519,0.0885,0.0282,-0.0115,-0.0949,-0.179,-0.2641,-0.3395,-0.4693,-0.5839,-0.6586,-0.8793,-1.064,-1.0956,-1.3084,-1.4555,-1.4235,-1.5065,-1.5842,-1.6321,-1.6694,-1.7451,-1.8742,-1.9344,-1.9573,-1.9375,-1.911,-1.9241,-1.9754,-1.9147,-1.9039,-1.9489,-1.8496,-1.758,-1.6748,-1.6394,-1.5666,-1.4664,-1.4696,-1.4442,-1.3833,-1.3615,-1.3178,-1.2666,-1.2298,-1.1774,-1.1168,-1.0513,-1.0218,-1.0293,-0.9986,-0.9986,-1.0137,-1.0137,-1.0438,-1.0887,0.0,0.0,0.0,0.0,0.0,0.0,0.0,0.0,0.0,0.0,0.0,0.0,0.0,0.0,0.0,0.0,0.0,1.5913,1.5462,0.0,1.6686,1.6907,1.7184,1.7161,1.6749,1.6946,1.6904,1.6633,1.649,1.6057,1.5401,1.5097,1.4676,1.4228,1.4599,1.4408,1.3876,1.4425,1.438,1.3893,1.3401,1.3286,1.321,1.2448,1.2026,0.0,0.0,0.0,1.0687,0.944,0.8779,0.852,0.8688,0.8354,0.768,0.6594,0.6297,0.5934,0.4313,0.3936,0.3614,0.2098,0.1449,0.1009,0.0573,-0.0461,-0.1451,-0.1914,-0.311,-0.4247,-0.4977,-0.6894,-0.8584,-0.9105,-1.1012,-1.2498,-1.2584,-1.3378,-1.4202,-1.5027,-1.5477,-1.6156,-1.7309,-1.7726,-1.8152,-1.871,-1.8017,-1.7783,-1.834,-1.7959,-1.7724,-1.7773,-1.7269,-1.6489,-1.5309,-1.495,-1.433,-1.339,-1.3237,-1.3164,-1.3098,-1.2966,-1.2526,-1.1855,-1.1632,-1.1105,-1.0421,-0.9906,-0.976,-0.9836,-0.9539,-0.9539,-0.9609,-0.9539,-0.9539,-0.9533,0.0,0.0,0.0,0.0,0.0,0.0,0.0,0.0,0.0,0.0,0.0,0.0,0.0,0.0,0.0,0.0,0.0,0.0,1.634,0.0,0.0,1.861,1.8492,1.8344,1.8236,1.8474,1.8286,1.7654,1.8697,1.8649,1.759,1.7578,1.768,1.7885,1.7557,1.7458,1.7467,1.763,1.7497,1.7104,1.631,1.6504,1.7146,1.5484,0.0,0.0,0.0,0.0,1.3696,1.0777,0.9218,0.856,0.8923,0.859,0.7968,0.7446,0.7083,0.6695,0.588,0.5436,0.5008,0.3902,0.3051,0.2277,0.1442,0.0779,0.0169,-0.029,-0.1591,-0.2828,-0.3428,-0.4849,-0.6162,-0.7,-0.8568,-1.0091,-1.1324,-1.2359,-1.352,-1.4763,-1.5068,-1.5121,-1.5059,-1.5188,-1.6035,-1.7823,-1.6088,-1.5188,-1.5692,-1.5762,-1.5401,-1.4601,-1.533,-1.513,-1.3945,-1.3909,-1.36,-1.3091,-1.3091,-1.2952,-1.2746,-1.2753,-1.2298,-1.1558,-1.1558,-1.1111,-1.0363,-0.9604,-0.9226,-0.915,-0.8403,-0.8102,-0.8106,-0.788,-0.7804,-0.803,0.0,0.0,0.0,0.0,0.0,0.0,0.0,0.0,0.0,0.0,0.0,0.0,0.0,0.0,0.0,0.0,0.0,0.0,0.0,0.0,0.0,0.0,0.0,1.998,1.9895,2.0858,2.13,0.0,0.0,2.0589,2.0272,1.9798,1.9375,1.9059,1.9223,1.9322,1.935,1.9027,1.9071,1.9313,0.0,1.8105,1.7652,0.0,0.0,0.0,0.0,1.5313,1.4718,1.2915,1.1689,1.0775,0.9985,0.9558,0.9233,0.8555,0.8329,0.7996,0.6563,0.6206,0.5864,0.4433,0.4006,0.3843,0.339,0.2561,0.1777,0.1364,0.0054,-0.1241,-0.2033,-0.369,-0.5164,-0.5946,-0.7793,-0.9346,-0.9835,-1.0426,-1.0889,-1.123,-1.179,-1.2403,-1.2912,-1.2652,-1.3063,-1.4522,-1.4942,-1.5125,-1.5117,-1.5117,-1.4966,-1.4601,-1.4824,-1.4371,-1.3186,-1.2271,-1.1774,-1.1626,-1.1329,-1.118,-1.1111,-1.0812,-1.0368,-0.9922,-0.9922,-0.9539,-0.8932,-0.8703,-0.8551,-0.8403,-0.8178,-0.8102,-0.8102,-0.8178,-0.8255,-0.8327,0.0,0.0,0.0,0.0,0.0,0.0,0.0,0.0,0.0,0.0,0.0,0.0,0.0,0.0,0.0,0.0,0.0,0.0,0.0,0.0,0.0,0.0,0.0,2.0227,2.0587,2.1159,2.1683,0.0,0.0,0.0,0.0,2.1296,2.1115,2.1001,2.0969,2.1077,2.1201,2.0693,0.0,0.0,0.0,0.0,0.0,0.0,0.0,0.0,0.0,1.6601,1.5604,1.4439,1.3226,1.2032,1.1032,1.0642,1.0409,0.9526,0.9186,0.8905,0.7852,0.7536,0.7171,0.6023,0.5534,0.514,0.4473,0.3752,0.3072,0.2343,0.1532,0.0561,-0.0631,-0.2064,-0.3444,-0.4846,-0.6,-0.697,-0.7806,-0.8444,-0.9036,-0.9583,-1.0423,-1.1141,-1.1662,-1.1371,-1.1435,-1.2182,-1.2912,-1.3237,-1.3221,-1.3135,-1.2849,-1.2232,-1.2927,-1.3006,-1.2358,-1.1552,-1.1037,-1.0812,-1.0588,-1.0443,-1.0218,-0.9997,-0.9695,-0.9322,-0.9322,-0.9013,-0.8551,-0.8551,-0.8479,-0.8327,-0.8327,-0.8174,-0.7868,-0.7863,-0.7629,-0.7314,0.0,0.0,0.0,0.0,0.0,0.0,0.0,0.0,0.0,0.0,0.0,0.0,0.0,0.0,0.0,0.0,0.0,0.0,0.0,0.0,0.0,0.0,1.9549,1.9967,2.0711,2.0615,2.1009,2.1937,0.0,0.0,0.0,0.0,0.0,0.0,0.0,0.0,0.0,0.0,0.0,0.0,0.0,0.0,0.0,0.0,0.0,0.0,1.9412,1.7964,1.6539,1.5796,1.4367,1.2797,1.2014,1.1733,1.1537,1.0415,0.9987,0.9758,0.9343,0.9026,0.862,0.8013,0.725,0.6381,0.5271,0.4777,0.422,0.3111,0.2774,0.2239,0.0778,-0.0286,-0.1638,-0.3626,-0.3779,-0.4214,-0.5711,-0.6591,-0.75,-0.8727,-0.9633,-1.0206,-1.0408,-1.0259,-1.0242,-1.0265,-1.0279,-1.0448,-1.092,-1.0747,-1.0154,-0.906,-1.0502,-1.124,-1.1218,-1.0849,-1.0479,-1.0038,-1.0038,-0.983,-0.9487,-0.9417,-0.9205,-0.8861,-0.8861,-0.8703,-0.8394,-0.8394,-0.8318,-0.8318,-0.8318,-0.7859,-0.7249,-0.7088,-0.6556,-0.5876,0.0,0.0,0.0,0.0,0.0,0.0,0.0,0.0,0.0,0.0,1.9536,1.9504,0.0,0.0,0.0,0.0,0.0,0.0,0.0,0.0,0.0,0.0,2.0313,2.0783,2.0947,2.1554,2.2301,2.3184,2.2303,0.0,0.0,0.0,0.0,0.0,0.0,0.0,0.0,0.0,0.0,0.0,0.0,0.0,0.0,0.0,0.0,0.0,2.0926,1.9415,1.7973,1.7368,1.5911,1.4148,1.2986,1.2503,1.2333,1.1889,1.1407,1.0937,1.0739,1.0195,0.954,0.8738,0.8416,0.797,0.68,0.6152,0.5512,0.4447,0.3659,0.2998,0.2323,0.0938,-0.0594,-0.206,-0.2907,-0.3786,-0.4899,-0.5438,-0.5802,-0.5974,-0.6471,-0.6834,-0.6883,-0.6991,-0.7287,-0.7686,-0.7583,-0.8227,-0.988,-0.9735,-0.9432,-0.8899,-0.9006,-0.8902,-0.8654,-0.8374,-0.8093,-0.7731,-0.744,-0.7304,-0.7232,-0.6943,-0.6723,-0.6703,-0.6703,-0.6703,-0.6626,-0.6626,-0.6546,-0.6384,-0.6384,-0.6237,-0.5931,-0.6079,-0.5924,-0.5787,0.0,0.0,0.0,0.0,0.0,0.0,0.0,1.8509,1.9058,1.8987,1.9354,1.9596,1.9601,1.9707,1.9738,0.0,0.0,0.0,0.0,0.0,0.0,0.0,0.0,2.0684,2.1092,2.1073,2.1916,2.3661,0.0,2.2503,2.3147,2.2571,2.228,2.225,2.2023,2.2327,2.3007,0.0,0.0,2.2097,2.3211,2.3178,0.0,0.0,0.0,0.0,0.0,1.985,1.8468,1.8168,1.7089,1.5664,1.4339,1.3788,1.3517,1.2584,1.2102,1.1789,1.1472,1.1185,1.0799,0.9706,0.9592,0.9242,0.7138,0.711,0.702,0.5348,0.4785,0.4363,0.358,0.2265,0.1001,0.012,-0.0908,-0.1988,-0.3025,-0.392,-0.458,-0.4767,-0.5413,-0.5823,-0.5975,-0.5834,-0.5931,-0.6157,-0.5949,-0.649,-0.8181,-0.781,-0.766,-0.7896,-0.7697,-0.7743,-0.7981,-0.7774,-0.7416,-0.6915,-0.6702,-0.6535,-0.6332,-0.6275,-0.6207,-0.6129,-0.636,-0.6318,-0.6163,-0.6163,-0.6163,-0.6083,-0.6083,-0.5743,-0.5334,-0.541,-0.5173,-0.4869,0.0,0.0,0.0,0.0,0.0,0.0,0.0,1.7671,1.854,1.8671,1.9133,1.9513,1.9694,1.9823,1.9885,0.0,0.0,0.0,0.0,0.0,0.0,0.0,0.0,2.0299,2.0929,0.0,0.0,2.3512,2.2828,0.0,0.0,0.0,0.0,0.0,2.2257,2.2424,2.2865,2.2488,2.2214,0.0,0.0,2.3916,0.0,0.0,0.0,0.0,0.0,2.0592,1.9197,1.8873,1.7993,1.6828,1.5561,1.5002,1.4538,1.3302,1.2692,1.2379,1.2192,1.2103,1.1779,1.0705,1.0676,1.025,0.7581,0.8025,0.8371,0.6215,0.5834,0.5581,0.4638,0.3506,0.249,0.1908,0.0925,-0.013,-0.1259,-0.2716,-0.3716,-0.3813,-0.4686,-0.5262,-0.5375,-0.5075,-0.4925,-0.5033,-0.4806,-0.5199,-0.6479,-0.5959,-0.5944,-0.6679,-0.6555,-0.6769,-0.721,-0.7036,-0.6616,-0.5944,-0.5909,-0.5705,-0.5464,-0.5685,-0.5767,-0.5576,-0.5943,-0.5931,-0.5699,-0.5699,-0.5699,-0.5702,-0.5733,-0.5337,-0.4867,-0.489,-0.4396,-0.381,0.0,0.0,0.0,0.0,0.0,0.0,0.0,1.8448,1.877,1.9494,1.9014,1.8901,1.9701,1.9849,1.9955,0.0,0.0,0.0,0.0,0.0,0.0,0.0,0.0,0.0,0.0,0.0,0.0,2.2619,2.2536,0.0,0.0,0.0,0.0,0.0,0.0,2.2244,2.3376,2.2557,0.0,0.0,0.0,0.0,0.0,0.0,0.0,0.0,0.0,2.275,2.1162,2.0061,1.8624,1.7132,1.6344,1.5663,1.5095,1.4697,1.3525,1.2604,1.3453,1.2968,1.206,1.149,1.1407,1.0963,0.9252,0.9193,0.9056,0.7363,0.658,0.5973,0.5409,0.4463,0.3369,0.2223,0.1551,0.0763,-0.0383,-0.2309,-0.3299,-0.2473,-0.3422,-0.3964,-0.3504,-0.356,-0.3758,-0.3904,-0.4025,-0.4353,-0.4967,-0.4827,-0.4964,-0.5512,-0.5516,-0.5245,-0.4758,-0.4645,-0.4308,-0.3722,-0.356,-0.3566,-0.3657,-0.3896,-0.399,-0.3856,-0.4187,-0.4233,-0.3995,-0.3995,-0.3995,-0.4006,-0.4092,-0.4053,-0.3991,-0.4074,-0.3738,-0.3202,0.0,0.0,0.0,0.0,0.0,0.0,1.711,1.795,1.8542,1.8296,1.8899,1.9496,1.9877,1.9952,1.9985,2.004,0.0,0.0,0.0,0.0,0.0,0.0,0.0,0.0,0.0,0.0,2.1983,2.3343,2.3343,0.0,0.0,0.0,0.0,0.0,0.0,2.2154,2.3048,2.2489,0.0,0.0,0.0,0.0,0.0,0.0,0.0,0.0,0.0,0.0,2.1057,2.0711,1.9679,1.8515,1.8186,1.73,1.6194,1.5036,1.4511,1.4212,1.3739,1.3498,1.319,1.2235,1.1943,1.149,0.9887,0.9763,0.9667,0.8438,0.7678,0.7062,0.6379,0.5277,0.425,0.3634,0.2605,0.1714,0.1091,-0.0438,-0.1541,-0.1896,-0.1858,-0.1742,-0.1609,-0.1675,-0.1877,-0.2283,-0.2484,-0.2817,-0.3485,-0.382,-0.3954,-0.4084,-0.436,-0.4254,-0.3685,-0.391,-0.3773,-0.3281,-0.3301,-0.3328,-0.3438,-0.373,-0.3742,-0.3632,-0.3958,-0.4079,-0.3999,-0.3999,-0.4034,-0.401,-0.4048,-0.4051,-0.4069,-0.3761,-0.3651,-0.3541,0.0,0.0,0.0,0.0,0.0,1.6343,1.6479,1.7539,1.8266,1.8084,1.8908,1.9635,1.9931,1.9996,2.0099,2.0351,2.026,0.0,0.0,0.0,0.0,0.0,0.0,0.0,0.0,0.0,2.2724,2.3904,2.4152,2.4266,0.0,0.0,2.4062,2.3874,0.0,0.0,0.0,0.0,0.0,0.0,0.0,0.0,0.0,0.0,0.0,0.0,0.0,0.0,0.0,0.0,0.0,1.972,1.9421,1.8656,1.7473,1.5799,1.5224,1.4933,1.4059,1.3852,1.3682,1.2733,1.2394,1.1941,1.0699,1.0488,1.033,0.9315,0.8704,0.8088,0.7236,0.6139,0.5304,0.4939,0.3887,0.2907,0.2395,0.1157,-0.0063,-0.0952,-0.0904,-0.0721,-0.0529,-0.0467,-0.0671,-0.1143,-0.121,-0.1546,-0.2284,-0.2619,-0.2952,-0.3418,-0.3485,-0.3368,-0.3061,-0.3231,-0.3094,-0.2586,-0.2684,-0.2849,-0.3155,-0.3199,-0.3265,-0.3367,-0.3532,-0.3724,-0.3805,-0.4097,-0.4166,-0.4151,-0.4043,-0.4059,-0.4002,-0.3587,-0.3452,-0.3587,0.0,0.0,0.0,0.0,0.0,0.0,1.7358,1.7444,1.8012,1.9654,1.9149,1.8949,1.9805,1.9971,2.0356,2.1219,2.0555,0.0,0.0,0.0,0.0,0.0,0.0,0.0,0.0,0.0,2.3881,2.39,2.4759,2.5191,2.5191,2.5191,2.5082,2.4831,0.0,0.0,0.0,0.0,0.0,0.0,0.0,0.0,0.0,0.0,0.0,0.0,0.0,0.0,0.0,0.0,0.0,0.0,0.0,1.9339,1.8965,1.7433,1.5561,1.4133,1.4637,1.405,1.3251,1.3054,1.2696,1.2305,1.1884,1.158,1.1095,1.0087,0.9512,0.8875,0.7874,0.7211,0.6539,0.5909,0.5347,0.4606,0.3527,0.1986,0.089,0.0613,-0.0922,-0.1618,-0.0706,-0.0397,-0.047,-0.0806,-0.0605,-0.0806,-0.1412,-0.1212,-0.1952,-0.3825,-0.3015,-0.2581,-0.2727,-0.2314,-0.1839,-0.1191,-0.1159,-0.1637,-0.2589,-0.1888,-0.1988,-0.2699,-0.2619,-0.272,-0.2956,-0.3985,-0.4308,-0.4164,-0.367,-0.3646,-0.3745,-0.3379,-0.3047,-0.2867,0.0,0.0,0.0,0.0,0.0,0.0,0.0,1.8802,1.9142,1.9039,1.9292,1.9586,1.9881,1.9971,2.0356,2.1219,2.1079,0.0,0.0,0.0,0.0,0.0,0.0,0.0,0.0,0.0,2.4197,2.4793,2.5061,2.5206,2.5209,2.5206,2.5172,2.5061,2.4024,2.3639,0.0,0.0,0.0,0.0,0.0,0.0,0.0,0.0,0.0,0.0,0.0,0.0,0.0,0.0,0.0,0.0,0.0,0.0,0.0,1.7858,1.6604,1.555,1.5458,1.4692,1.3902,1.3769,1.3213,1.2572,1.2165,1.1483,1.0782,1.0273,0.96,0.8898,0.8403,0.7903,0.7432,0.7008,0.638,0.5779,0.5397,0.3757,0.2548,0.2514,0.1402,0.0781,0.1031,0.086,0.0739,0.0672,0.0593,0.0263,-0.0403,-0.0594,-0.0849,-0.1306,-0.0997,-0.1001,-0.1256,-0.147,-0.1418,-0.1159,-0.117,-0.132,-0.1611,-0.1425,-0.1514,-0.1746,-0.1687,-0.1633,-0.1586,-0.1873,-0.1772,-0.1494,-0.1453,-0.1485,-0.1418,-0.116,-0.1074,-0.1164,0.0,0.0,0.0,0.0,0.0,0.0,0.0,1.9458,1.9791,1.9206,1.9601,1.9952,1.9936,1.9977,2.0484,2.1687,2.1795,0.0,0.0,0.0,0.0,0.0,0.0,0.0,2.264,2.3788,2.4495,2.4709,2.4739,2.476,2.4743,2.4752,2.4913,2.5212,2.4491,2.4157,0.0,0.0,0.0,0.0,0.0,0.0,0.0,0.0,0.0,0.0,0.0,0.0,0.0,0.0,0.0,0.0,0.0,0.0,0.0,0.0,1.7323,1.6218,1.5805,1.5154,1.4513,1.426,1.3688,1.3051,1.2716,1.1908,1.1143,1.0578,0.9894,0.9328,0.9013,0.8579,0.8312,0.8275,0.7443,0.6748,0.6612,0.4826,0.3282,0.2572,0.212,0.1775,0.1549,0.1654,0.1614,0.1412,0.1438,0.1296,0.099,0.026,0.0128,0.0889,0.0659,0.0466,0.0327,-0.0266,-0.0403,-0.0202,-0.0274,-0.0555,-0.0911,-0.0563,-0.0568,-0.0933,-0.0434,-0.0367,0.0,-0.0233,-0.0243,-0.0503,-0.0257,-0.0263,-0.0358,-0.0,-0.0,-0.0179,0.0,0.0,0.0,0.0,0.0,0.0,0.0,1.9526,2.0011,2.0001,1.9998,1.9996,2.0001,2.0001,2.0697,2.2443,0.0,0.0,0.0,0.0,0.0,0.0,0.0,0.0,2.2709,2.4337,2.4804,2.4,2.4002,2.3995,2.3995,2.3938,2.438,2.5197,2.495,2.4866,0.0,0.0,0.0,0.0,0.0,0.0,0.0,0.0,0.0,0.0,0.0,0.0,0.0,0.0,0.0,0.0,0.0,0.0,0.0,0.0,0.0,0.0,0.0,1.5462,1.5064,1.4578,1.4111,1.3689,1.3353,1.2789,0.0,1.0902,1.0389,1.0019,0.9627,0.9317,0.9172,0.9423,0.8526,0.7652,0.722,0.5354,0.3303,0.1334,0.1577,0.1671,0.1213,0.1909,0.2213,0.1738,0.1953,0.2242,0.2693,0.1407,0.1266,0.26,0.1957,0.1676,0.1811,0.1139,0.1006,0.1277,0.1143,0.0613,-0.0279,0.068,0.0614,-0.014,0.1078,0.109,0.0146,0.0942,0.0491,-0.0586,0.0343,0.0351,-0.0089,0.0448,0.0448,0.0179,0.0,0.0,0.0,0.0,0.0,0.0,0.0,0.0,0.0,0.0,1.9991,2.001,2.0001,2.0001,2.0697,0.0,0.0,0.0,0.0,0.0,0.0,0.0,0.0,0.0,2.269,2.4339,2.5116,2.4964,2.4312,2.4005,2.3995,2.337,2.3524,2.4274,2.3611,2.3571,0.0,0.0,0.0,0.0,0.0,0.0,0.0,0.0,0.0,0.0,2.2676,2.22,0.0,0.0,0.0,0.0,0.0,0.0,0.0,0.0,1.7961,1.6897,1.615,0.0,1.5173,1.5154,1.48,1.4205,0.0,1.2696,1.2126,1.0933,1.0603,1.0391,1.0021,1.0013,0.9788,0.8943,0.8805,0.8319,0.7081,0.5513,0.3912,0.2286,0.2334,0.2257,0.1638,0.2183,0.2518,0.2461,0.2816,0.3157,0.3485,0.3535,0.3734,0.4195,0.3161,0.2277,0.1628,0.1367,0.125,0.1277,0.1143,0.0945,0.0748,0.1014,0.1149,0.1292,0.1748,0.2075,0.2266,0.2553,0.2726,0.2791,0.282,0.2698,0.254,0.2408,0.2244,0.2243,0.0,0.0,0.0,0.0,0.0,0.0,0.0,0.0,0.0,0.0,0.0,2.0021,2.0089,2.006,0.0,0.0,0.0,0.0,0.0,0.0,0.0,0.0,0.0,2.3295,2.3295,2.4591,2.4889,2.4149,2.3716,2.3283,2.2898,2.2442,2.2885,2.4033,2.3587,2.3563,0.0,0.0,0.0,0.0,0.0,0.0,0.0,0.0,0.0,0.0,2.206,2.1506,0.0,2.0745,2.0275,1.982,0.0,0.0,0.0,0.0,1.765,1.7085,1.6533,1.6029,1.5576,1.5197,1.4921,1.4456,1.3563,1.3101,1.2508,1.1345,1.1012,1.093,1.0935,1.0759,1.0424,0.9896,0.9713,0.8799,0.6431,0.5316,0.4119,0.2345,0.2286,0.2385,0.2242,0.2497,0.2746,0.2965,0.3207,0.3433,0.3854,0.4036,0.4267,0.465,0.389,0.3103,0.2492,0.2294,0.1918,0.1412,0.1678,0.1545,0.1078,0.1145,0.1346,0.1618,0.2034,0.2373,0.2777,0.3229,0.3501,0.3587,0.3673,0.356,0.3345,0.3069,0.3006,0.3011,0.0,0.0,0.0,0.0,0.0,0.0,0.0,0.0,0.0,0.0,0.0,0.0,0.0,0.0,0.0,0.0,0.0,0.0,0.0,0.0,0.0,0.0,2.3756,2.3621,2.3621,2.4495,2.4235,2.2803,2.2728,2.2327,2.1606,2.1451,2.2146,2.3527,2.3769,2.3841,0.0,0.0,0.0,0.0,0.0,0.0,0.0,0.0,0.0,0.0,0.0,0.0,0.0,2.0416,1.976,1.9018,1.8981,0.0,0.0,0.0,0.0,0.0,1.6486,1.6381,1.6105,1.5165,1.4786,1.4516,1.3899,1.3454,1.2821,1.1705,1.1344,1.1282,1.1478,1.11,1.0786,1.0922,1.0407,0.896,0.5983,0.5316,0.4393,0.2447,0.2314,0.2571,0.2899,0.2787,0.2881,0.3309,0.3259,0.344,0.3845,0.3785,0.4016,0.4689,0.4329,0.4073,0.3794,0.3542,0.2883,0.1814,0.2412,0.2217,0.1218,0.128,0.1415,0.1628,0.2211,0.2548,0.2558,0.3457,0.3572,0.3318,0.3732,0.3617,0.3268,0.317,0.303,0.2961,0.0,0.0,0.0,0.0,0.0,0.0,0.0,0.0,0.0,0.0,0.0,0.0,0.0,0.0,0.0,0.0,0.0,0.0,0.0,0.0,0.0,2.3948,2.2697,2.1971,2.1971,2.2808,2.3105,2.2799,2.2126,2.1736,2.1586,2.0834,2.0619,2.0861,2.2278,2.292,2.2939,0.0,0.0,0.0,2.4888,0.0,0.0,0.0,0.0,0.0,0.0,0.0,0.0,1.8778,1.846,1.8256,1.8636,0.0,0.0,0.0,0.0,0.0,1.49,1.5765,1.6716,1.5724,1.4993,1.4285,1.3346,1.2737,1.209,1.1041,1.0797,1.0584,0.9915,1.0124,1.0115,0.9331,0.8964,0.8396,0.7307,0.6596,0.5664,0.4245,0.3955,0.3764,0.3516,0.312,0.3081,0.3576,0.3217,0.321,0.3769,0.3884,0.4282,0.5067,0.4746,0.4699,0.5091,0.4555,0.3744,0.2679,0.2678,0.2376,0.188,0.1563,0.1907,0.2719,0.2949,0.306,0.3145,0.3613,0.3771,0.3712,0.3626,0.3421,0.3197,0.3103,0.2824,0.2528,0.0,0.0,0.0,0.0,0.0,0.0,0.0,0.0,0.0,0.0,0.0,0.0,0.0,0.0,0.0,0.0,0.0,0.0,0.0,0.0,2.2211,2.2575,2.1479,2.1496,2.287,2.2868,2.2598,2.21,2.1756,2.1359,2.0901,2.0939,2.0693,2.0315,2.15,2.2278,2.2709,2.3091,0.0,0.0,0.0,0.0,0.0,0.0,0.0,0.0,0.0,0.0,0.0,0.0,1.8082,1.7905,1.7659,0.0,0.0,0.0,0.0,0.0,1.476,1.5167,1.5719,1.5323,1.5145,1.4921,1.4272,1.3734,1.2956,1.1653,1.1387,1.1172,1.0605,1.0517,1.0295,0.9676,0.8997,0.8229,0.7281,0.6708,0.59,0.4696,0.4473,0.4317,0.4084,0.3648,0.3513,0.3875,0.3623,0.3561,0.3907,0.4132,0.4587,0.5316,0.5247,0.5536,0.6203,0.6181,0.5335,0.3744,0.4207,0.4036,0.3207,0.2631,0.2634,0.3084,0.3077,0.306,0.3145,0.3613,0.3763,0.3767,0.3728,0.3506,0.3358,0.303,0.2703,0.2437,0.0,0.0,0.0,0.0,0.0,0.0,0.0,0.0,0.0,0.0,0.0,0.0,0.0,0.0,0.0,0.0,0.0,0.0,0.0,0.0,2.1206,2.135,2.0565,2.1062,2.3045,2.2469,2.1844,2.1201,2.127,2.0951,2.0285,2.1111,2.1161,2.0587,2.1393,2.2211,2.2977,2.2977,2.3744,0.0,0.0,0.0,0.0,0.0,0.0,0.0,0.0,0.0,0.0,0.0,0.0,0.0,0.0,0.0,0.0,1.4972,1.4735,1.4644,1.4484,1.4556,1.4665,1.4578,1.4832,1.5054,1.4789,1.429,1.3556,1.2268,1.186,1.1652,1.1345,1.0972,1.0552,0.9979,0.9396,0.8598,0.7341,0.6901,0.6274,0.5057,0.4899,0.4794,0.4604,0.416,0.4024,0.4367,0.4257,0.4247,0.4508,0.468,0.5012,0.5478,0.5703,0.6132,0.6715,0.7274,0.6658,0.4872,0.5602,0.5422,0.4517,0.3823,0.356,0.3659,0.3538,0.3543,0.3576,0.3891,0.4053,0.4075,0.3841,0.3606,0.3383,0.2838,0.2514,0.2333,0.0,0.0,0.0,0.0,0.0,0.0,0.0,0.0,0.0,0.0,0.0,0.0,0.0,0.0,0.0,0.0,0.0,0.0,0.0,0.0,2.0437,2.117,2.0386,2.0076,2.0365,2.0317,2.0295,2.0288,2.0366,2.0327,2.0227,2.1095,2.1435,2.1359,2.2152,2.2993,2.3804,2.3818,2.4309,2.507,0.0,0.0,0.0,0.0,0.0,0.0,0.0,0.0,0.0,0.0,0.0,0.0,0.0,0.0,1.4056,1.3925,1.3502,1.3075,1.3127,1.3863,1.4433,1.3701,1.3573,1.3644,1.3614,1.3169,1.2588,1.2113,1.1597,1.119,1.1054,1.09,1.0391,0.918,0.9783,0.9793,0.8231,0.7924,0.7405,0.6056,0.5739,0.5404,0.4819,0.4405,0.4483,0.5238,0.5064,0.5242,0.5977,0.5828,0.5727,0.5795,0.6048,0.619,0.6263,0.7203,0.7125,0.599,0.6056,0.574,0.5127,0.4596,0.4675,0.5064,0.5017,0.517,0.5303,0.4853,0.4746,0.4849,0.4073,0.353,0.3079,0.2312,0.2017,0.2034,0.0,0.0,0.0,0.0,0.0,0.0,0.0,0.0,0.0,0.0,0.0,0.0,0.0,0.0,0.0,0.0,0.0,0.0,0.0,1.9904,2.0006,2.0316,1.9814,1.955,1.9594,1.9847,1.9972,1.9943,2.0031,2.0041,2.0012,2.0394,2.0556,2.0544,2.0798,2.1415,2.2213,2.2228,2.2609,2.3267,2.3543,0.0,0.0,0.0,0.0,0.0,0.0,0.0,0.0,0.0,1.6738,1.6055,1.5404,1.4336,1.3235,1.2809,1.234,1.195,1.1955,1.2733,1.3268,1.2131,1.2485,1.3194,1.3444,1.3257,1.2774,1.1809,1.1231,1.0707,1.01,1.0197,1.0153,0.9506,0.9408,0.9269,0.8774,0.8372,0.7864,0.7147,0.6664,0.6161,0.561,0.5306,0.5226,0.5464,0.5606,0.5794,0.6077,0.5828,0.5723,0.5773,0.5927,0.6186,0.6487,0.7326,0.7591,0.7377,0.7316,0.7161,0.6897,0.6094,0.5767,0.59,0.5385,0.5297,0.5516,0.5433,0.5572,0.5699,0.5384,0.5148,0.5004,0.4696,0.4205,0.3704,0.0,0.0,0.0,0.0,0.0,0.0,0.0,0.0,0.0,0.0,0.0,0.0,0.0,0.0,0.0,0.0,0.0,0.0,1.9518,1.9537,1.9516,1.9416,1.9287,1.9151,1.9006,1.9369,1.955,1.9594,1.9638,1.9705,1.9736,2.0019,2.0144,2.0186,2.0301,2.0693,2.1264,2.1207,2.1399,2.1758,2.2027,2.1203,0.0,0.0,0.0,0.0,0.0,0.0,0.0,0.0,1.5537,1.49,1.4126,1.3282,1.245,1.1907,1.1516,1.1321,1.1698,1.2108,1.2317,1.1759,1.2232,1.2838,1.2804,1.2863,1.2603,1.1585,1.1115,1.0624,0.9733,1.0103,1.0379,0.9721,0.9488,0.9323,0.9136,0.87,0.8242,0.7799,0.746,0.6959,0.6246,0.6243,0.6214,0.6029,0.6487,0.6817,0.6876,0.6543,0.6372,0.6421,0.6388,0.6542,0.6847,0.7511,0.7982,0.8172,0.8182,0.8117,0.8047,0.7256,0.6863,0.6806,0.6257,0.6091,0.6301,0.6266,0.6282,0.6388,0.6227,0.63,0.6384,0.6197,0.5647,0.502,0.0,0.0,0.0,0.0,0.0,0.0,0.0,0.0,0.0,0.0,0.0,0.0,0.0,0.0,0.0,0.0,0.0,0.0,1.8697,1.8853,1.8837,1.8574,1.8823,1.8771,1.8387,1.8628,1.8872,1.9097,1.9166,1.9267,1.9411,2.0074,2.0443,2.0604,2.1051,2.1296,2.1332,2.1206,2.1043,2.0813,2.0554,1.9899,0.0,0.0,0.0,0.0,0.0,0.0,0.0,0.0,1.4176,1.35,1.311,1.2333,1.1529,1.1262,1.1054,1.1179,1.2507,1.221,1.1766,1.2884,1.2926,1.2428,1.1484,1.1645,1.1866,1.1382,1.1282,1.0994,1.0087,1.0824,1.1105,0.9632,1.0084,1.0272,0.9249,0.9003,0.8651,0.7908,0.8047,0.775,0.6615,0.7131,0.7397,0.7141,0.7872,0.8407,0.8699,0.8294,0.7972,0.7717,0.7589,0.7369,0.7146,0.7881,0.8231,0.8236,0.8447,0.8376,0.8172,0.8047,0.7857,0.7731,0.7731,0.7837,0.8009,0.7233,0.6857,0.6762,0.6377,0.6454,0.6784,0.6228,0.5882,0.5743,0.0,0.0,0.0,0.0,0.0,0.0,0.0,0.0,0.0,0.0,0.0,0.0,0.0,0.0,0.0,0.0,0.0,0.0,1.6884,1.6677,1.6536,1.65,1.6295,1.6138,1.6078,1.5916,1.6829,1.8822,1.8922,1.899,1.8972,1.8645,1.8687,1.8948,1.7948,1.7702,1.798,1.7435,1.7097,1.6978,1.7236,1.6757,0.0,0.0,0.0,0.0,0.0,0.0,0.0,0.0,0.0,0.0,1.1803,1.1446,1.1018,1.0557,1.0475,1.0559,1.0628,1.0966,1.108,1.0192,1.0819,1.1199,0.9511,1.0358,1.1224,1.0253,1.0324,1.0371,0.96,1.0219,1.0653,1.011,1.0487,1.0718,1.0484,1.0147,0.9728,0.9124,0.874,0.8423,0.8088,0.8011,0.7985,0.802,0.8331,0.8514,0.855,0.8196,0.7834,0.7647,0.8117,0.8422,0.8422,0.9482,0.9761,0.9326,0.9396,0.9081,0.8376,0.8117,0.7987,0.7922,0.7657,0.7837,0.8326,0.8695,0.8886,0.8993,0.8988,0.8988,0.9003,0.898,0.8462,0.7798,0.0,0.0,0.0,0.0,0.0,0.0,0.0,0.0,0.0,0.0,0.0,0.0,0.0,0.0,0.0,0.0,0.0,0.0,0.0,1.5227,1.5051,1.5071,1.4894,1.4805,1.4826,1.4553,1.525,1.6978,1.7301,1.745,1.7488,1.7029,1.694,1.7088,1.5944,1.5505,1.5654,1.5069,1.4759,1.4692,1.4849,1.4468,1.3785,0.0,0.0,0.0,0.0,0.0,0.0,0.0,0.0,0.0,1.0309,1.0247,1.022,1.0219,1.0296,1.048,1.1009,1.1102,1.093,1.0658,1.0829,1.0673,0.9269,0.9643,1.0145,0.9708,0.98,0.9849,0.9549,0.996,1.0388,1.0462,1.0609,1.0785,1.0939,1.0667,1.0253,0.9716,0.9408,0.9128,0.8926,0.8997,0.8901,0.858,0.8812,0.8965,0.8849,0.8459,0.821,0.8248,0.8856,0.924,0.935,1.0343,1.071,1.0268,1.0268,0.9837,0.9022,0.8441,0.8052,0.7867,0.7836,0.824,0.8954,0.9468,0.9922,1.0143,1.0143,1.0218,1.0218,1.0218,0.9765,0.9175,0.0,0.0,0.0,0.0,0.0,0.0,0.0,0.0,0.0,0.0,0.0,0.0,0.0,0.0,0.0,0.0,0.0,0.0,0.0,0.0,1.4038,1.4023,1.4146,1.4176,1.4123,1.3938,1.393,1.4124,1.4821,1.5247,1.5418,1.5342,1.5302,1.5221,1.4665,1.4293,1.407,1.3664,1.3451,1.3336,1.3069,1.2685,1.2184,1.1282,0.0,0.0,0.0,0.0,0.0,0.0,0.0,0.0,0.8842,0.8989,0.9385,1.0061,1.029,1.0723,1.2573,1.1862,1.1041,1.2817,1.1975,1.0594,1.0155,0.9389,0.8926,0.9577,0.9583,0.9523,0.9717,1.0005,1.0302,1.0614,1.068,1.0767,1.0857,1.0733,1.0426,0.9823,0.9911,0.9862,0.9377,0.9922,0.9904,0.8973,0.9383,0.9541,0.9335,0.8948,0.8875,0.9214,0.9591,0.9907,1.0107,1.0831,1.1205,1.1135,1.1135,1.0703,0.9901,0.9022,0.8262,0.778,0.825,0.8908,0.9645,0.9894,1.0218,1.0519,1.0368,1.0513,1.0738,1.0368,1.0143,0.9916,0.0,0.0,0.0,0.0,0.0,0.0,0.0,0.0,0.0,0.0,0.0,0.0,0.0,0.0,0.0,0.0,0.0,0.0,0.0,0.0,1.2074,1.1951,1.1968,1.1991,1.1968,1.1876,1.1913,1.2051,1.3839,1.4756,1.4762,1.4197,1.3996,1.4085,1.2773,1.2302,1.2442,1.146,1.098,1.0829,1.0418,1.0077,0.9802,0.9226,0.8885,0.0,0.0,0.0,0.0,0.0,0.0,0.0,0.8545,0.9033,0.9547,0.9301,0.9811,1.0474,1.0554,1.0298,1.0096,1.0513,1.0313,0.9969,0.9762,0.9394,0.9069,0.9028,0.9548,0.9927,0.9552,1.0378,1.0924,1.0321,1.1454,1.1969,1.0829,1.1347,1.1446,1.038,1.0273,1.0273,1.0147,1.024,1.0191,0.9824,0.987,0.9738,0.9301,0.9111,0.9182,0.9589,1.0234,1.0879,1.1543,1.2373,1.2536,1.202,1.202,1.1578,1.0703,0.9703,0.8794,0.7986,0.8736,0.9269,0.9645,1.0336,1.0738,1.0962,1.0887,1.0887,1.0812,1.0663,1.0519,1.0368,0.0,0.0,0.0,0.0,0.0,0.0,0.0,0.0,0.0,0.0,0.0,0.0,0.0,0.0,0.0,0.0,0.0,0.0,0.0,1.0768,1.0651,1.05,1.0824,1.0898,1.068,1.0977,1.1155,1.1215,1.2396,1.3091,1.3299,1.3005,1.2864,1.2817,1.1881,1.1376,1.1176,1.0352,0.9957,0.9804,0.9149,0.8771,0.8555,0.7951,0.746,0.7065,0.6804,0.0,0.0,0.0,0.0,0.0,0.0,0.0,0.9127,0.9362,0.9732,1.0176,1.0669,1.0313,0.9808,0.9795,0.9798,0.9752,0.9594,0.9459,0.9296,0.8961,0.9458,0.9853,0.9514,1.0198,1.0664,1.0173,1.134,1.2,1.1058,1.1624,1.1782,1.0943,1.0534,1.039,1.0505,1.0469,1.0394,1.0231,1.0197,1.0013,0.9655,0.9387,0.9448,0.9826,1.079,1.1573,1.2231,1.316,1.3467,1.3139,1.2948,1.2451,1.1578,1.0268,0.9729,0.9832,0.9633,1.0107,1.104,1.0977,1.1037,1.1111,1.0962,1.0887,1.0812,1.0588,1.0443,1.0293,0.0,0.0,0.0,0.0,0.0,0.0,0.0,0.0,0.0,0.0,0.0,0.0,0.0,0.0,0.0,0.0,0.0,0.0,0.0,0.9581,0.9665,0.9585,1.0238,1.0413,1.0034,1.0667,1.0991,1.092,1.1085,1.1304,1.1561,1.1906,1.1909,1.1637,1.13,1.0814,1.0215,0.9679,0.9348,0.9163,0.8393,0.7977,0.7706,0.7031,0.6321,0.5685,0.56,0.5512,0.5415,0.5432,0.0,0.0,0.0,0.0,0.843,0.9372,0.955,0.975,1.1124,1.0666,0.9787,0.9739,0.9768,0.9764,0.9609,0.954,0.9474,0.9288,0.9513,0.9716,0.9642,1.0021,1.0303,1.0168,1.1121,1.1711,1.1257,1.1767,1.1974,1.1367,1.084,1.0544,1.0621,1.0621,1.0597,1.0437,1.0376,1.0247,1.0049,0.9782,0.9787,1.0148,1.1296,1.2147,1.2572,1.3503,1.401,1.401,1.37,1.3199,1.2458,1.1136,1.1019,1.1812,1.0899,1.1275,1.2492,1.1694,1.126,1.1111,1.0887,1.0812,1.0738,1.0368,1.0218,1.0218,0.0,0.0,0.0,0.0,0.0,0.0,0.0,0.0,0.0,0.0,1.2441,1.1674,1.0773,1.0485,0.0,0.0,0.0,0.0,0.7597,0.0,0.0,0.9491,0.9936,1.0159,1.0082,1.047,1.0656,1.0632,1.0968,1.0804,1.0191,1.1088,1.1339,1.0987,1.0434,0.9976,0.9556,0.8741,0.8128,0.7678,0.7377,0.697,0.6502,0.5971,0.5752,0.5652,0.5244,0.5264,0.5493,0.5559,0.592,0.0,0.0,0.0,0.7694,0.8073,0.8514,0.9041,0.9644,0.9819,0.9735,0.9506,0.9638,0.9815,0.9835,0.9534,0.9457,1.0148,1.0077,0.9936,1.0138,1.0617,1.0839,1.0421,1.1616,1.2126,1.0865,1.1991,1.2532,1.142,1.1319,1.118,1.0822,1.0784,1.0724,1.059,1.058,1.0474,1.0271,1.0462,1.0639,1.0666,1.1806,1.2538,1.2848,1.362,1.401,1.401,1.383,1.358,1.3155,1.3393,1.3034,1.2198,1.2807,1.2785,1.2265,1.2345,1.1916,1.1111,1.0887,1.0812,1.0738,1.0519,1.0438,1.0438,0.0,0.0,0.0,0.0,0.0,0.0,0.0,0.0,0.0,0.0,0.0,1.0166,0.9844,0.9021,0.0,0.0,0.0,0.0,0.6717,0.697,0.0,0.8072,0.8561,0.9058,0.9573,0.9849,1.0017,1.01,1.0062,0.9842,0.9453,0.9688,0.9925,1.013,0.9455,0.9214,0.9292,0.8556,0.7919,0.7366,0.6859,0.6525,0.6207,0.5535,0.5268,0.5286,0.5236,0.5208,0.5203,0.55,0.5873,0.6197,0.6299,0.0,0.0,0.0,0.8351,0.9074,0.9271,0.9735,1.0016,0.9482,0.9775,1.0231,1.0423,1.0655,1.0892,1.1169,1.1099,1.0964,1.0977,1.1371,1.1493,1.0847,1.1839,1.2399,1.1512,1.2316,1.2824,1.2366,1.1752,1.1356,1.1255,1.0964,1.0789,1.0755,1.0775,1.0818,1.0978,1.1192,1.1395,1.1562,1.225,1.2803,1.3214,1.3389,1.3543,1.37,1.383,1.3821,1.3718,1.4675,1.4637,1.3743,1.3834,1.3972,1.4076,1.2997,1.2345,1.1835,1.1105,1.0812,1.0738,1.0443,1.0293,1.0293,0.0,0.0,0.0,0.0,0.0,0.0,0.0,0.0,0.0,0.0,0.0,0.0,0.8643,0.0,0.0,0.0,0.0,0.0,0.5533,0.0,0.0,0.0,0.0,0.7852,0.8705,0.9068,0.9367,0.9563,0.9377,0.9035,0.8472,0.8159,0.8232,0.8641,0.8269,0.8382,0.8778,0.8224,0.7596,0.6932,0.6359,0.6006,0.5748,0.4983,0.478,0.4847,0.4976,0.5086,0.524,0.5429,0.5769,0.6111,0.6139,0.6834,0.0,0.0,0.0,0.9223,0.9286,0.9869,1.0352,0.9997,1.0402,1.0947,1.1168,1.1581,1.1937,1.2059,1.1967,1.1898,1.1924,1.1983,1.1795,1.1107,1.1957,1.2553,1.2071,1.266,1.3113,1.3091,1.233,1.1715,1.1605,1.1255,1.1054,1.1123,1.1134,1.1306,1.1764,1.2001,1.2173,1.2282,1.2833,1.3328,1.3683,1.3593,1.3582,1.3812,1.3941,1.407,1.4156,1.5274,1.5579,1.5254,1.5112,1.5333,1.5666,1.4011,1.3077,1.2492,1.1477,1.0962,1.0738,1.0443,1.0293,1.0218,0.0,0.0,0.0,0.0,0.0,0.0,0.0,0.0,0.0,0.0,0.0,0.0,0.715,0.7236,0.6364,0.3876,0.0,0.0,0.0,0.0,0.0,0.0,0.0,0.0,0.739,0.823,0.8846,0.9236,0.9474,0.8637,0.6825,0.6678,0.6429,0.6128,0.6782,0.7333,0.7745,0.7278,0.6616,0.5876,0.5702,0.5182,0.446,0.4109,0.4125,0.4295,0.4078,0.4873,0.5943,0.5413,0.5617,0.6097,0.6031,0.6574,0.7288,0.0,0.0,0.0,0.9507,1.0065,1.0747,1.1417,1.1759,1.1956,1.2096,1.1758,1.1705,1.2649,1.2442,1.2288,1.2974,1.2251,1.1411,1.1065,1.197,1.2553,1.2071,1.3017,1.3607,1.316,1.3045,1.2661,1.1678,1.1568,1.1627,1.1749,1.1752,1.1962,1.2521,1.3075,1.3107,1.2483,1.3672,1.4246,1.4165,1.463,1.4824,1.4647,1.4181,1.4198,1.4465,1.4937,1.5466,1.6011,1.7054,1.6904,1.5939,1.5525,1.4227,1.2572,1.2144,1.1484,1.0738,1.0588,1.0519,1.0438,0.0,0.0,0.0,0.0,0.0,0.0,0.0,0.0,0.0,0.0,0.0,0.0,0.0,0.558,0.4705,0.3763,0.2973,0.0,0.0,0.0,0.0,0.0,0.0,0.0,0.7206,0.7201,0.7587,0.8427,0.8296,0.7988,0.7455,0.7154,0.71,0.7211,0.6614,0.6902,0.7819,0.7833,0.7146,0.6026,0.5659,0.5265,0.4697,0.344,0.2578,0.2245,0.3291,0.3577,0.3598,0.4558,0.5025,0.5175,0.5023,0.5466,0.6303,0.754,0.8555,0.9275,0.9328,0.9579,1.0034,1.0845,1.1602,1.2239,1.2684,1.3627,1.4272,1.3774,1.3756,1.37,1.3278,1.2838,1.2367,1.1858,1.2734,1.3228,1.2539,1.3469,1.4078,1.3594,1.3276,1.2941,1.2591,1.197,1.1788,1.2217,1.1983,1.2203,1.3108,1.3366,1.3581,1.3722,1.3815,1.3991,1.4145,1.4743,1.4945,1.4688,1.4756,1.4538,1.4225,1.5113,1.5624,1.5873,1.7024,1.7304,1.6724,1.5816,1.5029,1.4178,1.3382,1.2586,1.1706,1.1558,1.1111,1.0663,0.0,0.0,0.0,0.0,0.0,0.0,0.0,0.0,0.7565,0.6651,0.0,0.0,0.0,0.0,0.2505,0.1773,0.0681,-0.0342,-0.1207,-0.1027,0.0,0.0,0.0,0.0,0.5447,0.5215,0.578,0.7292,0.6903,0.6863,0.7088,0.687,0.6891,0.7086,0.6322,0.6611,0.7691,0.7701,0.6921,0.5597,0.4808,0.4199,0.3552,0.1831,0.0787,0.0349,0.135,0.1436,0.1359,0.3239,0.3855,0.385,0.396,0.4691,0.5793,0.7157,0.8169,0.8898,0.9242,0.954,1.0001,1.1092,1.1924,1.2661,1.3372,1.4541,1.528,1.4618,1.4778,1.4794,1.4032,1.3912,1.3627,1.2749,1.3352,1.379,1.3399,1.4016,1.4374,1.4059,1.3817,1.361,1.3471,1.3023,1.2869,1.3134,1.2855,1.3009,1.3781,1.3824,1.4011,1.4512,1.4221,1.4205,1.4336,1.5103,1.5275,1.4936,1.5032,1.4874,1.4437,1.4852,1.5242,1.5652,1.6466,1.6992,1.7166,1.6315,1.5692,1.5133,1.4394,1.3528,1.2666,1.2512,1.2144,1.1694,0.0,0.0,0.0,0.0,0.0,0.0,0.0,0.0,0.7442,0.6548,0.0,0.0,0.0,0.0,0.0,-0.2364,-0.2835,-0.3096,-0.333,-0.3069,0.0,0.0,0.0,0.0,0.1951,0.2189,0.3415,0.5767,0.5308,0.5196,0.5432,0.5582,0.5549,0.5398,0.5732,0.6348,0.7137,0.6701,0.5763,0.4441,0.3056,0.1894,0.0802,-0.0706,-0.1288,-0.1331,-0.1728,-0.1451,-0.0563,0.15,0.2112,0.2139,0.2904,0.4366,0.5852,0.6331,0.7143,0.811,0.0,0.0,0.0,1.2237,1.2802,1.3225,1.4143,1.4289,1.4422,1.5051,1.5349,1.5459,1.5328,1.5392,1.5038,1.3679,1.3806,1.4187,1.4552,1.4554,1.4501,1.4529,1.4681,1.4624,1.4169,1.4725,1.4923,1.4476,1.4425,1.4437,1.4398,1.443,1.4512,1.4708,1.4975,1.5034,1.4817,1.5751,1.5965,1.543,1.5118,1.5031,1.5167,1.4249,1.4435,1.5477,1.5495,1.6147,1.7157,1.6968,1.6263,1.5196,1.5054,1.4322,1.3535,1.3535,1.3535,1.3462,0.0,0.0,0.0,0.0,0.0,0.7071,0.6718,0.5543,0.4232,0.0,0.0,0.0,-0.0635,-0.211,-0.3911,-0.603,-0.5744,-0.5823,-0.6767,-0.6018,-0.5053,-0.3917,-0.3698,-0.2573,-0.0351,-0.0391,0.0597,0.2649,0.2432,0.2893,0.3968,0.4034,0.4328,0.4815,0.496,0.4599,0.3961,0.6193,0.5673,0.3285,0.2374,0.044,-0.198,-0.3206,-0.4241,-0.4849,-0.3815,-0.3102,-0.2444,-0.1199,-0.0472,0.0195,0.1752,0.3521,0.5119,0.5676,0.6407,0.7223,0.808,0.0,0.0,0.0,0.0,0.0,1.288,1.4395,1.5479,1.4645,1.5176,1.5625,1.5114,1.508,1.5114,1.5065,1.5201,1.5105,1.4462,1.4629,1.4816,1.487,1.4638,1.4663,1.5088,1.498,1.4947,1.5162,1.5132,1.501,1.4892,1.4765,1.4754,1.4823,1.4912,1.5112,1.5434,1.616,1.628,1.5867,1.6206,1.5901,1.4982,1.5175,1.5152,1.5106,1.5751,1.6276,1.6563,1.6789,1.6551,1.5991,1.5912,1.5259,1.4322,1.4322,1.3962,1.3462,0.0,0.0,0.0,0.5218,0.4657,0.4159,0.3835,0.2721,0.1317,0.0,0.0,0.0,-0.6795,-0.7208,-0.797,-0.9788,-0.8965,-0.876,-0.9691,-0.8799,-0.7771,-0.6636,-0.66,-0.5651,-0.3597,-0.3679,-0.2747,-0.0683,-0.0579,0.0145,0.148,0.1703,0.2111,0.2684,0.2672,0.1982,0.095,0.2593,0.1904,-0.0279,-0.0518,-0.241,-0.5167,-0.5687,-0.6288,-0.6718,-0.5896,-0.5273,-0.4665,-0.3381,-0.2177,-0.1048,0.0195,0.2047,0.3853,0.4543,0.5359,0.6261,0.7499,0.7821,0.8156,0.9721,0.0,0.0,1.2809,1.4025,1.4958,1.5081,1.5492,1.5814,1.5785,1.5729,1.5832,1.6406,1.6348,1.5987,1.5301,1.5279,1.5344,1.541,1.526,1.5374,1.5852,1.6258,1.6473,1.6431,1.6333,1.5929,1.504,1.4937,1.4834,1.4903,1.4949,1.52,1.5602,1.6365,1.661,1.6365,1.6786,1.6641,1.5928,1.5978,1.585,1.5595,1.6386,1.6581,1.6398,1.6949,1.683,1.6403,1.6342,1.5833,1.5259,1.5259,1.4974,1.4617,0.0,0.0,0.2815,0.1957,0.1238,0.0608,0.0154,-0.0548,-0.1674,0.0,-0.5121,-0.821,-1.346,-1.253,-1.2034,-1.3323,-1.2324,-1.1802,-1.2232,-1.1443,-1.0591,-0.9764,-0.9642,-0.8839,-0.7211,-0.7362,-0.6348,-0.4089,-0.386,-0.3065,-0.1727,-0.1258,-0.0813,-0.0479,-0.063,-0.1198,-0.2176,-0.2874,-0.4192,-0.572,-0.4837,-0.6157,-0.8633,-0.8263,-0.7963,-0.7766,-0.7872,-0.7571,-0.6878,-0.4956,-0.3262,-0.1932,-0.1459,0.0213,0.2229,0.3186,0.4145,0.5261,0.7072,0.7478,0.7818,0.9724,1.008,0.0,1.3074,1.329,1.3502,1.5532,1.5728,1.5751,1.6529,1.6608,1.6741,1.7249,1.7098,1.6852,1.6535,1.6145,1.5928,1.6032,1.6217,1.6401,1.656,1.7906,1.8518,1.7816,1.7689,1.6973,1.5313,1.5108,1.4994,1.496,1.5108,1.5312,1.5551,1.6574,1.7032,1.6942,1.7165,1.7324,1.7401,1.6666,1.6325,1.6327,1.693,1.6939,1.658,1.7271,1.7176,1.6603,1.6403,1.6272,1.6132,1.6132,1.6132,1.6132,0.0,-0.0611,-0.0964,-0.1281,-0.2328,-0.3099,-0.3104,-0.4571,-0.6267,-0.7848,-0.998,-1.2101,-1.4113,-1.4112,-1.4451,-1.5584,-1.508,-1.465,-1.4487,-1.3723,-1.2829,-1.186,-1.1618,-1.0891,-0.963,-1.0331,-0.9542,-0.7237,-0.8046,-0.7349,-0.5203,-0.5004,-0.4387,-0.3456,-0.359,-0.4542,-0.6069,-0.7018,-0.9454,-1.2373,-0.8936,-0.942,-1.2109,-1.1092,-1.0704,-1.0542,-0.9438,-0.8446,-0.7333,-0.5502,-0.4201,-0.314,-0.2338,-0.0901,0.071,0.2133,0.3296,0.4347,0.5297,0.6052,0.6831,0.7956,0.894,0.0,1.1141,1.2041,1.2685,1.2955,1.3797,1.4511,1.45,1.5533,1.6179,1.5599,1.681,1.7553,1.6613,1.6099,1.5992,1.6449,1.646,1.6612,1.7029,1.8074,1.8513,1.8087,1.7784,1.7511,1.7314,1.634,1.5591,1.521,1.5525,1.5759,1.5975,1.6979,1.7555,1.7772,1.8453,1.8309,1.7379,1.7045,1.6477,1.5811,1.6367,1.6567,1.6584,1.7485,1.7382,1.6603,1.6542,1.6333,1.6132,1.6403,1.6403,1.6281,-0.3067,-0.3426,-0.3941,-0.5018,-0.5976,-0.689,-0.7573,-0.8786,-1.0321,-1.2308,-1.4422,-1.6036,-1.6856,-1.6756,-1.699,-1.7966,-1.7233,-1.6647,-1.6445,-1.5483,-1.4513,-1.3695,-1.3231,-1.2596,-1.1763,-1.2345,-1.193,-1.0479,-1.0809,-1.0335,-0.9115,-0.8579,-0.7983,-0.7315,-0.7651,-0.8519,-0.9803,-1.0853,-1.2829,-1.5073,-1.2271,-1.2599,-1.466,-1.3911,-1.3323,-1.2868,-1.1877,-1.0195,-0.8332,-0.7483,-0.6128,-0.4721,-0.3987,-0.2661,-0.1107,0.0603,0.159,0.2487,0.3987,0.4909,0.5723,0.6966,0.7817,0.0,0.0,1.0869,1.1515,1.2171,1.2835,1.3403,1.3749,1.4386,1.4881,1.4777,1.604,1.6678,1.5603,1.652,1.7402,1.7646,1.7674,1.7721,1.793,1.8845,1.941,1.9256,1.9015,1.8689,1.8274,1.7378,1.6891,1.6983,1.6534,1.6633,1.7331,1.7673,1.8007,1.8307,1.8827,1.891,1.8471,1.8267,1.7863,1.7279,1.7754,1.7688,1.7209,1.7912,1.7862,1.7304,1.7157,1.689,1.6551,1.689,1.6751,1.6542,-0.5809,-0.6088,-0.6786,-0.8521,-0.952,-1.0507,-1.1757,-1.2588,-1.3816,-1.6019,-1.7921,-1.9255,-1.9752,-1.9486,-1.9552,-2.0292,-1.933,-1.8565,-1.8266,-1.7119,-1.6175,-1.5504,-1.484,-1.4245,-1.3791,-1.4083,-1.386,-1.312,-1.291,-1.2626,-1.2246,-1.1508,-1.0993,-1.0655,-1.1191,-1.191,-1.2834,-1.388,-1.5018,-1.6036,-1.5126,-1.5449,-1.6495,-1.6029,-1.5473,-1.4718,-1.381,-1.1704,-0.9368,-0.9393,-0.8109,-0.6385,-0.5673,-0.4482,-0.2893,-0.0817,-0.0054,0.0635,0.2805,0.3771,0.4518,0.609,0.6653,0.7313,0.0,0.0,0.0,1.1356,1.1819,1.2205,1.2951,1.3289,1.3541,1.4021,1.5062,1.5505,1.4602,1.6722,1.8369,1.8442,1.8724,1.8905,1.8845,1.9681,2.0362,2.055,2.0422,1.9894,1.8975,1.8358,1.8254,1.8754,1.7795,1.7777,1.875,1.8541,1.8557,1.8819,1.9108,1.9303,1.95,1.9344,1.9056,1.859,1.8988,1.8627,1.774,1.8208,1.8335,1.8212,1.7852,1.7442,1.7047,1.7382,1.7166,1.6821,-0.9098,-0.964,-1.0237,-1.0836,-1.2454,-1.379,-1.3944,-1.4928,-1.6223,-1.7798,-1.9407,-2.0497,-2.0788,-2.1556,-2.217,-2.2451,-2.1908,-2.1038,-1.9904,-1.8965,-1.8222,-1.7605,-1.6642,-1.606,-1.5972,-1.6101,-1.5399,-1.3895,-1.4878,-1.4511,-1.2907,-1.2855,-1.2499,-1.1897,-1.2347,-1.3054,-1.4049,-1.5071,-1.5885,-1.6584,-1.7375,-1.7551,-1.7219,-1.6502,-1.6201,-1.5864,-1.3686,-1.161,-0.9894,-0.9715,-0.8847,-0.768,-0.6765,-0.5644,-0.4232,-0.1542,-0.0667,-0.0284,0.1483,0.2157,0.2878,0.4887,0.5457,0.5966,0.7638,0.0,0.8581,0.8733,0.0,1.0562,1.0897,0.0,0.0,1.2602,1.4048,1.5113,1.4881,1.5953,1.6872,1.7166,1.8453,1.937,1.9394,2.0005,2.0617,2.1226,2.0826,2.0454,2.0201,1.961,1.9213,1.8982,1.907,1.9218,1.9378,1.9547,1.9652,1.9659,1.9798,1.9668,1.9239,1.9032,1.8382,1.739,1.777,1.7715,1.7377,1.8022,1.8527,1.8942,1.8212,1.7725,1.7382,1.7803,1.7735,1.747,-1.0629,-1.0889,-1.1657,-1.3026,-1.3949,-1.4891,-1.5922,-1.7019,-1.7999,-1.8717,-1.9768,-2.0472,-2.065,-2.1179,-2.1647,-2.1967,-2.2284,-2.1966,-2.0742,-2.0221,-1.9442,-1.8298,-1.7277,-1.6688,-1.6562,-1.6543,-1.6233,-1.5581,-1.5799,-1.5429,-1.4494,-1.4517,-1.4094,-1.3403,-1.4201,-1.4751,-1.5107,-1.6335,-1.6781,-1.6723,-1.7575,-1.757,-1.7094,-1.7444,-1.6774,-1.5459,-1.3932,-1.1935,-0.9984,-0.9962,-0.9183,-0.8037,-0.6899,-0.6245,-0.5517,-0.3603,-0.2739,-0.1954,0.0052,0.0828,0.1488,0.3315,0.4105,0.4743,0.5837,0.6862,0.7598,0.7565,0.0,0.0,0.0,0.0,0.0,0.0,1.2283,1.3039,1.2582,1.4248,1.5936,1.7148,1.7872,1.8561,1.9313,2.0302,2.1033,2.1398,2.1757,2.178,2.1229,2.0663,2.0525,2.0946,2.024,1.9845,1.979,1.9608,1.9361,1.9183,1.9359,1.9535,1.9668,1.9475,1.9044,1.8321,1.8205,1.8126,1.8038,1.8152,1.8541,1.9075,1.8741,1.8327,1.793,1.8212,1.7998,1.7657,-1.195,-1.207,-1.2822,-1.4435,-1.5028,-1.5828,-1.7338,-1.8316,-1.8968,-1.9147,-1.9969,-2.0531,-2.0651,-2.1186,-2.1776,-2.2284,-2.3045,-2.308,-2.2109,-2.1512,-2.0742,-1.979,-1.829,-1.7556,-1.7777,-1.7269,-1.6896,-1.6729,-1.6431,-1.6064,-1.5644,-1.5591,-1.5234,-1.4709,-1.5466,-1.5833,-1.5925,-1.6917,-1.7075,-1.6704,-1.7183,-1.7075,-1.6779,-1.7717,-1.683,-1.4945,-1.4226,-1.222,-0.9984,-1.0128,-0.9259,-0.789,-0.6915,-0.6401,-0.591,-0.467,-0.3892,-0.3012,-0.1157,-0.0329,0.0381,0.1866,0.285,0.3638,0.4349,0.5604,0.667,0.6721,0.7936,0.0,0.0,0.0,0.976,1.0141,0.0,1.1248,1.1142,1.2686,1.456,1.6501,1.7312,1.8214,1.9484,2.045,2.1004,2.1133,2.2148,2.2444,2.1822,2.1429,2.1611,2.2402,2.1492,2.0751,2.0374,2.008,1.9625,1.902,1.9133,1.9497,1.9926,1.9862,1.9488,1.8815,1.8515,1.8356,1.8272,1.8081,1.8428,1.9075,1.9075,1.8875,1.8482,1.8398,1.8017,1.7681,-1.3467,-1.3779,-1.4143,-1.4606,-1.5876,-1.7073,-1.7868,-1.8511,-1.8945,-1.9101,-2.0265,-2.11,-2.1245,-2.2621,-2.3826,-2.4618,-2.5035,-2.4963,-2.4447,-2.2993,-2.235,-2.2848,-2.0145,-1.9239,-2.0447,-1.8816,-1.7611,-1.6892,-1.6918,-1.6552,-1.5788,-1.578,-1.5703,-1.5549,-1.5578,-1.5949,-1.649,-1.636,-1.6439,-1.6605,-1.6466,-1.6428,-1.6486,-1.6904,-1.6175,-1.4831,-1.4433,-1.2368,-0.9864,-1.0238,-0.9134,-0.745,-0.7004,-0.6124,-0.5001,-0.3625,-0.3121,-0.2826,-0.205,-0.1273,-0.0392,0.0781,0.1732,0.2573,0.3519,0.4618,0.558,0.5977,0.693,0.7975,0.8591,0.8827,0.9156,0.9893,0.9987,0.0,0.0,1.1715,1.2296,1.4425,1.6798,1.8854,2.0307,2.0217,2.018,2.0486,2.1486,2.1953,2.1784,2.2025,2.2275,2.2583,2.2725,2.2363,2.139,2.1527,2.0997,1.9773,1.9773,1.9786,1.9798,1.9926,1.9226,1.7972,1.805,1.7895,1.7533,1.7554,1.814,1.9075,1.9075,1.9075,1.8983,1.8218,1.7806,1.7513,-1.4129,-1.4501,-1.4903,-1.5332,-1.6008,-1.6837,-1.7868,-1.864,-1.9278,-1.9753,-2.0662,-2.1403,-2.1923,-2.2552,-2.3336,-2.4374,-2.486,-2.5026,-2.4806,-2.3775,-2.3142,-2.3071,-2.0954,-2.0,-2.0582,-1.8836,-1.7679,-1.7164,-1.6609,-1.5961,-1.522,-1.578,-1.5659,-1.4949,-1.5294,-1.5688,-1.6124,-1.645,-1.6598,-1.6587,-1.6699,-1.6414,-1.5901,-1.581,-1.507,-1.4043,-1.3255,-1.1774,-1.0167,-0.9941,-0.9047,-0.78,-0.6618,-0.5893,-0.5258,-0.4086,-0.3722,-0.3357,-0.2047,-0.1513,-0.0968,0.0277,0.123,0.2071,0.2577,0.3463,0.4438,0.5201,0.6032,0.6769,0.7296,0.7813,0.8403,0.9148,0.9127,0.9414,0.0,1.1112,1.1986,1.3474,1.4669,1.6067,1.7958,1.9146,1.9907,2.0091,2.1498,2.2169,2.185,2.2246,2.2559,2.274,2.263,2.2006,2.0879,2.0846,2.042,1.9607,1.957,1.9711,2.008,1.9565,1.8857,1.8027,1.7545,1.7252,1.7022,1.6961,1.7553,1.85,1.85,1.875,1.8983,1.8228,1.7896,1.7703,-1.4871,-1.5416,-1.5939,-1.6056,-1.6522,-1.7175,-1.8112,-1.8641,-1.9214,-1.9928,-2.0571,-2.1182,-2.1786,-2.2404,-2.3173,-2.4124,-2.4942,-2.527,-2.5006,-2.4429,-2.3771,-2.3221,-2.1561,-2.0759,-2.1018,-1.9308,-1.814,-1.7571,-1.6835,-1.6001,-1.5097,-1.557,-1.5379,-1.4581,-1.4879,-1.529,-1.5723,-1.6199,-1.6319,-1.6274,-1.6284,-1.5988,-1.5502,-1.5103,-1.4449,-1.3743,-1.3057,-1.18,-1.03,-0.9769,-0.8817,-0.7639,-0.6553,-0.5632,-0.4907,-0.4312,-0.4036,-0.3581,-0.243,-0.1912,-0.14,-0.0321,0.0769,0.1687,0.2187,0.3074,0.403,0.4802,0.5541,0.618,0.6635,0.7209,0.7895,0.8802,0.8908,0.9106,0.0,1.0447,1.1292,1.226,1.3331,1.4639,1.6456,1.797,1.9105,1.9905,2.1131,2.1939,2.2275,2.2469,2.2743,2.3123,2.2748,2.2066,2.1107,2.092,2.0494,1.9879,1.9829,1.9973,2.0182,1.9448,1.875,1.8038,1.7335,1.7043,1.7103,1.6972,1.7563,1.852,1.8183,1.8487,1.9003,1.8038,1.7403,1.697,-1.5694,-1.6571,-1.7207,-1.6785,-1.7388,-1.81,-1.8594,-1.8631,-1.8877,-1.9644,-2.0117,-2.0607,-2.1061,-2.2395,-2.348,-2.4019,-2.5282,-2.5814,-2.5294,-2.4881,-2.4291,-2.3487,-2.2098,-2.1468,-2.1826,-2.0227,-1.8985,-1.81,-1.754,-1.6622,-1.5463,-1.5211,-1.4869,-1.4466,-1.4441,-1.4796,-1.5435,-1.5679,-1.5722,-1.5605,-1.5332,-1.5254,-1.5129,-1.4772,-1.4336,-1.3861,-1.3769,-1.2279,-1.03,-0.9769,-0.8435,-0.7036,-0.6834,-0.5473,-0.4004,-0.4363,-0.4042,-0.3389,-0.3034,-0.2371,-0.167,-0.1011,0.0213,0.1473,0.2287,0.3333,0.4231,0.4738,0.5333,0.5981,0.6587,0.6972,0.7586,0.8817,0.9266,0.94,0.9452,0.9855,1.036,1.0897,1.288,1.474,1.602,1.6787,1.797,1.9888,2.0425,2.1314,2.287,2.2674,2.2857,2.3691,2.3027,2.2434,2.1983,2.1718,2.1272,2.066,2.061,2.0422,2.0182,1.9579,1.8845,1.8038,1.7279,1.7201,1.7637,1.7513,1.8089,1.8967,1.8017,1.8172,1.8785,1.7652,1.6455,1.5409,-1.5769,-1.7035,-1.8154,-1.8629,-1.8512,-1.8423,-1.8575,-1.9492,-2.014,-2.0063,-2.1255,-2.2207,-2.2455,-2.3347,-2.4248,-2.4991,-2.5398,-2.5813,-2.6117,-2.4875,-2.4269,-2.4572,-2.2698,-2.1776,-2.1946,-2.0355,-1.903,-1.7938,-1.6919,-1.5869,-1.492,-1.484,-1.4545,-1.4158,-1.4596,-1.5182,-1.5817,-1.5471,-1.5212,-1.5095,-1.5715,-1.5624,-1.5109,-1.5091,-1.4523,-1.3676,-1.3038,-1.1783,-1.03,-0.9673,-0.8712,-0.7658,-0.6807,-0.5733,-0.4752,-0.4389,-0.3877,-0.3227,-0.2208,-0.1877,-0.1572,-0.0472,0.0476,0.1296,0.17,0.2303,0.2931,0.3712,0.4074,0.4543,0.5397,0.6379,0.7299,0.8078,0.9065,0.9787,1.0005,1.0755,1.1331,1.1538,1.3532,1.4945,1.5074,1.6287,1.7635,1.901,2.0411,2.1548,2.2384,2.2431,2.2511,2.2738,2.2218,2.1888,2.1841,2.1506,2.1264,2.1166,2.0409,1.9952,1.985,1.8447,1.7633,1.7368,1.6662,1.6499,1.6789,1.684,1.7367,1.8167,1.7358,1.678,1.639,1.6817,1.6097,1.5065,-1.6342,-1.7249,-1.8403,-1.961,-1.951,-1.9366,-1.9522,-1.9857,-2.0139,-2.0326,-2.1384,-2.2104,-2.1945,-2.3268,-2.4227,-2.4433,-2.4982,-2.5266,-2.516,-2.4378,-2.388,-2.3721,-2.2731,-2.214,-2.2075,-2.0762,-1.9561,-1.8491,-1.7173,-1.5901,-1.4752,-1.4496,-1.4007,-1.3349,-1.3831,-1.4314,-1.473,-1.4904,-1.5026,-1.5195,-1.5448,-1.5318,0.0,-1.439,-1.3726,-1.2928,-1.1834,-1.1019,-1.0241,-0.9361,-0.8501,-0.7694,-0.6789,-0.5714,-0.4736,-0.4233,-0.3738,-0.3065,-0.224,-0.1957,-0.1631,-0.0653,0.0217,0.0981,0.1644,0.2266,0.2871,0.3394,0.3731,0.4148,0.4893,0.5775,0.6836,0.7949,0.9128,0.9891,0.9823,1.0777,1.1469,1.1507,1.2967,1.4092,1.4264,1.5974,1.7512,1.8525,1.9933,2.1136,2.2043,2.226,2.2363,2.2296,2.187,2.1664,2.1712,2.1264,2.0824,2.0461,2.0029,1.9455,1.8797,1.7804,1.7313,1.7146,1.6332,1.6128,1.64,1.6328,1.6699,1.7331,1.6996,1.607,1.4993,1.5777,1.5514,1.475,-1.7316,-1.7553,-1.8336,-1.9956,-2.0244,-2.0428,-2.0733,-2.0233,-1.9994,-2.053,-2.1237,-2.1475,-2.0962,-2.2821,-2.3852,-2.3244,-2.423,-2.4493,-2.3454,-2.3676,-2.3302,-2.2151,-2.2298,-2.2282,-2.1972,-2.1037,-2.0084,-1.9119,-1.7677,-1.6211,-1.479,-1.4107,-1.3346,-1.251,-1.2884,-1.3049,-1.3097,-1.4065,-1.4684,-1.5013,-1.45,-1.4311,-1.4284,-1.2978,-1.2343,-1.1859,-1.0376,-0.9979,-1.0001,-0.8944,-0.8104,-0.7359,-0.6732,-0.5626,-0.4457,-0.4067,-0.3514,-0.291,-0.2521,-0.2128,-0.168,-0.0897,-0.0168,0.0677,0.1741,0.2632,0.3192,0.3363,0.3743,0.4235,0.4698,0.5404,0.6404,0.8215,0.9302,0.9806,0.9451,1.0512,1.1249,1.1307,1.2289,0.0,1.364,1.569,1.728,1.8097,1.9262,2.0479,2.1699,2.2171,2.2333,2.2066,2.1816,2.1621,2.1458,2.0957,2.0237,1.9364,1.9433,1.879,1.752,1.7431,1.7257,1.6978,1.6114,1.5939,1.6224,1.588,1.5987,1.6428,1.6655,1.5745,1.4261,1.4824,1.4727,1.4384,-1.8711,-1.8645,-1.8744,-1.9653,-2.0117,-2.0427,-2.0555,-2.1559,-2.207,-2.1277,-2.2379,-2.3031,-2.247,-2.342,-2.3892,-2.3305,-2.3997,-2.4182,-2.3515,-2.3072,-2.2724,-2.2517,-2.1916,-2.1366,-2.0871,-2.0419,-1.9548,-1.8131,-1.6863,-1.5741,-1.4658,-1.3441,-1.2753,-1.2598,-1.3058,-1.309,-1.2867,-1.3367,-1.2925,-1.1833,-1.1906,-1.1935,-1.1891,-1.1199,-1.0864,-1.0601,-0.9122,-0.8701,-0.8806,-0.8449,-0.792,-0.7319,-0.6582,-0.5669,-0.4721,-0.4012,-0.3241,-0.2521,-0.202,-0.1624,-0.1007,-0.0056,0.0224,0.056,0.1748,0.1967,0.2076,0.2721,0.3189,0.3616,0.4209,0.5588,0.7079,0.8457,0.9017,0.9587,1.0516,1.1203,1.1816,1.235,1.3844,1.4504,1.3688,1.4857,1.6165,1.7391,1.8746,2.0006,2.1176,2.2035,2.2103,2.1256,2.1732,2.159,2.0772,2.0258,1.9876,1.9623,1.8419,1.7632,1.7236,1.662,1.6332,1.6275,1.5449,1.5317,1.5671,1.525,1.5195,1.5471,1.5824,1.5095,1.3945,1.416,1.3996,1.3785,-1.8175,-1.8203,-1.8416,-1.9551,-2.0193,-2.0665,-2.09,-2.1774,-2.2065,-2.1124,-2.2176,-2.2592,-2.1457,-2.2544,-2.2981,-2.2109,-2.289,-2.3081,-2.239,-2.214,-2.2125,-2.2111,-2.1198,-2.0658,-2.0618,-1.9803,-1.8859,-1.7678,-1.6233,-1.5062,-1.4091,-1.2824,-1.2086,-1.1848,-1.1752,-1.2,-1.2484,-1.2153,-1.1833,-1.1451,-1.1427,-1.1436,-1.1402,-1.064,-1.0206,-0.9833,-0.8635,-0.8145,-0.7984,-0.7925,-0.7415,-0.6744,-0.591,-0.5024,-0.4091,-0.3112,-0.253,-0.2113,-0.1794,-0.1553,-0.1202,-0.045,-0.0224,0.0112,0.1342,0.1846,0.2181,0.2794,0.3244,0.3697,0.4273,0.5366,0.6653,0.7845,0.868,0.9654,1.0994,1.1442,1.1949,1.2841,1.3363,1.3465,1.299,1.38,1.4994,1.6534,1.8291,1.9516,2.0048,2.1099,2.1116,1.9971,2.0571,2.0441,1.9411,1.8922,1.839,1.7938,1.7122,1.6502,1.6036,1.5638,1.5507,1.5449,1.461,1.43,1.4336,1.4288,1.4364,1.4633,1.4991,1.4633,1.3928,1.3928,1.3783,1.3543,-1.7264,-1.7452,-1.7894,-1.9081,-1.9817,-2.0357,-2.0705,-2.126,-2.1379,-2.0849,-2.1621,-2.1668,-2.0299,-2.1382,-2.1846,-2.0894,-2.1715,-2.1837,-2.0911,-2.1098,-2.1204,-2.1009,-2.0246,-1.9814,-1.9857,-1.8967,-1.8004,-1.6988,-1.5514,-1.4365,-1.3529,-1.2267,-1.1404,-1.0916,-1.0519,-1.0746,-1.1432,-1.0672,-1.0555,-1.0893,-1.0756,-1.0725,-1.0632,-0.9952,-0.9412,-0.8931,-0.8098,-0.7517,-0.7145,-0.6954,-0.6632,-0.6103,-0.5057,-0.418,-0.3308,-0.2216,-0.1848,-0.1779,-0.1619,-0.149,-0.1241,-0.0686,-0.0453,-0.0,0.1288,0.2014,0.2517,0.3019,0.3469,0.3969,0.437,0.5162,0.613,0.7149,0.8244,0.9508,1.0902,1.1182,1.1717,1.2893,1.2706,1.2485,1.2515,1.324,1.4335,1.5822,1.7578,1.8665,1.88,1.9983,2.0036,1.874,1.9376,1.9182,1.8082,1.7482,1.6791,1.6009,1.5625,1.5209,1.4639,1.4587,1.461,1.461,1.3837,1.3302,1.3066,1.3384,1.3706,1.4129,1.4353,1.4281,1.4065,1.3863,1.3645,1.3543,-1.6938,-1.7349,-1.7605,-1.7481,-1.8127,-1.8771,-1.9083,-1.9863,-2.0597,-2.1081,-2.1107,-2.0917,-2.0661,-2.0782,-2.0863,-2.089,-2.1008,-2.0679,-1.9721,-2.0026,-1.976,-1.8743,-1.8871,-1.8479,-1.7434,-1.747,-1.681,-1.543,-1.445,-1.3783,-1.3408,-1.1833,-1.0848,-1.0353,-1.0299,-0.9843,-0.9,-0.892,-0.8501,-0.7932,-0.7892,-0.7902,-0.7902,-0.7816,-0.7746,-0.7611,-0.6863,-0.633,-0.5932,-0.5311,-0.5403,-0.5598,-0.4333,-0.3444,-0.2761,-0.2093,-0.1665,-0.1419,-0.1417,-0.1046,-0.0427,0.0295,0.0468,0.087,0.2255,0.2404,0.24,0.2961,0.3577,0.4011,0.4207,0.5223,0.6215,0.6673,0.7404,0.8544,1.0272,1.0487,1.0994,1.2347,1.2969,1.3226,1.3158,1.3917,1.469,1.5341,1.6179,1.7057,1.79,1.91,1.9277,1.8112,1.8935,1.868,1.734,1.6227,1.5471,1.5034,1.3965,1.3408,1.3374,1.358,1.3708,1.3768,1.3183,1.2782,1.2617,1.2961,1.3492,1.4129,1.4353,1.4281,1.4065,1.3863,1.3645,1.3543,-1.5854,-1.6355,-1.685,-1.6985,-1.758,-1.8093,-1.8446,-1.8661,-1.8849,-1.9134,-2.0053,-2.0456,-1.9877,-1.9764,-1.9475,-1.8903,-1.9208,-1.9133,-1.8332,-1.8818,-1.8986,-1.8754,-1.8111,-1.759,-1.7101,-1.6466,-1.5698,-1.487,-1.3847,-1.3216,-1.2932,-1.1115,-1.0095,-0.9796,-0.9293,-0.8999,-0.8915,-0.8393,-0.8038,-0.7829,-0.7829,-0.7758,-0.765,-0.7315,-0.6972,-0.6601,-0.587,-0.5404,-0.4942,-0.4146,-0.4048,-0.414,-0.3353,-0.2678,-0.1945,-0.1169,-0.1105,-0.1297,-0.1018,-0.0569,-0.0063,0.0121,0.0773,0.1578,0.2485,0.2893,0.313,0.3357,0.3633,0.3925,0.4038,0.4794,0.5651,0.6577,0.7536,0.8787,1.0679,1.1214,1.1736,1.2727,1.2756,1.2586,1.2457,1.3256,1.3842,1.3892,1.5936,1.7252,1.7372,1.8596,1.8642,1.7292,1.7187,1.6674,1.552,1.4403,1.3825,1.374,1.305,1.2905,1.3183,1.2931,1.2634,1.2413,1.2374,1.242,1.2541,1.3157,1.3645,1.4129,1.4201,1.4209,1.4057,1.371,1.3572,1.3565,-1.4698,-1.5589,-1.6437,-1.6674,-1.7047,-1.7436,-1.7919,-1.7726,-1.756,-1.7671,-1.8874,-1.9479,-1.8685,-1.8539,-1.8217,-1.7564,-1.8055,-1.8081,-1.7326,-1.7769,-1.7955,-1.7965,-1.7055,-1.6489,-1.628,-1.5454,-1.4922,-1.4493,-1.3202,-1.2593,-1.2505,-1.0634,-0.9568,-0.9303,-0.8669,-0.8573,-0.8785,-0.8146,-0.7856,-0.7726,-0.7575,-0.728,-0.6957,-0.6406,-0.5986,-0.5542,-0.4789,-0.4314,-0.3905,-0.3021,-0.2542,-0.2259,-0.2426,-0.1946,-0.121,-0.0806,-0.0739,-0.0736,-0.0525,-0.0065,0.0447,0.075,0.1447,0.2225,0.2932,0.338,0.3638,0.3635,0.3744,0.3907,0.4187,0.4695,0.5463,0.6472,0.7437,0.8624,1.0411,1.1109,1.1774,1.2632,1.2428,1.226,1.2278,1.2827,1.3262,1.3332,1.5601,1.6811,1.6532,1.7567,1.7493,1.607,1.5525,1.4867,1.3857,1.2874,1.2449,1.2542,1.2106,1.2161,1.2642,1.2274,1.1971,1.1714,1.1933,1.2277,1.2687,1.3346,1.3775,1.3992,1.4065,1.4057,1.3992,1.3637,1.3492,1.3587,-1.3519,-1.5243,-1.6586,-1.638,-1.6287,-1.6538,-1.7324,-1.7234,-1.7213,-1.7501,-1.7633,-1.7584,-1.7163,-1.7149,-1.7201,-1.7482,-1.7849,-1.7738,-1.6865,-1.6997,-1.6592,-1.5504,-1.5286,-1.4911,-1.4338,-1.4452,-1.4418,-1.413,-1.251,-1.1887,-1.2162,-1.0444,-0.9379,-0.8917,-0.8882,-0.8571,-0.8094,-0.8093,-0.7625,-0.6877,-0.6429,-0.5776,-0.4988,-0.4557,-0.4413,-0.4342,-0.3555,-0.3121,-0.2685,-0.1965,-0.0947,-0.0144,-0.1505,-0.1277,-0.0672,-0.1345,-0.0605,0.0403,0.0067,0.0526,0.1415,0.2629,0.2761,0.2815,0.3757,0.3781,0.3638,0.3796,0.391,0.4135,0.4632,0.5212,0.585,0.6327,0.6872,0.7613,0.8871,0.969,1.0557,1.143,1.2006,1.2628,1.3157,1.2906,1.3119,1.3988,1.4846,1.5237,1.5029,1.5771,1.5665,1.4371,1.4202,1.3655,1.2622,1.1875,1.15,1.1412,1.1022,1.0989,1.1303,1.1498,1.1728,1.2028,1.1971,1.2401,1.3009,1.3437,1.3712,1.379,1.3992,1.3992,1.3797,1.3572,1.3492,1.3587,-1.2716,-1.3501,-1.412,-1.408,-1.4086,-1.4245,-1.4706,-1.4774,-1.4805,-1.5127,-1.5213,-1.5229,-1.5095,-1.5769,-1.6318,-1.6505,-1.5965,-1.5821,-1.6274,-1.5729,-1.5479,-1.5602,-1.5146,-1.4762,-1.4467,-1.3725,-1.3212,-1.2718,-1.1507,-1.0547,-0.9958,-0.9498,-0.8939,-0.8351,-0.8332,-0.8005,-0.7455,-0.7135,-0.659,-0.6013,-0.5557,-0.5124,-0.4751,-0.4239,-0.3829,-0.3338,-0.2688,-0.1818,-0.1091,-0.1458,-0.0948,-0.0218,-0.0929,-0.0351,0.0553,0.0138,0.0273,0.0605,0.1141,0.1665,0.2114,0.2775,0.3353,0.3873,0.4062,0.3955,0.3799,0.391,0.4242,0.4522,0.4688,0.553,0.625,0.6565,0.7555,0.848,0.9144,0.9807,1.0394,1.0795,1.0887,1.1069,1.1499,1.1444,1.1797,1.3016,1.3613,1.4052,1.4239,1.5226,1.5072,1.3584,1.3328,1.2848,1.218,1.1658,1.1315,1.1214,1.1073,1.1122,1.1303,1.1498,1.1736,1.205,1.2402,1.275,1.3023,1.3671,1.3909,1.3797,1.3863,1.4144,1.4467,1.3726,1.3851,1.432,-1.2253,-1.2805,-1.3232,-1.3232,-1.3144,-1.3226,-1.3459,-1.3536,-1.3614,-1.3831,-1.3985,-1.399,-1.3733,-1.4314,-1.4828,-1.5095,-1.4731,-1.4695,-1.5253,-1.4776,-1.4719,-1.5162,-1.4362,-1.377,-1.3695,-1.2775,-1.2142,-1.1889,-1.0806,-0.9739,-0.8798,-0.8433,-0.8162,-0.7833,-0.7375,-0.6919,-0.6531,-0.615,-0.5532,-0.4836,-0.4445,-0.402,-0.3587,-0.3135,-0.2485,-0.177,-0.1492,-0.0893,-0.0222,-0.0598,-0.0375,0.0075,-0.0075,0.0957,0.2011,0.1126,0.1175,0.1564,0.2151,0.2593,0.3039,0.3473,0.398,0.4287,0.4183,0.4045,0.4026,0.42,0.4567,0.4904,0.5247,0.5956,0.6701,0.7116,0.8054,0.869,0.8901,0.9606,1.0016,0.9909,0.9983,1.0232,1.0631,1.0574,1.0895,1.1781,1.2093,1.2359,1.2527,1.4191,1.4447,1.2998,1.2757,1.2358,1.1765,1.1376,1.1185,1.1185,1.0996,1.08,1.0667,1.1164,1.1386,1.1526,1.2248,1.2629,1.286,1.3418,1.366,1.3717,1.379,1.4064,1.4289,1.3711,1.3992,1.4689,-1.1823,-1.2679,-1.3396,-1.3396,-1.3319,-1.321,-1.3286,-1.3286,-1.3286,-1.3286,-1.3596,-1.3596,-1.3058,-1.2784,-1.2839,-1.3157,-1.3915,-1.4261,-1.3902,-1.4024,-1.4057,-1.4,-1.2833,-1.2177,-1.2177,-1.1453,-1.1182,-1.1325,-1.0151,-0.9194,-0.847,-0.7343,-0.695,-0.7267,-0.6073,-0.5532,-0.5437,-0.5063,-0.437,-0.3595,-0.3125,-0.2503,-0.1803,-0.141,-0.0694,0.0151,-0.0155,-0.0154,-0.0,0.0466,0.0705,0.0783,0.1018,0.239,0.3527,0.164,0.2033,0.3132,0.3046,0.3425,0.3957,0.4665,0.4507,0.4163,0.4092,0.4121,0.4323,0.464,0.4898,0.5338,0.6203,0.6608,0.708,0.7966,0.8274,0.844,0.8399,0.9048,0.9329,0.8842,0.9442,0.9963,1.034,1.0239,1.0302,1.06,1.0515,1.038,1.0218,1.2705,1.3595,1.2366,1.227,1.1955,1.1185,1.1122,1.1108,1.1206,1.0721,1.0149,0.9554,1.049,1.0859,1.0677,1.1672,1.2254,1.2523,1.2808,1.3098,1.3448,1.3652,1.3747,1.3631,1.3609,1.4111,1.4826,-1.0589,-1.1061,-1.1347,-1.1508,-1.1535,-1.1573,-1.1732,-1.1732,-1.1732,-1.1732,-1.1811,-1.1818,-1.1701,-1.107,-1.069,-1.073,-1.1877,-1.2707,-1.2845,-1.2197,-1.1689,-1.1353,-1.1306,-1.1083,-1.061,-1.0296,-0.9549,-0.8462,-0.7521,-0.6953,-0.6765,-0.5893,-0.5499,-0.5579,-0.53,-0.4761,-0.4126,-0.3744,-0.3127,-0.2508,-0.2118,-0.1569,-0.0862,-0.0691,-0.0076,0.0604,0.067,0.1046,0.1512,0.1291,0.1695,0.2347,0.25,0.3113,0.3625,0.2767,0.3171,0.3975,0.4298,0.4271,0.4254,0.4686,0.4579,0.4361,0.447,0.4499,0.461,0.4819,0.5536,0.6121,0.6194,0.7071,0.7789,0.7853,0.8429,0.8819,0.8636,0.8672,0.8658,0.8485,0.8426,0.8489,0.8833,0.8888,0.9131,0.9844,0.9803,0.9935,1.0207,1.0888,1.1091,1.07,1.091,1.0741,1.027,1.0331,1.0288,1.0143,1.0159,1.0013,0.976,1.029,1.0617,1.0867,1.1426,1.1778,1.1945,1.2665,1.2837,1.2832,1.3359,1.4237,1.5185,1.4546,1.52,1.6366,-0.9551,-0.9817,-1.0069,-1.0617,-1.0774,-1.0774,-1.0617,-1.0924,-1.0924,-1.0142,-1.0382,-1.0489,-1.0126,-0.9648,-0.9366,-0.9322,-1.0196,-1.0836,-1.1035,-1.0692,-1.046,-1.0209,-0.9996,-0.9766,-0.9458,-0.8608,-0.7553,-0.6388,-0.5687,-0.5452,-0.5607,-0.4593,-0.4201,-0.4353,-0.3828,-0.3366,-0.2974,-0.2584,-0.2037,-0.1412,-0.1257,-0.0707,-0.0078,-0.0,0.0606,0.1412,0.1333,0.1692,0.2124,0.232,0.2511,0.2775,0.3585,0.4144,0.4445,0.4236,0.4402,0.4679,0.492,0.4834,0.4695,0.4776,0.4841,0.488,0.4859,0.4951,0.514,0.5577,0.6152,0.6746,0.6936,0.779,0.8359,0.8349,0.8655,0.8871,0.8713,0.847,0.8256,0.8256,0.8163,0.8146,0.8247,0.8407,0.8594,0.8799,0.9034,0.9229,0.9234,0.9501,0.981,1.0075,1.0236,1.0189,0.9861,0.994,0.9801,0.951,0.9587,0.9496,0.9179,0.9835,1.0201,1.0234,1.0863,1.1214,1.1328,1.2031,1.246,1.2705,1.3614,1.4523,1.5216,1.5185,1.5899,1.6926,-0.8686,-0.8812,-0.9074,-0.9981,-1.0282,-1.0212,-0.9765,-1.0288,-1.0282,-0.8851,-0.9311,-0.9463,-0.878,-0.8627,-0.8551,-0.8551,-0.8685,-0.8898,-0.9049,-0.9346,-0.9492,-0.9341,-0.867,-0.8219,-0.8143,-0.6605,-0.5529,-0.4836,-0.4373,-0.4295,-0.4603,-0.3443,-0.3051,-0.3355,-0.2196,-0.1807,-0.1886,-0.1419,-0.0945,-0.0471,-0.0396,0.0079,0.079,0.0868,0.1537,0.2372,0.218,0.221,0.2579,0.3577,0.3404,0.312,0.4511,0.5165,0.5473,0.5764,0.5533,0.5327,0.537,0.5265,0.513,0.4931,0.516,0.5391,0.5192,0.536,0.5747,0.6387,0.6681,0.7126,0.7948,0.8374,0.8726,0.8954,0.8904,0.8866,0.8802,0.8434,0.8254,0.8227,0.8421,0.8403,0.8255,0.8655,0.8661,0.8083,0.8552,0.8737,0.8314,0.8769,0.9306,0.9834,0.991,0.9881,0.9688,0.9676,0.9484,0.9032,0.9102,0.8928,0.8505,0.9428,0.967,0.9384,1.0257,1.069,1.0836,1.1462,1.2103,1.2846,1.414,1.478,1.5054,1.5734,1.646,1.7088,-0.7577,-0.7714,-0.7923,-0.8385,-0.8461,-0.8613,-0.8851,-0.9003,-0.9003,-0.8699,-0.8775,-0.8856,-0.8703,-0.8093,-0.771,-0.771,-0.7099,-0.7022,-0.7706,-0.7859,-0.7553,-0.6865,-0.6395,-0.5928,-0.5616,-0.4683,-0.4139,-0.3986,-0.321,-0.2821,-0.2899,-0.2198,-0.1885,-0.1884,-0.1099,-0.0785,-0.0785,0.024,0.0479,0.0236,0.0735,0.1149,0.1535,0.1936,0.257,0.3418,0.3749,0.3884,0.3923,0.4855,0.5047,0.498,0.5783,0.6103,0.623,0.6693,0.6511,0.6106,0.5935,0.5708,0.5483,0.5333,0.5425,0.5543,0.5519,0.5913,0.6244,0.6375,0.6912,0.7451,0.7792,0.8351,0.8696,0.8774,0.9124,0.9344,0.8993,0.8903,0.8845,0.8839,0.8889,0.8927,0.8851,0.955,0.972,0.9115,0.9458,0.9566,0.911,0.9372,0.9377,0.918,0.9301,0.9326,0.916,0.9124,0.898,0.8737,0.911,0.9169,0.894,0.9409,0.9619,0.9606,0.9986,1.0331,1.0722,1.1368,1.2413,1.3507,1.4318,1.537,1.6526,1.6661,1.7225,1.7836,-0.6853,-0.7157,-0.7472,-0.8183,-0.8025,-0.7859,-0.8016,-0.8399,-0.8399,-0.7557,-0.7783,-0.7855,-0.7484,-0.7103,-0.6637,-0.6167,-0.5783,-0.5547,-0.5538,-0.5931,-0.6012,-0.5631,-0.5002,-0.4375,-0.3832,-0.3441,-0.313,-0.2744,-0.2354,-0.1962,-0.1492,-0.1034,-0.0631,-0.0308,0.024,0.0402,0.0236,0.0895,0.1231,0.1385,0.1663,0.225,0.2974,0.322,0.3687,0.4359,0.4523,0.4614,0.4675,0.5304,0.5475,0.5613,0.6762,0.6958,0.6866,0.7664,0.727,0.6515,0.5998,0.5752,0.5621,0.5666,0.569,0.5818,0.6145,0.6412,0.6643,0.6944,0.7328,0.7798,0.8231,0.8686,0.9029,0.9128,0.9278,0.9325,0.9214,0.9072,0.9115,0.9179,0.9377,0.9458,0.9458,0.9785,0.99,0.9511,0.9711,0.9743,0.9506,0.9772,0.9841,0.9685,0.9195,0.8941,0.8915,0.8983,0.9038,0.902,0.9184,0.9473,0.9687,0.9756,1.004,1.0494,1.025,1.0467,1.1042,1.194,1.2832,1.3743,1.5217,1.5912,1.6126,1.7133,1.7359,1.7357,-0.5851,-0.6076,-0.6391,-0.7111,-0.6868,-0.6549,-0.6626,-0.7161,-0.7084,-0.5864,-0.6237,-0.6388,-0.5786,-0.5712,-0.5473,-0.4768,-0.4691,-0.4457,-0.383,-0.4222,-0.4535,-0.4691,-0.3988,-0.3207,-0.2507,-0.2585,-0.2353,-0.1887,-0.1659,-0.1187,-0.0475,-0.0081,0.04,0.0924,0.1473,0.156,0.1425,0.1824,0.2273,0.2853,0.2966,0.3564,0.4398,0.442,0.4801,0.5205,0.5379,0.5341,0.5325,0.6098,0.6228,0.6173,0.766,0.7832,0.762,0.8471,0.8193,0.7375,0.6486,0.6168,0.608,0.6513,0.6634,0.6671,0.6933,0.706,0.7188,0.7536,0.7669,0.7996,0.8623,0.8965,0.9283,0.94,0.9285,0.9274,0.9285,0.9184,0.9219,0.9327,0.9695,0.9922,0.9922,0.9992,0.9991,0.9799,0.9963,0.9985,0.9794,1.0112,1.0196,1.014,0.9443,0.9081,0.9216,0.928,0.9425,0.9632,0.9701,0.9999,1.0558,1.0396,1.065,1.1241,1.0722,1.0977,1.1815,1.2729,1.3559,1.4519,1.623,1.6476,1.6004,1.7429,1.7524,1.7077,-0.4224,-0.3832,-0.3444,-0.3759,-0.3759,-0.3756,-0.4064,-0.4139,-0.4139,-0.3986,-0.4064,-0.4064,-0.3986,-0.3988,-0.3988,-0.3908,-0.3908,-0.383,-0.383,-0.3132,-0.3056,-0.383,-0.3207,-0.2507,-0.1728,-0.1886,-0.1964,-0.1887,-0.0882,-0.0324,-0.0243,0.0662,0.1155,0.1372,0.1906,0.2398,0.2915,0.3904,0.4444,0.4624,0.5254,0.5365,0.5201,0.5476,0.5598,0.5824,0.6916,0.6726,0.6273,0.8331,0.8291,0.754,0.8618,0.8761,0.8675,0.8995,0.9276,0.9233,0.8002,0.7479,0.75,0.8446,0.8695,0.8603,0.8027,0.8161,0.8234,0.787,0.7804,0.7996,0.8623,0.8885,0.9027,0.9021,0.9302,0.9504,0.9304,0.9286,0.9393,0.957,0.9771,0.9922,0.9922,1.0218,1.0432,1.0415,1.0432,1.0432,1.0415,1.0432,1.0336,0.9902,1.0019,1.0115,1.0115,1.0346,1.0511,1.0503,1.0898,1.122,1.1187,1.1203,1.1225,1.1327,1.1241,1.2003,1.3256,1.348,1.4664,1.6464,1.6804,1.7292,1.7836,1.7942,1.8026,1.8137,-0.2662,-0.2582,-0.266,-0.3132,-0.2893,-0.289,-0.3675,-0.3834,-0.3837,-0.3832,-0.3834,-0.3837,-0.383,-0.3834,-0.3602,-0.3056,-0.2976,-0.2821,-0.2273,-0.1961,-0.1962,-0.2431,-0.2275,-0.2119,-0.1962,-0.2041,-0.2119,-0.2277,-0.1124,-0.0325,0.0162,0.1432,0.2435,0.3248,0.3674,0.4195,0.4566,0.5033,0.5277,0.5418,0.5593,0.613,0.6877,0.6933,0.7562,0.8388,0.8695,0.856,0.8341,0.9058,0.8993,0.8765,0.9669,0.9867,0.9789,1.0033,1.0118,1.017,1.0194,0.9499,0.8877,0.9186,0.9291,0.9248,0.8969,0.9,0.9139,0.9131,0.9171,0.934,0.9894,0.9975,1.0036,1.0178,1.0366,1.0396,1.0188,1.0415,1.0674,1.0569,1.0895,1.1108,1.1108,1.0978,1.0937,1.0937,1.0644,1.0513,1.0513,1.0513,1.0398,1.0307,1.0381,1.0271,1.0055,1.0288,1.045,1.0605,1.0831,1.1171,1.1539,1.1343,1.1585,1.1929,1.1499,1.2174,1.3607,1.3908,1.5083,1.6764,1.7388,1.7332,1.7139,1.7878,1.7768,1.7439,-0.1489,-0.1488,-0.1566,-0.2036,-0.172,-0.172,-0.2659,-0.282,-0.2821,-0.2974,-0.2978,-0.2979,-0.3052,-0.2978,-0.2746,-0.2198,-0.2119,-0.1884,-0.1335,-0.1415,-0.1493,-0.1572,-0.1807,-0.1963,-0.2196,-0.2038,-0.1967,-0.1983,-0.0568,0.0494,0.1161,0.2669,0.3778,0.4566,0.4986,0.5436,0.5861,0.5897,0.6163,0.6602,0.6602,0.7302,0.844,0.844,0.9052,0.9952,1.0023,0.9862,0.9636,1.0133,1.0045,0.9895,1.0795,1.0985,1.0935,1.1304,1.1194,1.1259,1.2051,1.1541,1.0779,1.0604,1.0497,1.0384,1.0196,1.0158,1.0168,1.0245,1.0233,1.0426,1.0873,1.1016,1.1099,1.12,1.1214,1.1224,1.1156,1.1256,1.1338,1.1292,1.1471,1.158,1.1467,1.1166,1.0959,1.0828,1.049,1.0293,1.0293,1.0293,1.0293,1.0293,1.0588,1.0673,1.0526,1.0632,1.0712,1.0932,1.1091,1.1423,1.1943,1.177,1.1929,1.2363,1.218,1.2851,1.4119,1.4775,1.5854,1.7196,1.7789,1.7604,1.7054,1.7904,1.7876,1.744,-0.047,-0.0235,-0.0,-0.0,-0.0,-0.0157,-0.055,-0.0628,-0.0786,-0.1257,-0.1257,-0.1257,-0.1257,-0.1257,-0.1257,-0.1257,-0.1257,-0.1257,-0.1257,-0.165,-0.1807,-0.1572,-0.1807,-0.1963,-0.2196,-0.1568,-0.111,-0.0812,0.1244,0.2376,0.2603,0.4251,0.5041,0.5206,0.5577,0.6005,0.6586,0.6461,0.7221,0.8544,0.8544,0.9061,0.9923,0.9923,0.9923,1.0038,1.0844,1.0509,0.9873,1.1727,1.162,1.1013,1.1996,1.2104,1.2074,1.2736,1.2683,1.2657,1.3331,1.3492,1.3418,1.3089,1.2767,1.2316,1.1683,1.1539,1.1352,1.0932,1.0844,1.0924,1.1329,1.1753,1.2005,1.2009,1.189,1.1866,1.1992,1.1362,1.1047,1.1464,1.1328,1.1025,1.0677,1.0635,1.0385,0.997,0.9916,0.9922,0.9922,0.9916,0.9916,0.9916,1.0663,1.1365,1.1976,1.1519,1.1458,1.1699,1.1871,1.2118,1.2363,1.2363,1.2363,1.2448,1.3542,1.4378,1.5123,1.6198,1.7196,1.804,1.7959,1.8099,1.8171,1.8179,1.8399,1.858,0.102,0.0942,0.0786,0.0471,0.0393,0.0157,-0.0471,-0.0628,-0.0629,-0.0786,-0.0786,-0.0707,-0.0393,-0.0393,-0.0393,-0.0393,-0.0393,-0.0157,0.0392,0.0939,0.0938,0.0391,-0.0784,-0.1185,-0.0562,0.008,0.0567,0.0912,0.2627,0.3524,0.3635,0.4795,0.5581,0.5895,0.6019,0.6698,0.7773,0.7857,0.8536,0.9492,0.9492,1.0014,1.0885,1.0885,1.1299,1.1867,1.219,1.2103,1.188,1.2506,1.2519,1.2372,1.282,1.2764,1.2708,1.3171,1.3128,1.3078,1.3397,1.3419,1.3266,1.3019,1.2936,1.2735,1.2291,1.2105,1.2121,1.2627,1.2417,1.2303,1.2806,1.2734,1.2486,1.2158,1.213,1.2145,1.2178,1.2146,1.2157,1.2284,1.2221,1.2131,1.2034,1.1431,1.0944,1.0821,1.0748,1.0738,1.0738,1.126,1.1558,1.1558,1.1855,1.2201,1.285,1.2068,1.194,1.2369,1.178,1.1607,1.1952,1.1952,1.2203,1.2875,1.3366,1.4371,1.5703,1.6281,1.7115,1.7985,1.8076,1.8162,1.823,1.8419,1.8748,1.9148,0.165,0.1493,0.1335,0.0943,0.0864,0.0629,-0.0,-0.0157,-0.0079,0.0078,0.0078,0.0313,0.094,0.1018,0.1018,0.1018,0.1018,0.1174,0.172,0.2109,0.2186,0.1876,0.086,0.0395,0.0567,0.1457,0.2136,0.2541,0.3867,0.4502,0.4588,0.5373,0.5866,0.616,0.6721,0.751,0.8365,0.8806,0.9579,1.0448,1.0448,1.1058,1.1843,1.1843,1.2199,1.2688,1.274,1.2772,1.2864,1.2857,1.2973,1.3046,1.3273,1.3273,1.3193,1.3419,1.3419,1.3346,1.3492,1.3346,1.315,1.3107,1.3056,1.3006,1.2733,1.269,1.2888,1.3446,1.342,1.3405,1.3815,1.3615,1.3297,1.3173,1.2915,1.2735,1.2758,1.2647,1.2621,1.2621,1.2621,1.2609,1.2559,1.2004,1.1641,1.1666,1.1582,1.1558,1.1558,1.2003,1.2305,1.2305,1.2592,1.3105,1.3724,1.3087,1.2738,1.2705,1.2112,1.1946,1.2203,1.2203,1.2711,1.3548,1.421,1.5039,1.6034,1.6542,1.7286,1.8116,1.8096,1.8355,1.8665,1.8861,1.9287,1.9805,0.1885,0.1806,0.1728,0.1571,0.1492,0.1336,0.0864,0.0785,0.0942,0.1332,0.1408,0.1718,0.2497,0.2653,0.2653,0.2653,0.2652,0.2731,0.2731,0.2652,0.2733,0.2973,0.3052,0.261,0.1618,0.2675,0.3568,0.4249,0.5036,0.5561,0.5737,0.623,0.632,0.6367,0.7754,0.8497,0.8594,0.957,1.0534,1.1408,1.1494,1.2015,1.279,1.279,1.2859,1.2984,1.2888,1.2902,1.3037,1.2991,1.3046,1.3273,1.3419,1.3492,1.3492,1.3492,1.3492,1.3492,1.3492,1.3346,1.328,1.3309,1.3316,1.3228,1.298,1.3273,1.3514,1.3601,1.3965,1.432,1.4649,1.4453,1.4283,1.4602,1.3941,1.3413,1.3444,1.2986,1.2645,1.2709,1.2693,1.2609,1.2513,1.2465,1.2388,1.2331,1.2372,1.2378,1.2378,1.2445,1.2532,1.256,1.3287,1.397,1.4628,1.4535,1.3964,1.2954,1.2875,1.2869,1.3124,1.3124,1.3633,1.4559,1.5636,1.6049,1.6206,1.7057,1.7771,1.8263,1.8054,1.8587,1.9462,1.9495,1.9813,2.0382,0.3365,0.329,0.3294,0.3294,0.3222,0.3067,0.2665,0.2585,0.2584,0.2657,0.2656,0.289,0.3437,0.3517,0.3517,0.3517,0.4062,0.4453,0.4453,0.5076,0.5237,0.4771,0.5173,0.5234,0.4851,0.4946,0.5273,0.5852,0.6474,0.7088,0.7869,0.7774,0.8119,0.881,0.9182,0.9697,1.0468,1.0799,1.158,1.2448,1.279,1.3052,1.3307,1.3639,1.3652,1.3353,1.3523,1.339,1.3212,1.3294,1.3419,1.3419,1.3492,1.3492,1.3492,1.3492,1.3492,1.3492,1.3492,1.3572,1.3711,1.3814,1.394,1.394,1.3477,1.355,1.3887,1.4656,1.4864,1.4961,1.527,1.5105,1.4848,1.4504,1.3917,1.3629,1.3753,1.3076,1.2758,1.3298,1.3132,1.3075,1.3337,1.3013,1.2629,1.2352,1.2879,1.3244,1.3244,1.376,1.4252,1.4536,1.4758,1.5161,1.5842,1.5771,1.5484,1.4803,1.4048,1.3711,1.3795,1.3795,1.43,1.5228,1.5628,1.6206,1.6886,1.7221,1.7845,1.853,1.8574,1.9143,1.9946,2.0061,2.0395,2.0907,0.3988,0.3915,0.3923,0.3849,0.3771,0.3684,0.3435,0.3435,0.3593,0.3984,0.3984,0.4297,0.4927,0.5004,0.5004,0.5004,0.5395,0.5631,0.5631,0.6025,0.6103,0.5631,0.6018,0.6248,0.6147,0.6461,0.6729,0.6773,0.7378,0.7939,0.8365,0.8651,0.9021,0.9483,0.9984,1.0498,1.1042,1.1922,1.259,1.3045,1.3555,1.3724,1.3711,1.3824,1.3736,1.3639,1.3571,1.345,1.3346,1.3492,1.3492,1.3492,1.3492,1.3492,1.3492,1.3492,1.3572,1.3645,1.3645,1.3717,1.3835,1.3859,1.3889,1.3903,1.3977,1.4179,1.4536,1.5065,1.5315,1.5463,1.5667,1.5428,1.5149,1.4846,1.4303,1.3998,1.4057,1.3413,1.3171,1.3677,1.3365,1.3271,1.3807,1.3739,1.3652,1.3382,1.3983,1.4301,1.4301,1.4825,1.5221,1.5411,1.5638,1.5972,1.6523,1.676,1.6781,1.6632,1.5304,1.4636,1.4636,1.4636,1.5137,1.6064,1.6386,1.6878,1.7392,1.7811,1.8354,1.9065,1.9187,1.9834,2.0553,2.0567,2.0916,2.1365,0.4613,0.454,0.4472,0.4249,0.4235,0.4217,0.4203,0.4208,0.4448,0.516,0.5237,0.5473,0.6183,0.6338,0.6338,0.6338,0.6338,0.6338,0.6338,0.6338,0.6268,0.5977,0.624,0.6534,0.6788,0.7637,0.7877,0.7388,0.8227,0.8647,0.8728,0.9399,0.9751,0.99,1.0793,1.1239,1.1375,1.27,1.3289,1.3426,1.3884,1.4122,1.4054,1.3872,1.3822,1.3783,1.3529,1.3465,1.3492,1.3492,1.3492,1.3499,1.3572,1.3572,1.3572,1.3572,1.3717,1.3863,1.3863,1.3863,1.395,1.3938,1.3872,1.3984,1.4577,1.4927,1.5124,1.5213,1.552,1.5813,1.5944,1.5666,1.5375,1.5327,1.4946,1.459,1.4462,1.3923,1.3735,1.4053,1.3776,1.3747,1.4213,1.4609,1.4792,1.4736,1.5062,1.5319,1.5338,1.5651,1.5859,1.5992,1.63,1.6713,1.7096,1.7412,1.7723,1.7959,1.655,1.5809,1.5809,1.5809,1.6229,1.6976,1.731,1.7635,1.7814,1.8351,1.8979,1.9615,1.9835,2.0483,2.1177,2.1266,2.1454,2.1741,0.6328,0.6257,0.619,0.6028,0.5951,0.5944,0.5941,0.5944,0.6022,0.6103,0.6103,0.618,0.6261,0.6338,0.6338,0.6338,0.6338,0.6338,0.6338,0.649,0.6546,0.6437,0.6728,0.723,0.8062,0.8209,0.8313,0.8362,0.9101,0.9897,1.075,1.0746,1.1242,1.2011,1.228,1.2472,1.2531,1.2975,1.3121,1.318,1.3994,1.41,1.3884,1.4524,1.441,1.3965,1.3921,1.3695,1.3492,1.3492,1.3492,1.3499,1.3667,1.374,1.379,1.3943,1.4008,1.4065,1.4065,1.4209,1.4359,1.4653,1.4887,1.5091,1.5447,1.5349,1.5235,1.5534,1.5866,1.6033,1.5822,1.5957,1.6024,1.5924,1.5662,1.5502,1.5309,1.4787,1.4608,1.5005,1.5225,1.5249,1.5062,1.534,1.5419,1.5133,1.5419,1.5635,1.5708,1.602,1.6503,1.7225,1.7311,1.749,1.7874,1.7883,1.7989,1.804,1.7789,1.7627,1.7627,1.7627,1.7708,1.7797,1.7878,1.7951,1.7985,1.8434,1.9063,1.988,2.0288,2.1031,2.1998,2.2176,2.2176,2.2008,0.6791,0.6567,0.6419,0.6338,0.6338,0.6338,0.6338,0.6338,0.6338,0.6338,0.6338,0.6338,0.6338,0.6338,0.6338,0.6338,0.6338,0.6335,0.649,0.6489,0.6565,0.6635,0.7339,0.7901,0.8299,0.9379,0.9995,1.0124,1.0336,1.0633,1.1027,1.1624,1.2201,1.2822,1.2811,1.292,1.3155,1.3354,1.3436,1.3516,1.4136,1.4352,1.4216,1.4343,1.4231,1.396,1.3777,1.3616,1.3492,1.3645,1.3645,1.3717,1.387,1.4008,1.4,1.4072,1.4217,1.4281,1.4281,1.4353,1.4537,1.4694,1.4806,1.4951,1.5378,1.5311,1.5229,1.5645,1.581,1.5847,1.5747,1.5839,1.5847,1.5747,1.561,1.5546,1.5383,1.4824,1.453,1.4561,1.5094,1.5348,1.5197,1.571,1.5992,1.5845,1.6393,1.6757,1.6759,1.7096,1.7375,1.7783,1.803,1.8276,1.8371,1.8594,1.8754,1.8754,1.8754,1.8434,1.804,1.804,1.804,1.8031,1.8282,1.8493,1.8792,1.9419,2.0063,2.063,2.1047,2.1496,2.1919,2.2008,2.1909,2.1919]},{"header":{"parameterUnit":"m.s-1","parameterCategory":1,"la1":30.6,"la2":28.766,"lo1":-90.7593,"lo2":-88.6598,"dy":0.0162,"dx":0.0183,"nx":116,"ny":114,"refTime":"2024-06-04T18:00:00:Z","depth":0,"parameterNumber":3,"parameterNumberName":"V-component_of_WINDS"},"data":[0.0,0.0,0.0,0.0,0.0,0.0,0.0,0.0,0.0,0.0,0.0,0.0,0.0,0.0,0.0,0.0,0.0,0.0,0.0,0.0,0.0,0.0,0.0,0.0,0.0,0.0,0.0,0.0,0.0,0.0,0.0,0.0,0.0,0.0,0.0,0.0,0.0,0.0,0.0,0.0,0.0,0.0,0.0,0.0,0.0,0.0,0.0,0.0,0.0,0.0,0.0,0.0,0.0,0.0,0.0,0.0,0.0,0.0,0.0,0.0,0.0,0.0,0.0,0.0,0.0,0.0,0.0,0.0,0.0,0.0,0.0,0.0,0.0,0.0,0.0,0.0,0.0,0.0,0.0,0.0,0.0,0.0,0.0,0.0,0.0,0.0,0.0,0.0,0.0,0.0,0.0,0.0,0.0,0.0,0.0,0.0,0.0,0.0,0.0,0.0,0.0,0.0,0.0,0.0,0.0,0.0,0.0,0.0,0.0,0.0,0.0,0.0,0.0,0.0,0.0,0.0,0.0,0.0,0.0,0.0,0.0,0.0,0.0,0.0,0.0,0.0,0.0,0.0,0.0,0.0,0.0,0.0,0.0,0.0,0.0,0.0,0.0,0.0,0.0,0.0,0.0,0.0,0.0,0.0,0.0,0.0,0.0,0.0,0.0,0.0,0.0,0.0,0.0,0.0,0.0,0.0,0.0,0.0,0.0,0.0,0.0,0.0,0.0,0.0,0.0,0.0,0.0,0.0,0.0,0.0,0.0,0.0,0.0,0.0,0.0,0.0,0.0,0.0,0.0,0.0,0.0,0.0,0.0,0.0,0.0,0.0,0.0,0.0,0.0,0.0,0.0,0.0,0.0,0.0,0.0,0.0,0.0,0.0,0.0,0.0,0.0,0.0,0.0,0.0,0.0,0.0,0.0,0.0,0.0,0.0,0.0,0.0,0.0,0.0,0.0,0.0,0.0,0.0,0.0,0.0,0.0,0.0,0.0,0.0,0.0,0.0,0.0,0.0,0.0,0.0,0.0,0.0,0.0,0.0,0.0,0.0,0.0,0.0,0.0,0.0,0.0,0.0,0.0,0.0,0.0,0.0,0.0,0.0,0.0,0.0,0.0,0.0,0.0,0.0,0.0,0.0,0.0,0.0,0.0,0.0,0.0,0.0,0.0,0.0,0.0,0.0,0.0,0.0,0.0,0.0,0.0,0.0,0.0,0.0,0.0,0.0,0.0,0.0,0.0,0.0,0.0,0.0,0.0,0.0,0.0,0.0,0.0,0.0,0.0,0.0,0.0,0.0,0.0,0.0,0.0,0.0,0.0,0.0,0.0,0.0,0.0,0.0,0.0,0.0,0.0,0.0,0.0,0.0,0.0,0.0,0.0,0.0,0.0,0.0,0.0,0.0,0.0,0.0,0.0,0.0,0.0,0.0,0.0,0.0,0.0,0.0,0.0,0.0,0.0,0.0,0.0,0.0,0.0,0.0,0.0,0.0,0.0,0.0,0.0,0.0,0.0,0.0,0.0,0.0,0.0,0.0,0.0,0.0,0.0,0.0,0.0,0.0,0.0,0.0,0.0,0.0,0.0,0.0,0.0,0.0,0.0,0.0,0.0,0.0,0.0,0.0,0.0,0.0,0.0,0.0,0.0,0.0,0.0,0.0,0.0,0.0,0.0,0.0,0.0,0.0,0.0,0.0,0.0,0.0,0.0,0.0,0.0,0.0,0.0,0.0,0.0,0.0,0.0,0.0,0.0,0.0,0.0,0.0,0.0,0.0,0.0,0.0,0.0,0.0,0.0,0.0,0.0,0.0,0.0,0.0,0.0,0.0,0.0,0.0,0.0,0.0,0.0,0.0,0.0,0.0,0.0,0.0,0.0,0.0,0.0,0.0,0.0,0.0,0.0,0.0,0.0,0.0,0.0,0.0,0.0,0.0,0.0,0.0,0.0,0.0,0.0,0.0,0.0,0.0,0.0,0.0,0.0,0.0,0.0,0.0,0.0,0.0,0.0,0.0,0.0,0.0,0.0,0.0,0.0,0.0,0.0,0.0,0.0,0.0,0.0,0.0,0.0,0.0,0.0,0.0,0.0,0.0,0.0,0.0,0.0,0.0,0.0,0.0,0.0,0.0,0.0,0.0,0.0,0.0,0.0,0.0,0.0,0.0,0.0,0.0,0.0,0.0,0.0,0.0,0.0,0.0,0.0,0.0,0.0,0.0,0.0,0.0,0.0,0.0,0.0,0.0,0.0,0.0,0.0,0.0,0.0,0.0,0.0,0.0,0.0,0.0,0.0,0.0,0.0,0.0,0.0,0.0,0.0,0.0,0.0,0.0,0.0,0.0,0.0,0.0,0.0,0.0,0.0,0.0,0.0,0.0,0.0,0.0,0.0,0.0,0.0,0.0,0.0,0.0,0.0,0.0,0.0,0.0,0.0,0.0,0.0,0.0,0.0,0.0,0.0,0.0,0.0,0.0,0.0,0.0,0.0,0.0,0.0,0.0,0.0,0.0,0.0,0.0,0.0,0.0,0.0,0.0,0.0,0.0,0.0,0.0,0.0,0.0,0.0,0.0,0.0,0.0,0.0,0.0,0.0,0.0,0.0,0.0,0.0,0.0,0.0,0.0,0.0,0.0,0.0,0.0,0.0,0.0,0.0,0.0,0.0,0.0,0.0,0.0,0.0,0.0,0.0,0.0,0.0,0.0,0.0,0.0,0.0,0.0,0.0,0.0,0.0,0.0,0.0,0.0,0.0,0.0,0.0,0.0,0.0,0.0,0.0,0.0,0.0,0.0,0.0,0.0,0.0,0.0,0.0,0.0,0.0,0.0,0.0,0.0,0.0,0.0,0.0,0.0,0.0,0.0,0.0,0.0,0.0,0.0,0.0,0.0,0.0,0.0,0.0,0.0,0.0,0.0,0.0,0.0,0.0,0.0,0.0,0.0,0.0,0.0,0.0,0.0,0.0,0.0,0.0,0.0,0.0,0.0,0.0,0.0,0.0,0.0,0.0,0.0,0.0,0.0,0.0,0.0,0.0,0.0,0.0,0.0,0.0,0.0,0.0,0.0,0.0,0.0,0.0,0.0,0.0,0.0,0.0,0.0,0.0,0.0,0.0,0.0,0.0,0.0,0.0,0.0,0.0,0.0,0.0,0.0,0.0,0.0,0.0,0.0,0.0,0.0,0.0,0.0,0.0,0.0,0.0,0.0,0.0,0.0,0.0,0.0,0.0,0.0,0.0,0.0,0.0,0.0,0.0,0.0,0.0,0.0,0.0,0.0,0.0,0.0,0.0,0.0,0.0,0.0,0.0,0.0,0.0,0.0,0.0,0.0,0.0,0.0,0.0,0.0,0.0,0.0,0.0,0.0,0.0,0.0,0.0,0.0,0.0,0.0,0.0,0.0,0.0,0.0,0.0,0.0,0.0,0.0,0.0,0.0,0.0,0.0,0.0,0.0,0.0,0.0,0.0,0.0,0.0,0.0,0.0,0.0,0.0,0.0,0.0,0.0,0.0,0.0,0.0,0.0,0.0,0.0,0.0,0.0,0.0,0.0,0.0,0.0,0.0,0.0,0.0,0.0,0.0,0.0,0.0,0.0,0.0,0.0,0.0,0.0,0.0,0.0,0.0,0.0,0.0,0.0,0.0,0.0,0.0,0.0,0.0,0.0,0.0,0.0,0.0,0.0,0.0,0.0,0.0,0.0,0.0,0.0,0.0,0.0,0.0,0.0,0.0,0.0,0.0,0.0,0.0,0.0,0.0,0.0,0.0,0.0,0.0,0.0,0.0,0.0,0.0,0.0,0.0,0.0,0.0,0.0,0.0,0.0,0.0,0.0,0.0,0.0,0.0,0.0,0.0,0.0,0.0,0.0,0.0,0.0,0.0,0.0,0.0,0.0,0.0,0.0,0.0,0.0,0.0,0.0,0.0,0.0,0.0,0.0,0.0,0.0,0.0,0.0,0.0,0.0,0.0,0.0,0.0,0.0,0.0,0.0,0.0,0.0,0.0,0.0,0.0,0.0,0.0,0.0,0.0,0.0,0.0,0.0,0.0,0.0,0.0,0.0,0.0,0.0,0.0,0.0,0.0,0.0,0.0,0.0,0.0,0.0,0.0,0.0,0.0,0.0,0.0,0.0,0.0,0.0,0.0,0.0,0.0,0.0,0.0,0.0,0.0,0.0,0.0,0.0,0.0,0.0,0.0,0.0,0.0,0.0,0.0,0.0,0.0,0.0,0.0,0.0,0.0,0.0,0.0,0.0,0.0,0.0,0.0,0.0,0.0,0.0,0.0,0.0,0.0,0.0,0.0,0.0,0.0,0.0,0.0,0.0,0.0,0.0,0.0,0.0,0.0,0.0,0.0,0.0,0.0,0.0,0.0,0.0,0.0,0.0,0.0,0.0,0.0,0.0,0.0,0.0,0.0,0.0,0.0,0.0,0.0,0.0,0.0,0.0,0.0,0.0,0.0,0.0,0.0,0.0,0.0,0.0,0.0,0.0,0.0,0.0,0.0,0.0,0.0,0.0,0.0,0.0,0.0,0.0,0.0,0.0,0.0,0.0,0.0,0.0,0.0,0.0,0.0,0.0,0.0,0.0,0.0,0.0,0.0,0.0,0.0,0.0,0.0,0.0,0.0,0.0,0.0,0.0,0.0,0.0,0.0,0.0,0.0,0.0,0.0,0.0,0.0,0.0,0.0,0.0,0.0,0.0,0.0,0.0,0.0,0.0,0.0,0.0,0.0,0.0,0.0,0.0,0.0,0.0,0.0,0.0,0.0,0.0,0.0,0.0,0.0,0.0,0.0,0.0,0.0,0.0,0.0,0.0,0.0,0.0,0.0,0.0,0.0,0.0,0.0,0.0,0.0,0.0,0.0,0.0,0.0,0.0,0.0,0.0,0.0,0.0,0.0,0.0,0.0,0.0,0.0,0.0,0.0,0.0,0.0,0.0,0.0,0.0,0.0,0.0,0.0,0.0,0.0,0.0,0.0,0.0,0.0,0.0,0.0,0.0,0.0,0.0,0.0,0.0,0.0,0.0,0.0,0.0,0.0,0.0,0.0,0.0,0.0,0.0,0.0,0.0,0.0,0.0,0.0,0.0,0.0,0.0,0.0,0.0,0.0,0.0,0.0,0.0,0.0,0.0,0.0,0.0,0.0,0.0,0.0,0.0,0.0,0.0,0.0,0.0,0.0,0.0,0.0,0.0,0.0,0.0,0.0,0.0,0.0,0.0,0.0,0.0,0.0,0.0,0.0,0.0,0.0,0.0,0.0,0.0,0.0,0.0,0.0,0.0,0.0,0.0,0.0,0.0,0.0,0.0,0.0,0.0,0.0,0.0,0.0,0.0,0.0,0.0,0.0,0.0,0.0,0.0,0.0,0.0,0.0,0.0,0.0,0.0,0.0,0.0,0.0,0.0,0.0,0.0,0.0,0.0,0.0,0.0,0.0,0.0,0.0,0.0,0.0,0.0,0.0,0.0,0.0,0.0,0.0,0.0,0.0,0.0,0.0,0.0,0.0,0.0,0.0,0.0,0.0,0.0,0.0,0.0,0.0,0.0,0.0,0.0,0.0,0.0,0.0,0.0,0.0,0.0,0.0,0.0,0.0,0.0,0.0,0.0,0.0,0.0,0.0,0.0,0.0,0.0,0.0,0.0,0.0,0.0,0.0,0.0,0.0,0.0,0.0,0.0,0.0,0.0,0.0,0.0,0.0,0.0,0.0,0.0,0.0,0.0,0.0,0.0,0.0,0.0,0.0,0.0,0.0,0.0,0.0,0.0,0.0,0.0,0.0,0.0,0.0,0.0,0.0,0.0,0.0,0.0,0.0,0.0,0.0,0.0,0.0,0.0,0.0,0.0,0.0,0.0,0.0,0.0,0.0,0.0,0.0,0.0,0.0,0.0,0.0,0.0,0.0,0.0,0.0,0.0,0.0,0.0,0.0,0.0,0.0,0.0,0.0,0.0,0.0,0.0,0.0,0.0,0.0,0.0,0.0,0.0,0.0,0.0,0.0,0.0,0.0,0.0,0.0,0.0,0.0,0.0,0.0,0.0,0.0,0.0,0.0,0.0,0.0,0.0,0.0,0.0,0.0,0.0,0.0,0.0,-2.4559,-2.4203,0.0,0.0,0.0,0.0,0.0,0.0,0.0,0.0,0.0,0.0,0.0,0.0,0.0,0.0,0.0,0.0,0.0,0.0,0.0,0.0,0.0,0.0,0.0,-1.5342,-1.613,-1.647,-1.6674,-1.6878,-1.7061,0.0,0.0,0.0,0.0,0.0,-1.7325,-1.679,-1.6572,-1.6671,-1.6724,-1.7004,-1.7458,-1.7777,-1.8208,-1.8717,0.0,0.0,0.0,0.0,0.0,0.0,0.0,0.0,0.0,0.0,0.0,0.0,0.0,0.0,0.0,0.0,0.0,0.0,0.0,0.0,0.0,0.0,0.0,0.0,0.0,0.0,0.0,0.0,0.0,0.0,0.0,0.0,0.0,0.0,0.0,0.0,0.0,0.0,0.0,0.0,0.0,0.0,0.0,0.0,0.0,0.0,0.0,0.0,0.0,0.0,0.0,0.0,0.0,0.0,0.0,0.0,0.0,0.0,0.0,0.0,0.0,0.0,0.0,0.0,0.0,0.0,0.0,0.0,0.0,0.0,-2.525,-2.5082,0.0,0.0,0.0,0.0,0.0,0.0,0.0,0.0,0.0,0.0,0.0,0.0,0.0,0.0,0.0,0.0,0.0,0.0,0.0,0.0,0.0,-1.4378,-1.4389,-1.5552,-1.6507,-1.6942,-1.7093,-1.7318,-1.7625,-1.7659,0.0,0.0,0.0,-1.7979,-1.8458,-1.7945,-1.7846,-1.8242,-1.8882,-1.9101,-1.8924,-1.9618,-2.0138,-2.048,-1.9704,0.0,0.0,0.0,0.0,0.0,0.0,0.0,0.0,0.0,0.0,0.0,0.0,0.0,0.0,0.0,0.0,0.0,0.0,0.0,0.0,0.0,0.0,0.0,0.0,0.0,0.0,0.0,0.0,0.0,0.0,0.0,0.0,0.0,0.0,0.0,0.0,0.0,0.0,0.0,0.0,0.0,0.0,0.0,0.0,0.0,0.0,0.0,0.0,0.0,0.0,0.0,0.0,0.0,0.0,0.0,0.0,0.0,0.0,0.0,0.0,0.0,0.0,0.0,-2.4791,-2.4871,-2.5125,-2.5326,-2.591,-2.6691,-2.5686,-2.5994,-2.7183,-2.6657,0.0,0.0,0.0,0.0,0.0,0.0,0.0,0.0,0.0,0.0,0.0,0.0,0.0,0.0,0.0,0.0,0.0,0.0,0.0,-1.413,-1.4735,-1.6064,-1.7101,-1.7635,-1.7772,-1.7988,-1.8246,-1.8287,0.0,0.0,-1.9052,-1.9291,-1.9578,-1.9002,-1.9124,-1.9961,-2.0022,-1.9649,-1.8901,-1.8912,-1.9765,-2.1351,-2.121,-2.1166,-2.1234,0.0,0.0,0.0,0.0,0.0,0.0,0.0,0.0,0.0,0.0,0.0,0.0,0.0,0.0,0.0,0.0,0.0,0.0,0.0,0.0,0.0,0.0,0.0,0.0,0.0,0.0,0.0,0.0,0.0,0.0,0.0,0.0,0.0,0.0,0.0,0.0,0.0,0.0,0.0,0.0,0.0,-2.3978,-2.4378,0.0,0.0,0.0,0.0,0.0,0.0,0.0,0.0,0.0,0.0,0.0,0.0,0.0,-2.3864,-2.5017,-2.6201,-2.6781,-2.6742,-2.7398,-2.7394,-2.671,-2.73,-2.7462,-2.7231,-2.7656,0.0,-2.814,-2.8178,0.0,0.0,0.0,0.0,0.0,0.0,0.0,0.0,0.0,0.0,0.0,0.0,0.0,0.0,0.0,0.0,0.0,0.0,0.0,0.0,0.0,-1.6289,-1.7439,-1.8689,-1.8696,-1.8762,-1.912,-1.9002,-1.9013,-1.9261,-1.9503,-1.9787,-2.0139,-2.0328,-2.0818,-2.1643,-2.1138,-2.0787,-2.0571,-2.0534,-2.1174,-2.2394,-2.2391,-2.2392,-2.2372,-2.2816,0.0,0.0,0.0,0.0,0.0,0.0,0.0,0.0,0.0,0.0,0.0,0.0,0.0,0.0,0.0,0.0,0.0,0.0,0.0,0.0,0.0,0.0,0.0,0.0,0.0,0.0,0.0,0.0,0.0,0.0,0.0,0.0,0.0,0.0,0.0,0.0,0.0,0.0,0.0,-2.3524,-2.3731,-2.3717,-2.3232,-2.2337,0.0,0.0,0.0,0.0,0.0,0.0,0.0,0.0,0.0,-2.3826,-2.401,-2.4788,-2.6211,-2.6687,-2.6985,-2.7178,-2.7494,-2.7494,-2.713,-2.807,-2.8338,-2.8099,-2.9244,-2.9629,-2.9431,-2.954,-2.9062,-2.8237,0.0,0.0,0.0,0.0,-2.7469,-2.7896,0.0,0.0,0.0,0.0,0.0,0.0,0.0,0.0,0.0,0.0,0.0,0.0,-1.5615,-1.6663,-1.7897,-1.9323,-1.9237,-1.925,-1.9594,-1.9621,-1.9707,-1.992,-2.0066,-2.0413,-2.1006,-2.1628,-2.1965,-2.2004,-2.1718,-2.1573,-2.1574,-2.1702,-2.2224,-2.3089,-2.3089,-2.3132,-2.3184,-2.3445,-2.3303,0.0,0.0,0.0,0.0,0.0,0.0,0.0,0.0,0.0,0.0,0.0,0.0,0.0,0.0,0.0,0.0,0.0,0.0,0.0,0.0,0.0,0.0,0.0,0.0,0.0,0.0,0.0,0.0,0.0,0.0,0.0,0.0,0.0,0.0,0.0,0.0,0.0,0.0,-2.4137,-2.418,-2.3171,-2.3759,-2.3393,0.0,0.0,0.0,0.0,0.0,0.0,-2.2341,-2.2359,-2.3188,-2.4906,-2.5087,-2.5761,-2.7048,-2.7133,-2.7315,-2.7506,-2.7517,-2.7379,-2.7166,-2.8195,-2.8442,-2.8201,-2.9703,-3.0162,-2.9892,-3.0525,-3.0505,-3.0119,-2.9896,-2.9772,-2.9656,-2.9185,-2.914,-2.9311,0.0,0.0,0.0,0.0,0.0,0.0,0.0,0.0,0.0,0.0,0.0,-1.544,-1.6011,-1.7488,-1.8573,-1.8983,-1.9063,-1.9185,0.0,-2.0115,-2.0709,-2.1096,-2.1062,-2.1549,-2.2664,-2.2784,-2.1958,-2.0135,-2.1434,-2.1583,-2.0677,-2.1115,-2.1954,-2.3089,-2.3089,-2.3305,-2.3713,-2.4626,-2.4147,-2.2875,0.0,0.0,0.0,0.0,0.0,0.0,0.0,0.0,0.0,0.0,0.0,0.0,0.0,0.0,0.0,0.0,0.0,0.0,0.0,0.0,0.0,0.0,0.0,0.0,0.0,0.0,0.0,0.0,0.0,0.0,0.0,0.0,0.0,0.0,0.0,0.0,0.0,0.0,0.0,-2.4035,-2.5247,0.0,0.0,0.0,0.0,-2.2836,-2.2647,-2.2927,-2.3847,-2.4118,-2.4686,-2.562,-2.6268,-2.6868,-2.7442,-2.814,-2.8435,-2.8336,-2.8356,-2.7875,-2.7024,-2.7679,-2.7546,-2.6885,-2.821,-2.877,-2.8853,-3.0883,-3.0506,-2.8689,-2.9499,-2.9325,-2.8665,-2.8566,-2.9161,-3.0061,0.0,0.0,0.0,0.0,0.0,-1.2096,-1.2221,-1.2352,-1.2809,-1.3866,-1.455,-1.5469,-1.6921,-1.7275,-1.8084,-1.9751,-1.9295,-1.927,-2.0129,-2.0727,-2.0615,-1.9637,-2.121,-2.262,-2.3682,-2.2532,-2.2018,-2.2186,-2.148,-2.1322,-2.1709,-2.1857,-2.2499,-2.3505,-2.3524,-2.3803,-2.4245,-2.4847,-2.4819,-2.4377,-2.4791,-2.4779,0.0,0.0,0.0,0.0,0.0,0.0,0.0,0.0,0.0,0.0,0.0,0.0,0.0,0.0,0.0,0.0,0.0,0.0,0.0,0.0,0.0,0.0,0.0,0.0,0.0,0.0,0.0,0.0,0.0,0.0,0.0,0.0,0.0,0.0,0.0,0.0,0.0,-2.4962,-2.5916,0.0,-2.4137,-2.3861,-2.3754,-2.3629,-2.4029,-2.4572,-2.5248,-2.5452,-2.5908,-2.6644,-2.6896,-2.7324,-2.7946,-2.77,-2.782,-2.8255,-2.742,-2.7236,-2.7661,-2.7829,-2.803,-2.8306,-2.973,-3.0066,-2.9722,-3.1869,-3.1638,-3.0004,-3.0958,-3.1219,-3.0956,-3.0382,-3.0712,-3.139,0.0,0.0,0.0,0.0,-1.1181,-1.1811,-1.1988,-1.2435,-1.3081,-1.4093,-1.483,-1.5851,-1.7464,-1.7687,-1.837,-2.0013,-1.9294,-1.9222,-2.0364,-2.0739,-2.0565,-1.9786,-2.1983,-2.3397,-2.3746,-2.2757,-2.2468,-2.2938,-2.1835,-2.168,-2.2382,-2.2562,-2.3048,-2.3753,-2.4109,-2.4501,-2.4923,-2.5234,-2.5266,-2.5118,-2.5234,-2.535,-2.5345,0.0,0.0,0.0,0.0,0.0,0.0,0.0,0.0,0.0,0.0,0.0,0.0,0.0,0.0,0.0,0.0,0.0,0.0,0.0,0.0,0.0,0.0,0.0,0.0,0.0,0.0,0.0,0.0,0.0,0.0,0.0,0.0,0.0,0.0,-2.6162,-2.6701,-2.5223,-2.6265,-2.6411,-2.465,-2.5015,-2.5269,-2.5043,-2.5516,-2.6029,-2.6572,-2.6667,-2.7063,-2.7815,-2.783,-2.8089,-2.8693,-2.7977,-2.7859,-2.8299,-2.7137,-2.7006,-2.778,-2.7734,-2.87,-3.047,-3.0968,-3.0948,-3.0678,-3.2159,-3.202,-3.0941,-3.2091,-3.2423,-3.2197,-3.162,-3.169,-3.2126,0.0,0.0,0.0,-1.0278,-1.0783,-1.1318,-1.1659,-1.2193,-1.2915,-1.3825,-1.5297,-1.6665,-1.7633,-1.8742,-1.9504,-1.9686,-1.8986,-1.8961,-1.9982,-2.0112,-2.066,-2.1794,-2.3379,-2.3812,-2.2968,-2.3518,-2.3217,-2.2018,-2.2425,-2.2587,-2.2506,-2.3038,-2.3468,-2.3852,-2.4759,-2.5371,-2.5683,-2.5826,-2.5502,-2.4915,-2.5038,-2.5243,-2.5446,0.0,0.0,0.0,0.0,0.0,0.0,0.0,0.0,0.0,0.0,0.0,0.0,0.0,0.0,0.0,0.0,0.0,0.0,0.0,0.0,0.0,0.0,0.0,0.0,0.0,0.0,0.0,0.0,0.0,0.0,0.0,0.0,0.0,-2.665,-2.7407,-2.7136,-2.4846,-2.6318,-2.6795,-2.5034,-2.6039,-2.6832,-2.6951,-2.7003,-2.7176,-2.7639,-2.7668,-2.8123,-2.9083,-2.9098,-2.9277,-2.9609,-2.9163,-2.8851,-2.8682,-2.7771,-2.7365,-2.7334,-2.736,-2.9415,-3.2889,-3.1614,-3.1205,-3.1529,-3.1661,-3.1477,-3.1271,-3.2666,-3.2732,-3.2052,-3.2052,-3.2052,-3.2279,0.0,0.0,-0.9644,-0.9959,-1.0783,-1.149,-1.1747,-1.2123,-1.3034,-1.4827,-1.5565,-1.6607,-1.839,-1.7994,-1.8165,-1.9513,-1.8012,-1.757,-1.8916,-1.9205,-2.0319,-2.2502,-2.2483,-2.2868,-2.3825,-2.2695,-2.2127,-2.2211,-2.1614,-2.178,-2.2656,-2.2795,-2.3297,-2.4099,-2.4414,-2.4752,-2.513,-2.5264,-2.5241,-2.5126,-2.5157,-2.5599,-2.6215,0.0,0.0,0.0,0.0,0.0,0.0,0.0,0.0,0.0,0.0,0.0,0.0,0.0,0.0,0.0,0.0,0.0,0.0,0.0,0.0,0.0,0.0,0.0,0.0,0.0,0.0,0.0,0.0,0.0,0.0,0.0,-2.6198,-2.7714,-2.6851,-2.7588,-2.7712,-2.6314,-2.6746,-2.6874,-2.6221,-2.6428,-2.6539,-2.65,-2.6592,-2.692,-2.7515,-2.7792,-2.8301,-2.9083,-2.8836,-2.9193,-3.0007,-2.962,-2.9864,-3.0659,-2.9039,-2.8307,-2.8465,-2.8427,-2.9705,-3.1895,-3.1994,-3.1773,-3.1409,-3.2098,-3.2359,-3.2483,-3.3139,-3.3282,-3.3071,-3.3034,-3.2998,-3.3036,0.0,-0.8891,-0.9571,-0.9843,-1.0761,-1.1468,-1.1541,-1.2077,-1.3071,-1.4744,-1.5126,-1.5973,-1.7825,-1.7214,-1.717,-1.8324,-1.6996,-1.6659,-1.7972,-1.8663,-2.0041,-2.2262,-2.228,-2.2691,-2.3673,-2.2906,-2.2411,-2.2256,-2.1615,-2.1646,-2.2283,-2.2301,-2.2849,-2.3798,-2.4269,-2.4828,-2.5456,-2.552,-2.5857,-2.6283,-2.556,-2.5642,-2.6102,-2.5738,-2.5624,-2.5649,-2.5693,-2.5377,-2.4933,-2.494,0.0,0.0,0.0,0.0,0.0,0.0,0.0,0.0,0.0,0.0,0.0,0.0,0.0,0.0,0.0,0.0,0.0,0.0,0.0,0.0,0.0,0.0,0.0,0.0,-2.743,-2.8646,-2.799,-2.8268,-2.8199,-2.7209,-2.6962,-2.6732,-2.6453,-2.6418,-2.6418,-2.6379,-2.6525,-2.6938,-2.7691,-2.8083,-2.8785,-2.9894,-2.9731,-2.9977,-3.0723,-3.0293,-3.0483,-3.1326,-2.9666,-2.9007,-2.9181,-2.9123,-2.9894,-3.1218,-3.1696,-3.1832,-3.1805,-3.2304,-3.25,-3.251,0.0,0.0,0.0,0.0,-3.2985,-3.3159,0.0,-0.9028,-0.9716,-0.9918,-1.0683,-1.1242,-1.1178,-1.197,-1.2931,-1.3953,-1.4267,-1.4952,-1.6439,-1.6308,-1.6246,-1.657,-1.5898,-1.5931,0.0,0.0,-1.984,-2.1347,-2.2408,-2.2927,-2.2834,-2.3411,-2.3169,-2.1988,-2.187,-2.1801,-2.18,-2.185,-2.2443,-2.3457,-2.4373,-2.5267,-2.6123,-2.6129,-2.671,-2.7507,-2.6015,-2.5512,-2.5641,-2.5615,-2.5643,-2.5703,-2.5709,-2.5621,-2.5547,-2.5556,0.0,0.0,0.0,0.0,0.0,0.0,0.0,0.0,0.0,0.0,0.0,0.0,0.0,0.0,0.0,0.0,0.0,0.0,0.0,0.0,0.0,0.0,0.0,0.0,-2.902,-2.9535,-2.9341,-2.9115,-2.8598,-2.7584,-2.703,-2.6544,-2.6108,-2.6233,-2.6326,-2.6472,-2.6621,-2.7068,-2.7768,-2.8392,0.0,0.0,0.0,-3.1275,-3.1495,-3.0945,-3.0922,-3.1343,-3.0071,-2.9564,-2.9778,-2.9749,-3.0173,-3.0879,-3.1094,-3.1625,-3.2258,-3.2258,-3.2081,-3.1906,-3.2835,-3.2854,-3.2331,-3.2371,-3.2683,-3.3286,0.0,-0.9341,-0.9572,-1.0198,-1.037,-1.0534,-1.0825,-1.1416,-1.2173,-1.3168,-1.3582,-1.4176,-1.523,-1.478,-1.4656,-1.5284,-1.454,-1.4534,0.0,0.0,-1.9726,-2.0218,-2.1799,-2.2394,-2.1794,-2.1973,-2.1614,-2.067,-2.0642,-2.1253,-2.2439,-2.2435,-2.3299,-2.4819,-2.5077,-2.5351,-2.5637,-2.568,-2.5835,-2.6013,-2.5683,-2.595,-2.6493,-2.5905,-2.5699,-2.5703,-2.5703,-2.5201,-2.4573,-2.4631,-2.4623,-2.4583,-2.462,-2.5001,0.0,0.0,0.0,0.0,0.0,0.0,0.0,0.0,0.0,0.0,0.0,0.0,0.0,0.0,0.0,0.0,0.0,0.0,0.0,-2.6632,-2.8661,-2.9841,-2.8818,-2.907,-2.8846,-2.7332,-2.7346,-2.7077,-2.6042,-2.6096,-2.6272,-2.6343,-2.6349,-2.6481,-2.6623,-2.7926,-2.945,-3.1043,-3.1309,-3.1455,-3.1528,-3.0867,-3.1109,-3.2179,-3.1095,0.0,-3.0757,-3.078,-3.0929,-3.1106,-3.1175,-3.1284,-3.1433,-3.1433,-3.1581,-3.1906,-3.2835,-3.3977,-3.4911,-3.3952,-3.4427,-3.5435,-0.928,-0.9466,-0.9641,-1.0059,-1.0274,-1.0516,-1.0984,-1.137,-1.1986,-1.3075,-1.2753,-1.2823,-1.3782,-1.2976,-1.262,-1.3295,-1.3597,0.0,0.0,-1.75,-1.8933,-1.9568,-2.1089,-2.1748,-2.1402,-2.1969,-2.2037,-2.1599,-2.16,-2.1971,-2.2705,-2.2731,-2.3443,-2.4703,-2.4722,-2.5057,-2.5547,-2.558,-2.5597,-2.5609,-2.5602,-2.5868,-2.622,-2.5836,-2.5683,-2.5641,-2.5655,-2.5357,-2.4956,-2.4954,-2.4937,-2.49,-2.49,-2.4914,-2.4858,0.0,0.0,0.0,0.0,0.0,0.0,0.0,0.0,0.0,0.0,0.0,0.0,0.0,0.0,-2.4946,-2.639,0.0,-2.7485,-2.8769,-2.9712,-3.0032,-2.944,-2.9468,-2.8993,-2.7397,-2.7305,-2.7019,-2.6002,-2.6101,-2.624,-2.6311,-2.6903,-2.7484,-2.8124,-2.8966,-2.9829,-3.0634,-3.0776,-3.083,-3.0677,-3.0379,-3.0919,-3.2336,-3.155,-3.1036,-3.0752,-3.0803,-3.1104,-3.1575,-3.1421,-3.144,-3.16,-3.1768,-3.1985,-3.2318,-3.2876,-3.3597,-3.4251,-3.377,-3.4209,-3.4901,-0.8987,-0.9321,-0.9577,-0.9912,-1.0225,-1.0612,-1.1131,-1.1466,-1.1894,-1.2628,-1.1821,-1.1401,-1.1991,-1.1248,-1.0968,0.0,0.0,0.0,0.0,-1.6781,-1.8037,-1.8999,-2.0269,-2.0929,-2.0847,-2.1944,-2.2455,-2.2304,-2.2491,-2.2659,-2.2805,-2.3028,-2.362,-2.4457,-2.4449,-2.4873,-2.556,-2.5585,-2.5566,-2.556,-2.5554,-2.5573,-2.5592,-2.5592,-2.5595,-2.5592,-2.5583,-2.5569,-2.5561,-2.5462,-2.5455,-2.5465,-2.5395,-2.483,-2.4164,-2.3993,-2.3993,0.0,0.0,0.0,0.0,0.0,0.0,0.0,0.0,-2.4958,-2.4964,-2.5767,-2.5656,-2.621,-2.8824,-2.8395,-2.8505,-3.1237,-3.0893,-3.0275,-3.026,-2.9946,-2.9136,-2.77,-2.7414,-2.7004,-2.6215,-2.6278,-2.6517,-2.6963,-2.7932,-2.9034,-3.0242,-3.0407,-3.0349,-3.0159,-3.0114,-3.0076,-2.9913,-2.9911,-3.0718,-3.2319,-3.1565,-3.1242,-3.1176,-3.08,-3.1143,-3.2051,-3.1771,-3.1804,-3.2092,-3.235,-3.255,-3.2781,-3.3009,-3.3057,-3.3032,-3.3273,-3.366,-3.4009,0.0,-0.868,-0.9029,-1.0016,-1.0156,-1.0336,-1.0864,-1.1427,-1.1509,-1.073,-1.0654,-1.0362,-0.9515,-0.9985,-1.0684,-1.1525,0.0,0.0,-1.4517,-1.6254,-1.7495,-1.8038,-1.9381,-1.984,-1.9184,-2.0506,-2.0856,-2.0142,-2.1046,-2.1926,-2.2812,-2.3592,-2.4464,-2.5341,-2.5341,-2.5383,-2.5424,-2.5498,-2.549,-2.5418,-2.5415,-2.5367,-2.5269,-2.5269,-2.5396,-2.5582,-2.5531,-2.5476,-2.5393,-2.5274,-2.5321,-2.5378,-2.5264,-2.475,-2.406,-2.328,-2.3095,-2.2784,-2.1141,-2.1448,-2.2767,-2.4993,-2.5009,-2.5201,0.0,-2.8036,-2.7731,-2.8992,-2.8951,-2.8971,-2.989,-2.9953,-3.0141,-3.1023,-3.105,-3.0881,-3.051,-3.0017,-2.935,-2.8463,-2.8125,-2.7685,-2.6945,-2.6916,-2.7643,-2.9388,-2.9623,-3.0158,-3.1281,-3.1418,-3.0968,-2.9982,-2.9948,-2.9922,-2.9912,-2.9872,-3.0729,-3.2375,-3.1024,-3.1458,-3.3459,-3.18,-3.1475,-3.226,-3.2231,-3.2265,-3.2384,-3.2533,-3.2709,-3.3009,-3.3335,-3.3542,-3.368,-3.3652,-3.4137,-3.4715,0.0,-0.8285,-0.871,-0.9298,-0.9663,-1.0117,-1.0904,-1.1058,-1.1036,-1.0889,-1.0485,-1.001,-0.9509,-0.9357,-0.947,-1.0042,0.0,0.0,-1.357,-1.5452,-1.6774,-1.7243,-1.7893,-1.8781,-1.9867,-2.0055,-2.084,-2.23,-2.2284,-2.2829,-2.3908,-2.431,-2.4781,-2.5253,-2.5196,-2.5206,-2.5282,-2.5226,-2.5264,-2.5369,-2.5852,-2.5736,-2.5313,-2.5725,-2.5351,-2.4602,-2.4533,-2.4495,0.0,0.0,-2.4369,-2.44,-2.4339,-2.4134,-2.3649,-2.2307,-2.2329,-2.2791,-2.2702,-2.2962,-2.3649,-2.5292,-2.5783,-2.6359,-2.8228,-2.8237,-2.8264,-2.968,-2.971,-2.9679,-3.0302,-3.0422,-3.0587,-3.1097,-3.125,-3.1026,-3.0212,-2.97,-2.9194,-2.8637,-2.8322,-2.7998,-2.7494,-2.755,-2.8165,-2.9363,-2.9492,-3.0212,-3.1626,-3.0887,-3.0565,-3.0865,-3.0385,-3.0202,-3.0348,-3.0382,-3.1183,-3.2749,-3.1549,-3.1668,-3.2923,-3.1781,-3.1674,-3.2389,-3.2687,-3.2862,-3.2943,-3.3196,-3.3343,-3.3447,-3.3698,-3.385,-3.3921,-3.3972,-3.4201,-3.4441,0.0,-0.789,-0.8323,-0.8484,-0.8968,-0.9691,-1.0626,-1.0602,-1.0495,-1.0555,-0.9979,-0.9527,-0.9491,-0.8902,-0.8656,-0.9004,-1.0779,0.0,0.0,-1.4515,-1.5915,-1.6378,-1.6712,-1.7683,-1.9429,-1.9195,-2.0128,-2.2318,-2.2436,-2.2944,-2.3853,-2.4205,-2.45,-2.474,-2.4598,-2.4679,-2.4929,-2.4988,-2.5124,-2.5363,-2.6174,-2.6117,-2.5577,-2.5891,-2.5243,-2.4138,-2.3888,-2.3656,0.0,-2.3575,-2.3492,-2.3367,-2.351,-2.331,-2.2768,-2.1562,-2.1579,-2.2207,-2.3213,-2.3704,-2.4202,-2.5371,-2.6333,-2.7218,-2.7999,-2.8061,-2.8309,-2.9562,-2.9563,-2.9625,-3.0523,-3.0485,-3.0514,-3.1057,-3.1185,-3.0974,-3.0149,-2.9582,-2.9223,-2.9137,-2.8726,-2.8453,-2.8477,-2.8507,-2.8717,-2.9231,-2.9493,-3.0285,-3.1713,-3.0592,-3.0401,-3.1546,-3.0789,-3.0485,-3.0749,-3.0811,-3.1404,-3.248,-3.1771,-3.1764,-3.2393,-3.1992,-3.2092,-3.2636,-3.3068,-3.3316,-3.3422,-3.3788,-3.3921,-3.3921,-3.4105,-3.4203,-3.4184,-3.4298,-3.425,-3.4124,0.0,0.0,-0.7729,-0.7731,-0.8162,-0.8843,-0.979,-1.005,-0.9801,-0.8891,-0.8754,-0.8716,-0.865,-0.8549,-0.8674,-0.906,-1.0386,-1.1219,-1.1161,-1.3402,-1.4972,-1.5426,-1.612,-1.6563,-1.6623,-1.7486,-1.7918,-1.7883,-2.0084,-2.1325,-2.1704,-2.2747,-2.3454,-2.3842,-2.369,-2.3859,-2.4263,-2.4838,-2.517,-2.5375,-2.6185,-2.6374,-2.6089,-2.5327,-2.4975,-2.478,-2.4063,0.0,0.0,-2.3206,-2.2975,-2.2533,-2.3057,-2.2332,-2.1267,-2.121,-2.0716,-2.0365,-2.1248,-2.2198,-2.3365,-2.5152,-2.6308,-2.7186,-2.7938,-2.8112,-2.8291,-2.8984,-2.8769,-2.8938,-3.0599,-3.0231,-3.0016,-3.0858,-3.079,-3.0629,-3.0576,-2.9897,-2.9665,-3.0361,-2.9626,-2.937,-3.0143,-2.981,-2.9605,-2.9798,-3.0215,-3.0757,-3.1457,-3.0891,-3.0892,-3.1589,-3.0858,-3.058,-3.079,-3.1106,-3.124,-3.117,-3.1185,-3.1731,-3.2712,-3.2805,-3.293,-3.3086,-3.3286,-3.3509,-3.3726,-3.4124,-3.4316,-3.4386,-3.4609,-3.4674,-3.4674,-3.4674,-3.4394,-3.3998,0.0,0.0,0.0,-0.7077,-0.7381,-0.7728,-0.8072,-0.8731,-0.9169,-0.892,-0.8802,0.0,0.0,0.0,0.0,0.0,-0.9082,-0.9763,-1.0078,-1.1583,-1.2762,-1.3433,-1.428,-1.5176,-1.6137,-1.6528,-1.7379,-1.8759,-1.9341,-2.0056,-2.0888,-2.1606,-2.2194,-2.268,-2.3014,-2.341,-2.3963,-2.4584,-2.4928,-2.5195,-2.6225,-2.5931,-2.4938,-2.5466,-2.4617,-2.313,0.0,0.0,-2.1509,-2.1187,-2.0948,-2.0851,-2.1023,-2.0886,-2.0604,-2.0301,-2.0438,-2.0945,-2.2026,-2.2979,-2.3969,-2.5336,-2.5877,-2.6308,-2.7171,-2.7305,-2.7432,-2.8155,-2.7671,-2.7472,-2.8527,-2.8539,-2.8842,-3.0307,-3.0453,-3.0688,-3.1418,-3.055,-3.011,-3.0696,-3.0429,-3.0226,-3.0434,-3.0218,-3.014,-3.0267,-3.0435,-3.0791,-3.1461,-3.0941,-3.0917,-3.1648,-3.1244,-3.1232,-3.1664,-3.2002,-3.2299,-3.2553,-3.2624,-3.2822,-3.319,-3.328,-3.3455,-3.3652,-3.3788,-3.3954,-3.4117,-3.4386,-3.4495,-3.4473,-3.4542,-3.4542,-3.4498,-3.4498,-3.4409,-3.4269,0.0,0.0,0.0,0.0,0.0,0.0,0.0,0.0,0.0,0.0,0.0,0.0,0.0,0.0,0.0,0.0,0.0,-0.8595,-0.8882,0.0,-1.1308,-1.1949,-1.26,-1.3407,-1.4432,-1.4861,-1.5694,-1.6926,-1.7684,-1.839,-1.9019,-1.9853,-2.0575,-2.1194,-2.1746,-2.2617,-2.3675,-2.4007,-2.4534,-2.5193,-2.5744,-2.5386,-2.4586,-2.4696,-2.3859,0.0,0.0,0.0,-2.0639,-2.0359,-1.9951,-1.9595,-1.9863,-1.9921,-1.9877,-1.9996,-2.0438,-2.1217,-2.2719,-2.3521,-2.4184,-2.5245,-2.5525,-2.5683,-2.6283,-2.6402,-2.6581,-2.7374,-2.6773,-2.6438,-2.7522,-2.7911,-2.8297,-2.9097,-2.985,-3.055,-3.1148,-3.0047,-2.9775,-3.1329,-3.1043,-3.0872,-3.1227,-3.1172,-3.0971,-3.0683,-3.105,-3.1431,-3.1765,-3.1421,-3.1487,-3.2064,-3.1806,-3.1844,-3.2276,-3.2616,-3.2957,-3.335,-3.339,-3.3419,-3.3465,-3.3559,-3.3726,-3.3947,-3.4023,-3.4179,-3.4353,-3.4545,-3.4607,-3.4586,-3.4689,-3.4689,-3.4649,-3.4689,-3.4689,-3.467,0.0,0.0,0.0,0.0,0.0,0.0,0.0,0.0,0.0,0.0,0.0,0.0,0.0,0.0,0.0,0.0,0.0,0.0,-0.7707,0.0,0.0,-1.0853,-1.1166,-1.1407,-1.1506,-1.2637,-1.3043,-1.2651,-1.5208,-1.6355,-1.6189,-1.7501,-1.8549,-1.9348,-1.9932,-2.1273,-2.3179,-2.308,-2.3863,-2.5121,-2.4642,-2.47,-2.4831,-2.3174,0.0,0.0,0.0,0.0,-2.0021,-2.0593,-1.9881,-1.8893,-1.9694,-1.9522,-1.9235,-2.0319,-2.0717,-2.1235,-2.3152,-2.3781,-2.4075,-2.499,-2.5305,-2.5386,-2.5389,-2.5496,-2.582,-2.66,-2.6006,-2.5822,-2.7423,-2.8219,-2.8382,-2.7562,-2.9158,-3.0379,-3.0088,-2.8766,-2.8995,-3.2207,-3.159,-3.1348,-3.2479,-3.257,-3.2162,-3.1184,-3.2092,-3.257,-3.2352,-3.2318,-3.247,-3.2795,-3.2504,-3.2446,-3.2655,-3.2967,-3.3243,-3.3447,-3.3447,-3.3522,-3.3643,-3.3661,-3.3788,-3.4049,-3.4049,-3.4197,-3.4431,-3.463,-3.4733,-3.4753,-3.5001,-3.5092,-3.5111,-3.5183,-3.52,-3.5129,0.0,0.0,0.0,0.0,0.0,0.0,0.0,0.0,0.0,0.0,0.0,0.0,0.0,0.0,0.0,0.0,0.0,0.0,0.0,0.0,0.0,0.0,0.0,-1.0346,-1.0467,-1.1562,-1.2051,0.0,0.0,-1.4283,-1.4327,-1.5329,-1.6258,-1.7011,-1.7847,-1.8987,-2.0302,-2.0765,-2.1462,-2.2315,0.0,-2.2559,-2.2594,0.0,0.0,0.0,0.0,-2.0789,-2.0257,-1.9605,-1.9454,-1.9641,-2.0359,-2.0498,-2.0497,-2.1042,-2.1698,-2.2426,-2.3272,-2.3996,-2.4664,-2.5139,-2.529,-2.5335,-2.5321,-2.5438,-2.5407,-2.4982,-2.4726,-2.4715,-2.5133,-2.668,-2.8203,-2.9225,-3.0686,-3.2064,-3.3203,-3.1853,-3.1181,-3.2385,-3.2394,-3.2311,-3.2363,-3.3177,-3.3375,-3.2616,-3.2598,-3.2621,-3.2603,-3.2603,-3.2651,-3.2795,-3.2716,-3.2854,-3.3263,-3.3715,-3.3954,-3.4005,-3.4105,-3.4154,-3.4197,-3.4293,-3.445,-3.4602,-3.4602,-3.4689,-3.485,-3.4908,-3.4945,-3.5001,-3.5075,-3.5092,-3.5092,-3.5075,-3.5057,-3.502,0.0,0.0,0.0,0.0,0.0,0.0,0.0,0.0,0.0,0.0,0.0,0.0,0.0,0.0,0.0,0.0,0.0,0.0,0.0,0.0,0.0,0.0,0.0,-0.8534,-0.8633,-0.9476,-0.9881,0.0,0.0,0.0,0.0,-1.3243,-1.4242,-1.5188,-1.6017,-1.7297,-1.8923,-1.8961,0.0,0.0,0.0,0.0,0.0,0.0,0.0,0.0,0.0,-2.0409,-2.0153,-1.9783,-1.9609,-1.9634,-2.0213,-2.0443,-2.065,-2.1521,-2.2177,-2.2753,-2.3467,-2.4083,-2.4601,-2.4847,-2.496,-2.4985,-2.4735,-2.4737,-2.4574,-2.3791,-2.3368,-2.3353,-2.4113,-2.6227,-2.8051,-2.8576,-3.0509,-3.2103,-3.2514,-3.1242,-3.0751,-3.2096,-3.208,-3.2127,-3.2482,-3.2791,-3.2976,-3.302,-3.3203,-3.3179,-3.2723,-3.2716,-3.2619,-3.2501,-3.2609,-3.3019,-3.3725,-3.403,-3.4221,-3.4293,-3.4363,-3.4427,-3.4495,-3.458,-3.4666,-3.4788,-3.4788,-3.4849,-3.4945,-3.4945,-3.4983,-3.502,-3.502,-3.5056,-3.5126,-3.5107,-3.5138,-3.5165,0.0,0.0,0.0,0.0,0.0,0.0,0.0,0.0,0.0,0.0,0.0,0.0,0.0,0.0,0.0,0.0,0.0,0.0,0.0,0.0,0.0,0.0,-0.6636,-0.6681,-0.673,-0.7199,-0.7491,-0.75,0.0,0.0,0.0,0.0,0.0,0.0,0.0,0.0,0.0,0.0,0.0,0.0,0.0,0.0,0.0,0.0,0.0,0.0,-1.9754,-1.9434,-1.9624,-2.0128,-1.9956,-1.9519,-1.9896,-2.0018,-2.0289,-2.1713,-2.2171,-2.2443,-2.3567,-2.3983,-2.4173,-2.4299,-2.4476,-2.4454,-2.3778,-2.3743,-2.363,-2.2856,-2.2191,-2.2231,-2.3757,-2.6209,-2.7784,-2.7083,-2.9702,-3.1477,-3.0445,-2.9427,-2.9531,-3.1468,-3.1264,-3.1411,-3.2515,-3.205,-3.1994,-3.2806,-3.362,-3.3649,-3.2636,-3.259,-3.2452,-3.2126,-3.2321,-3.2878,-3.3771,-3.3892,-3.4008,-3.4161,-3.4161,-3.4282,-3.4501,-3.454,-3.4658,-3.4888,-3.4888,-3.4908,-3.4963,-3.4963,-3.4982,-3.4982,-3.4982,-3.5088,-3.5239,-3.5232,-3.5374,-3.5592,0.0,0.0,0.0,0.0,0.0,0.0,0.0,0.0,0.0,0.0,-0.6489,-0.6526,0.0,0.0,0.0,0.0,0.0,0.0,0.0,0.0,0.0,0.0,-0.6307,-0.6305,-0.6304,-0.659,-0.6818,-0.6867,-0.7516,0.0,0.0,0.0,0.0,0.0,0.0,0.0,0.0,0.0,0.0,0.0,0.0,0.0,0.0,0.0,0.0,0.0,-1.9429,-1.8667,-1.821,-1.8788,-1.9737,-2.0682,-2.0582,-2.0605,-2.073,-2.1122,-2.1453,-2.1936,-2.29,-2.3446,-2.3762,-2.4006,-2.41,-2.3819,-2.2593,-2.296,-2.3182,-2.1857,-2.2161,-2.2772,-2.3067,-2.5276,-2.72,-2.7716,-3.0192,-3.1984,-3.1832,-3.1646,-3.1303,-3.0733,-3.1111,-3.1474,-3.1703,-3.2199,-3.2534,-3.2642,-3.2847,-3.2692,-3.2067,-3.2091,-3.21,-3.209,-3.2202,-3.2373,-3.2581,-3.2674,-3.2765,-3.2832,-3.288,-3.329,-3.4025,-3.4125,-3.4587,-3.5307,-3.5307,-3.5307,-3.5321,-3.5321,-3.5316,-3.5306,-3.5306,-3.5372,-3.5445,-3.538,-3.5881,-3.6537,0.0,0.0,0.0,0.0,0.0,0.0,0.0,-0.5527,-0.5736,-0.6032,-0.6102,-0.6179,-0.6227,-0.5884,-0.5707,0.0,0.0,0.0,0.0,0.0,0.0,0.0,0.0,-0.5591,-0.5652,-0.5646,-0.5821,-0.6174,0.0,-0.6826,-0.7577,-0.7937,-0.872,-0.9906,-1.0446,-1.1376,-1.2557,0.0,0.0,-1.435,-1.5001,-1.593,0.0,0.0,0.0,0.0,0.0,-1.8349,-1.7679,-1.7932,-1.8487,-1.9258,-2.0384,-2.0831,-2.0914,-2.0944,-2.1068,-2.1268,-2.1351,-2.1833,-2.2265,-2.2189,-2.2875,-2.3019,-2.1028,-2.1882,-2.2607,-2.0868,-2.1585,-2.271,-2.3261,-2.525,-2.6974,-2.75,-2.9713,-3.1382,-3.1417,-3.1357,-3.111,-3.0528,-3.0698,-3.104,-3.1469,-3.1476,-3.1616,-3.2051,-3.1712,-3.1546,-3.1635,-3.1326,-3.1303,-3.1667,-3.1756,-3.1946,-3.231,-3.2381,-3.2444,-3.2535,-3.2579,-3.2852,-3.335,-3.3857,-3.4326,-3.4757,-3.5172,-3.5378,-3.5405,-3.5405,-3.5405,-3.5399,-3.5399,-3.5753,-3.623,-3.6199,-3.6806,-3.7616,0.0,0.0,0.0,0.0,0.0,0.0,0.0,-0.5192,-0.5492,-0.5798,-0.5758,-0.578,-0.5927,-0.5404,-0.5096,0.0,0.0,0.0,0.0,0.0,0.0,0.0,0.0,-0.4967,-0.5025,0.0,0.0,-0.5645,-0.548,0.0,0.0,0.0,0.0,0.0,-0.9448,-1.0279,-1.1525,-1.1831,-1.2377,0.0,0.0,-1.48,0.0,0.0,0.0,0.0,0.0,-1.7901,-1.7209,-1.7218,-1.7074,-1.7199,-1.9216,-1.9999,-2.0194,-2.0192,-2.0213,-2.02,-1.9994,-2.0344,-2.0713,-2.0454,-2.1412,-2.1856,-1.9621,-2.0769,-2.1808,-2.0014,-2.086,-2.218,-2.3054,-2.4556,-2.5857,-2.6455,-2.8266,-2.9804,-3.0364,-3.0289,-3.0261,-3.0505,-3.0442,-3.0625,-3.128,-3.0736,-3.0662,-3.1337,-3.0779,-3.0656,-3.115,-3.0657,-3.058,-3.1087,-3.1174,-3.1508,-3.2191,-3.2069,-3.2158,-3.2468,-3.2276,-3.2352,-3.2651,-3.3525,-3.4007,-3.4236,-3.5046,-3.5445,-3.5483,-3.5483,-3.5483,-3.5502,-3.5695,-3.625,-3.6966,-3.714,-3.7851,-3.868,0.0,0.0,0.0,0.0,0.0,0.0,0.0,-0.5246,-0.5471,-0.5913,-0.5677,-0.5509,-0.5696,-0.5458,-0.4975,0.0,0.0,0.0,0.0,0.0,0.0,0.0,0.0,0.0,0.0,0.0,0.0,-0.543,-0.5358,0.0,0.0,0.0,0.0,0.0,0.0,-0.9328,-1.0592,-1.0458,0.0,0.0,0.0,0.0,0.0,0.0,0.0,0.0,0.0,-1.6834,-1.6312,-1.6318,-1.5906,-1.5562,-1.6415,-1.7093,-1.7596,-1.7829,-1.803,-1.8425,-1.9667,-1.9874,-1.9777,-2.0001,-2.0161,-1.9983,-1.8761,-1.9828,-2.0704,-1.9433,-2.0103,-2.1003,-2.1297,-2.1694,-2.2543,-2.4195,-2.5363,-2.6903,-2.9275,-2.9343,-2.9523,-3.0564,-3.063,-3.0623,-3.0758,-3.0653,-3.061,-3.069,-3.0576,-3.0492,-3.0497,-3.0479,-3.0477,-3.0482,-3.0501,-3.0926,-3.1834,-3.1081,-3.1149,-3.205,-3.1243,-3.1301,-3.2097,-3.2915,-3.371,-3.4512,-3.5378,-3.5766,-3.5754,-3.5754,-3.5754,-3.5851,-3.6627,-3.7005,-3.7189,-3.7966,-3.8824,-3.9578,0.0,0.0,0.0,0.0,0.0,0.0,-0.4665,-0.4852,-0.5055,-0.542,-0.5375,-0.5269,-0.5048,-0.5067,-0.4937,-0.4535,0.0,0.0,0.0,0.0,0.0,0.0,0.0,0.0,0.0,0.0,-0.4974,-0.5336,-0.5336,0.0,0.0,0.0,0.0,0.0,0.0,-0.8504,-0.9429,-0.9896,0.0,0.0,0.0,0.0,0.0,0.0,0.0,0.0,0.0,0.0,-1.551,-1.5255,-1.51,-1.5061,-1.5396,-1.5783,-1.6123,-1.6554,-1.699,-1.7317,-1.7272,-1.7511,-1.7744,-1.7802,-1.8303,-1.8477,-1.7475,-1.8654,-1.971,-1.8841,-2.0003,-2.126,-2.1536,-2.2194,-2.293,-2.3609,-2.4785,-2.6155,-2.7771,-2.8708,-2.9413,-2.992,-3.0373,-3.0673,-3.07,-3.0677,-3.0685,-3.0716,-3.07,-3.0652,-3.0583,-3.0563,-3.0546,-3.0509,-3.1023,-3.1255,-3.113,-3.128,-3.1297,-3.1215,-3.1409,-3.1661,-3.2043,-3.3386,-3.4171,-3.4556,-3.5424,-3.5803,-3.5793,-3.5793,-3.6103,-3.6617,-3.6966,-3.7752,-3.8712,-3.9058,-3.9735,-4.047,0.0,0.0,0.0,0.0,0.0,-0.3961,-0.43,-0.4495,-0.4724,-0.51,-0.5199,-0.5124,-0.4831,-0.4893,-0.4965,-0.4839,-0.4353,0.0,0.0,0.0,0.0,0.0,0.0,0.0,0.0,0.0,-0.4882,-0.5245,-0.5299,-0.5324,0.0,0.0,-0.5944,-0.6285,0.0,0.0,0.0,0.0,0.0,0.0,0.0,0.0,0.0,0.0,0.0,0.0,0.0,0.0,0.0,0.0,0.0,-1.4327,-1.4305,-1.438,-1.4727,-1.5662,-1.6113,-1.6225,-1.5752,-1.5934,-1.6234,-1.6225,-1.6826,-1.7293,-1.6713,-1.7895,-1.8927,-1.838,-1.9664,-2.0933,-2.1016,-2.1951,-2.2749,-2.2991,-2.4201,-2.5518,-2.6709,-2.7886,-2.875,-2.9086,-2.9595,-3.005,-3.0327,-3.0582,-3.0754,-3.0799,-3.0796,-3.0781,-3.0735,-3.0709,-3.0659,-3.0591,-3.1193,-3.1382,-3.108,-3.1397,-3.141,-3.1123,-3.1468,-3.1767,-3.2032,-3.3225,-3.3906,-3.419,-3.5076,-3.543,-3.546,-3.5959,-3.656,-3.7152,-3.7674,-3.8615,-3.974,-3.9996,-4.0478,-4.0996,0.0,0.0,0.0,0.0,0.0,0.0,-0.4167,-0.4309,-0.4616,-0.5129,-0.5131,-0.5122,-0.5168,-0.5072,-0.4981,-0.4899,-0.4651,0.0,0.0,0.0,0.0,0.0,0.0,0.0,0.0,0.0,-0.5076,-0.508,-0.5263,-0.5297,-0.5297,-0.5297,-0.5618,-0.6249,0.0,0.0,0.0,0.0,0.0,0.0,0.0,0.0,0.0,0.0,0.0,0.0,0.0,0.0,0.0,0.0,0.0,0.0,0.0,-1.2679,-1.3095,-1.4955,-1.5291,-1.5156,-1.5834,-1.5812,-1.5652,-1.5766,-1.6105,-1.6479,-1.6738,-1.7747,-1.8466,-1.8012,-1.8871,-1.9587,-1.9126,-1.9947,-2.1059,-2.2054,-2.316,-2.4552,-2.6347,-2.6723,-2.7173,-2.8099,-2.8168,-2.8489,-2.9425,-3.029,-3.0797,-3.079,-3.0795,-3.079,-3.0807,-3.0855,-3.0817,-3.0602,-3.0614,-3.1065,-3.1974,-3.1145,-3.1176,-3.2087,-3.1228,-3.1227,-3.2005,-3.2015,-3.2498,-3.3367,-3.4236,-3.4561,-3.4659,-3.6384,-3.7094,-3.7268,-3.9007,-3.9677,-3.9805,-4.0661,-4.1,-4.0994,0.0,0.0,0.0,0.0,0.0,0.0,0.0,-0.4514,-0.4684,-0.5012,-0.5124,-0.5157,-0.5188,-0.5072,-0.4981,-0.4899,-0.4721,0.0,0.0,0.0,0.0,0.0,0.0,0.0,0.0,0.0,-0.5088,-0.5101,-0.5156,-0.5128,-0.5014,-0.5128,-0.5293,-0.5441,-0.5934,-0.6334,0.0,0.0,0.0,0.0,0.0,0.0,0.0,0.0,0.0,0.0,0.0,0.0,0.0,0.0,0.0,0.0,0.0,0.0,0.0,-1.3396,-1.3386,-1.334,-1.3918,-1.3942,-1.4023,-1.496,-1.5066,-1.5252,-1.6365,-1.6708,-1.7007,-1.7704,-1.8343,-1.8866,-1.8985,-1.981,-2.0988,-2.257,-2.3606,-2.4544,-2.539,-2.6729,-2.7735,-2.8032,-2.9185,-2.9833,-2.9533,-3.03,-3.0792,-3.0793,-3.0209,-3.0116,-3.0779,-3.0268,-2.9929,-2.9913,-3.0452,-3.0589,-3.0286,-3.0609,-3.0924,-3.1228,-3.1541,-3.1828,-3.2088,-3.2645,-3.3032,-3.3314,-3.359,-3.4004,-3.4592,-3.5732,-3.6891,-3.8037,-3.9172,-4.0011,-4.062,-4.0901,-4.1001,-4.1019,0.0,0.0,0.0,0.0,0.0,0.0,0.0,-0.4537,-0.466,-0.4833,-0.5024,-0.5067,-0.4971,-0.4888,-0.487,-0.4957,-0.4832,0.0,0.0,0.0,0.0,0.0,0.0,0.0,-0.4709,-0.4948,-0.5095,-0.5027,-0.4977,-0.4869,-0.4754,-0.4811,-0.4899,-0.4901,-0.5486,-0.58,0.0,0.0,0.0,0.0,0.0,0.0,0.0,0.0,0.0,0.0,0.0,0.0,0.0,0.0,0.0,0.0,0.0,0.0,0.0,0.0,-1.1795,-1.1837,-1.2914,-1.3231,-1.3533,-1.4575,-1.4743,-1.4948,-1.5915,-1.6166,-1.6443,-1.7432,-1.7941,-1.8307,-1.879,-1.9612,-2.0572,-2.1698,-2.2739,-2.3727,-2.4676,-2.6041,-2.7225,-2.7987,-2.9396,-3.0104,-2.9549,-3.0287,-3.0798,-3.0807,-2.9946,-2.9679,-3.0238,-2.9784,-2.9375,-2.9088,-3.0208,-3.0543,-2.9998,-3.0526,-3.0798,-3.082,-3.1346,-3.1772,-3.2116,-3.228,-3.2534,-3.2877,-3.3181,-3.3611,0.0,-3.5663,-3.7108,-3.8415,-3.9296,-4.0194,-4.0994,-4.1035,-4.1035,-4.1035,0.0,0.0,0.0,0.0,0.0,0.0,0.0,-0.4418,-0.4574,-0.4618,-0.4801,-0.4893,-0.4618,-0.4618,-0.4731,-0.4976,0.0,0.0,0.0,0.0,0.0,0.0,0.0,0.0,-0.4569,-0.4896,-0.5046,-0.4883,-0.4774,-0.461,-0.4501,-0.4491,-0.4464,-0.4556,-0.5303,-0.5684,0.0,0.0,0.0,0.0,0.0,0.0,0.0,0.0,0.0,0.0,0.0,0.0,0.0,0.0,0.0,0.0,0.0,0.0,0.0,0.0,0.0,0.0,0.0,-1.3382,-1.3743,-1.4452,-1.4935,-1.527,-1.5565,-1.6006,0.0,-1.7278,-1.7636,-1.7983,-1.8593,-1.9424,-2.001,-1.9979,-2.097,-2.238,-2.4179,-2.492,-2.5963,-2.778,-2.8883,-2.9425,-2.9252,-3.0135,-3.0682,-3.0615,-2.9799,-2.9309,-2.931,-2.9302,-2.8996,-2.8299,-2.9858,-3.0696,-3.0708,-3.0701,-3.0745,-3.0794,-3.0799,-3.1224,-3.1991,-3.1184,-3.1244,-3.205,-3.2931,-3.3302,-3.3496,-3.5984,-3.7536,-3.8394,-3.9334,-4.0194,-4.0918,-4.1052,-4.1091,-4.1093,0.0,0.0,0.0,0.0,0.0,0.0,0.0,0.0,0.0,0.0,-0.4661,-0.4666,-0.4618,-0.4618,-0.4731,0.0,0.0,0.0,0.0,0.0,0.0,0.0,0.0,0.0,-0.4462,-0.4786,-0.4882,-0.474,-0.4616,-0.4557,-0.4501,-0.4121,-0.4148,-0.4499,-0.4323,-0.4742,0.0,0.0,0.0,0.0,0.0,0.0,0.0,0.0,0.0,0.0,-0.986,-0.9826,0.0,0.0,0.0,0.0,0.0,0.0,0.0,0.0,-1.1061,-1.1131,-1.2448,0.0,-1.2452,-1.3585,-1.4168,-1.471,0.0,-1.6105,-1.6538,-1.7327,-1.7646,-1.7997,-1.865,-2.0193,-2.1231,-2.0816,-2.1657,-2.2703,-2.3528,-2.5125,-2.6174,-2.6131,-2.8087,-2.8681,-2.6786,-2.853,-2.9522,-2.886,-2.7964,-2.7711,-2.8381,-2.7784,-2.7896,-2.8936,-2.946,-2.9757,-2.9819,-2.9812,-3.013,-3.0794,-3.0799,-3.0923,-3.1182,-3.096,-3.0955,-3.1145,-3.2023,-3.2747,-3.3458,-3.5396,-3.6676,-3.7553,-3.9098,-3.9831,-4.0095,-4.0827,-4.1111,-4.1091,0.0,0.0,0.0,0.0,0.0,0.0,0.0,0.0,0.0,0.0,0.0,-0.453,-0.4408,-0.4447,0.0,0.0,0.0,0.0,0.0,0.0,0.0,0.0,0.0,-0.4423,-0.4423,-0.4613,-0.4613,-0.4421,-0.4182,-0.4053,-0.3986,-0.3755,-0.383,-0.4184,-0.3894,-0.4261,0.0,0.0,0.0,0.0,0.0,0.0,0.0,0.0,0.0,0.0,-0.9364,-0.9463,0.0,-1.0174,-1.0498,-1.065,0.0,0.0,0.0,0.0,-1.119,-1.1308,-1.2067,-1.2189,-1.2389,-1.3624,-1.4098,-1.4519,-1.533,-1.5752,-1.6227,-1.706,-1.737,-1.7835,-1.9036,-2.0668,-2.1492,-2.0402,-2.1437,-2.248,-2.2802,-2.4228,-2.5292,-2.5517,-2.6797,-2.7259,-2.6291,-2.7837,-2.852,-2.7634,-2.7096,-2.6989,-2.7426,-2.7005,-2.7325,-2.855,-2.9057,-2.9525,-2.9994,-2.999,-3.0271,-3.0807,-3.0735,-3.0762,-3.086,-3.0858,-3.083,-3.0876,-3.2104,-3.2903,-3.342,-3.5145,-3.6355,-3.725,-3.8144,-3.8743,-3.9213,-4.0117,-4.0455,-4.0513,0.0,0.0,0.0,0.0,0.0,0.0,0.0,0.0,0.0,0.0,0.0,0.0,0.0,0.0,0.0,0.0,0.0,0.0,0.0,0.0,0.0,0.0,-0.4403,-0.4378,-0.4378,-0.4374,-0.4273,-0.4072,-0.3701,-0.3486,-0.3422,-0.3398,-0.3508,-0.3779,-0.3871,-0.415,0.0,0.0,0.0,0.0,0.0,0.0,0.0,0.0,0.0,0.0,0.0,0.0,0.0,-0.9958,-1.0177,-1.0326,-1.0794,0.0,0.0,0.0,0.0,0.0,-1.1597,-1.2011,-1.2696,-1.3835,-1.4154,-1.4265,-1.484,-1.514,-1.5553,-1.6409,-1.6661,-1.7289,-1.9102,-2.0443,-2.083,-1.9403,-2.076,-2.2037,-2.2135,-2.3027,-2.3996,-2.4841,-2.5187,-2.5535,-2.5952,-2.7083,-2.7408,-2.6474,-2.6539,-2.6575,-2.652,-2.6508,-2.6869,-2.7652,-2.8541,-2.9446,-3.035,-3.0498,-3.0646,-3.0767,-3.0647,-3.074,-3.0992,-3.0852,-3.0866,-3.1071,-3.264,-3.3301,-3.3437,-3.5104,-3.627,-3.7,-3.7059,-3.7561,-3.8318,-3.9188,-3.9611,-3.9851,0.0,0.0,0.0,0.0,0.0,0.0,0.0,0.0,0.0,0.0,0.0,0.0,0.0,0.0,0.0,0.0,0.0,0.0,0.0,0.0,0.0,-0.4438,-0.4002,-0.3726,-0.3726,-0.3817,-0.3815,-0.3866,-0.3504,-0.3346,-0.3419,-0.33,-0.3404,-0.3725,-0.423,-0.4507,-0.4615,0.0,0.0,0.0,-0.6263,0.0,0.0,0.0,0.0,0.0,0.0,0.0,0.0,-0.926,-0.9712,-1.0172,-1.0923,0.0,0.0,0.0,0.0,0.0,-1.1025,-1.1297,-1.1813,-1.3135,-1.3207,-1.3205,-1.4126,-1.4209,-1.4281,-1.5058,-1.5137,-1.5619,-1.7436,-1.8171,-1.8533,-1.8612,-2.0253,-2.1589,-2.1837,-2.2816,-2.3145,-2.2096,-2.3319,-2.3766,-2.252,-2.4529,-2.5557,-2.4664,-2.5284,-2.5679,-2.5603,-2.5605,-2.5938,-2.6691,-2.7622,-2.8462,-2.9248,-3.0028,-3.0494,-3.0625,-3.0606,-3.1061,-3.1878,-3.1133,-3.1172,-3.1876,-3.2876,-3.3297,-3.3427,-3.5108,-3.5877,-3.6079,-3.6814,-3.7226,-3.7481,-3.8351,-3.9156,-3.99,0.0,0.0,0.0,0.0,0.0,0.0,0.0,0.0,0.0,0.0,0.0,0.0,0.0,0.0,0.0,0.0,0.0,0.0,0.0,0.0,-0.4267,-0.4235,-0.3932,-0.3839,-0.4033,-0.3929,-0.3883,-0.3897,-0.3592,-0.3479,-0.3498,-0.3504,-0.3556,-0.3674,-0.4033,-0.433,-0.4569,-0.475,0.0,0.0,0.0,0.0,0.0,0.0,0.0,0.0,0.0,0.0,0.0,0.0,-0.9716,-1.0079,-1.035,0.0,0.0,0.0,0.0,0.0,-1.0383,-1.062,-1.1058,-1.2298,-1.2821,-1.3201,-1.3843,-1.416,-1.4327,-1.4263,-1.4252,-1.4692,-1.6098,-1.8308,-2.0204,-2.1111,-2.0942,-2.0626,-2.042,-2.0493,-2.0577,-2.0544,-2.1273,-2.1704,-2.151,-2.3033,-2.3864,-2.3471,-2.4242,-2.4942,-2.5385,-2.5369,-2.5687,-2.6424,-2.7313,-2.8152,-2.8872,-2.9715,-3.0256,-3.0494,-3.0414,-3.0653,-3.1164,-3.0845,-3.0884,-3.1313,-3.2707,-3.3297,-3.3427,-3.5108,-3.5799,-3.5838,-3.6234,-3.6414,-3.6545,-3.7456,-3.8656,-3.9847,0.0,0.0,0.0,0.0,0.0,0.0,0.0,0.0,0.0,0.0,0.0,0.0,0.0,0.0,0.0,0.0,0.0,0.0,0.0,0.0,-0.4218,-0.4295,-0.4231,-0.4237,-0.4375,-0.4164,-0.3999,-0.3929,-0.3655,-0.3553,-0.3622,-0.377,-0.3826,-0.3816,-0.3965,-0.4267,-0.4623,-0.4623,-0.5155,0.0,0.0,0.0,0.0,0.0,0.0,0.0,0.0,0.0,0.0,0.0,0.0,0.0,0.0,0.0,0.0,-0.9723,-0.9478,-0.9329,-0.9541,-0.968,-0.9938,-1.0738,-1.1693,-1.2688,-1.3551,-1.4104,-1.4223,-1.3685,-1.3886,-1.4389,-1.5124,-1.7993,-2.0709,-2.2153,-2.098,-1.9774,-1.9504,-1.8959,-1.8888,-1.9733,-1.9834,-2.0161,-2.0985,-2.1913,-2.2534,-2.2729,-2.3544,-2.4399,-2.5245,-2.5253,-2.5488,-2.6051,-2.7122,-2.7948,-2.8517,-2.9447,-3.0032,-3.0334,-3.0227,-3.0359,-3.0685,-3.0582,-3.0653,-3.0917,-3.2307,-3.3014,-3.3324,-3.4822,-3.5571,-3.5765,-3.5791,-3.5815,-3.5954,-3.7099,-3.8355,-3.956,0.0,0.0,0.0,0.0,0.0,0.0,0.0,0.0,0.0,0.0,0.0,0.0,0.0,0.0,0.0,0.0,0.0,0.0,0.0,0.0,-0.4812,-0.4936,-0.4941,-0.4727,-0.4329,-0.418,-0.3991,-0.3714,-0.3499,-0.3493,-0.3612,-0.3862,-0.4166,-0.4443,-0.4658,-0.4835,-0.506,-0.49,-0.5222,-0.5845,0.0,0.0,0.0,0.0,0.0,0.0,0.0,0.0,0.0,0.0,0.0,0.0,0.0,0.0,-0.9303,-0.9393,-0.8937,-0.841,-0.8403,-0.8289,-0.8124,-0.787,-0.8899,-1.0612,-1.3147,-1.3401,-1.3149,-1.3219,-1.4132,-1.485,-1.4536,-1.5424,-1.6791,-1.8513,-1.8996,-1.9429,-2.012,-2.0117,-1.9939,-1.9655,-1.9688,-1.9823,-2.0074,-2.0948,-2.179,-2.2464,-2.3324,-2.4144,-2.4898,-2.4994,-2.5057,-2.5101,-2.6727,-2.7636,-2.7679,-2.9162,-2.9965,-3.0113,-3.01,-3.0599,-3.148,-3.0752,-3.0819,-3.1529,-3.1675,-3.2185,-3.3014,-3.3991,-3.4874,-3.5629,-3.5745,-3.5842,-3.6099,-3.78,-3.8482,-3.8814,0.0,0.0,0.0,0.0,0.0,0.0,0.0,0.0,0.0,0.0,0.0,0.0,0.0,0.0,0.0,0.0,0.0,0.0,0.0,-0.5101,-0.5174,-0.5301,-0.5728,-0.593,-0.5851,-0.5087,-0.4657,-0.4696,-0.4487,-0.4443,-0.4482,-0.4475,-0.4557,-0.4696,-0.4897,-0.5092,-0.5282,-0.5132,-0.5637,-0.6507,-0.703,0.0,0.0,0.0,0.0,0.0,0.0,0.0,0.0,0.0,-0.9326,-0.8945,-0.8983,-0.8828,-0.8595,-0.8318,-0.7525,-0.6761,-0.6833,-0.6629,-0.6435,-0.6759,-0.6885,-0.7694,-1.0551,-1.178,-1.2553,-1.3466,-1.3624,-1.3891,-1.4696,-1.6083,-1.7322,-1.7973,-1.8464,-1.8796,-1.9032,-1.9255,-1.9341,-1.9243,-1.9354,-1.954,-1.9726,-2.0153,-2.096,-2.2329,-2.2697,-2.3455,-2.4834,-2.4994,-2.5038,-2.5006,-2.6734,-2.7616,-2.7547,-2.9112,-2.9891,-2.9864,-2.9899,-3.0117,-3.0479,-3.0291,-3.0375,-3.0708,-3.1338,-3.2085,-3.296,-3.3824,-3.4692,-3.5483,-3.5492,-3.5508,-3.5607,-3.6279,-3.691,-3.7611,0.0,0.0,0.0,0.0,0.0,0.0,0.0,0.0,0.0,0.0,0.0,0.0,0.0,0.0,0.0,0.0,0.0,0.0,-0.5967,-0.5973,-0.6107,-0.6355,-0.6735,-0.7113,-0.7439,-0.6434,-0.593,-0.5851,-0.5631,-0.5465,-0.5427,-0.5505,-0.5492,-0.5409,-0.5869,-0.613,-0.6198,-0.6181,-0.6696,-0.7598,-0.829,-0.8729,0.0,0.0,0.0,0.0,0.0,0.0,0.0,0.0,-0.9521,-0.8953,-0.8572,-0.834,-0.8047,-0.7297,-0.6616,-0.6083,-0.5864,-0.5646,-0.5516,-0.5831,-0.5704,-0.6021,-0.8001,-0.9737,-1.1397,-1.3038,-1.2956,-1.3061,-1.4567,-1.5632,-1.6291,-1.642,-1.7384,-1.82,-1.8426,-1.8657,-1.8843,-1.8946,-1.9061,-1.925,-1.9513,-1.9801,-2.0484,-2.1738,-2.2257,-2.3015,-2.4178,-2.4634,-2.4861,-2.4828,-2.6607,-2.7514,-2.746,-2.9044,-2.9789,-2.9717,-2.9755,-2.9773,-2.9771,-2.9934,-3.0026,-3.0079,-3.0757,-3.1705,-3.2799,-3.3402,-3.4312,-3.5325,-3.5315,-3.5282,-3.5306,-3.5597,-3.6163,-3.6886,0.0,0.0,0.0,0.0,0.0,0.0,0.0,0.0,0.0,0.0,0.0,0.0,0.0,0.0,0.0,0.0,0.0,0.0,-0.7888,-0.7665,-0.7755,-0.827,-0.7941,-0.8064,-0.877,-0.8294,-0.7721,-0.7092,-0.6787,-0.6493,-0.6307,-0.6912,-0.7039,-0.6744,-0.7662,-0.8068,-0.8029,-0.814,-0.8502,-0.905,-0.953,-0.9813,0.0,0.0,0.0,0.0,0.0,0.0,0.0,0.0,-0.9788,-0.9322,-0.8392,-0.8048,-0.774,-0.647,-0.6479,-0.6651,-0.5667,-0.5468,-0.5455,-0.4913,-0.5387,-0.5928,-0.5726,-0.7348,-0.9523,-1.1735,-1.2205,-1.2647,-1.4012,-1.3426,-1.2887,-1.3257,-1.5528,-1.7614,-1.8653,-1.8665,-1.8658,-1.8858,-1.8842,-1.8945,-1.935,-1.9997,-2.0462,-2.0594,-2.2076,-2.2942,-2.2811,-2.375,-2.4353,-2.4476,-2.6249,-2.7264,-2.7384,-2.8906,-2.9681,-2.9699,-2.9701,-2.9701,-2.9717,-2.9771,-2.9842,-2.9895,-2.9895,-3.0856,-3.2424,-3.2626,-3.3704,-3.5196,-3.5268,-3.5254,-3.5311,-3.6246,-3.662,-3.6781,0.0,0.0,0.0,0.0,0.0,0.0,0.0,0.0,0.0,0.0,0.0,0.0,0.0,0.0,0.0,0.0,0.0,0.0,-0.7694,-0.7999,-0.8199,-0.8227,-0.871,-0.9038,-0.9143,-0.9422,-0.8995,-0.7893,-0.7597,-0.748,-0.7473,-0.7344,-0.7503,-0.7946,-0.7851,-0.8114,-0.8624,-0.8269,-0.8385,-0.8838,-0.9554,-0.992,0.0,0.0,0.0,0.0,0.0,0.0,0.0,0.0,0.0,0.0,-0.8342,-0.7794,-0.6952,-0.5852,-0.5717,-0.5644,-0.4402,-0.3964,-0.3815,-0.3634,-0.3673,-0.3829,-0.4086,-0.6348,-0.8888,-1.0571,-1.2141,-1.3038,-1.2624,-1.4326,-1.5501,-1.4642,-1.5117,-1.6117,-1.7535,-1.7844,-1.801,-1.8301,-1.8531,-1.8698,-1.8824,-1.9703,-2.0533,-2.1168,-2.2283,-2.2923,-2.2868,-2.3804,-2.4111,-2.3535,-2.5743,-2.6916,-2.6916,-2.8339,-2.9172,-2.9355,-2.9353,-2.9472,-2.9701,-2.9773,-2.9808,-2.9825,-2.9874,-3.0856,-3.2485,-3.362,-3.4358,-3.4774,-3.4755,-3.4755,-3.4812,-3.5039,-3.5248,-3.5541,0.0,0.0,0.0,0.0,0.0,0.0,0.0,0.0,0.0,0.0,0.0,0.0,0.0,0.0,0.0,0.0,0.0,0.0,0.0,-0.9014,-0.9268,-0.9236,-0.9626,-0.9799,-0.9767,-1.0237,-1.0046,-0.9171,-0.8721,-0.8464,-0.8341,-0.8123,-0.8262,-0.8754,-0.8702,-0.9042,-0.9593,-0.9462,-0.9584,-0.9863,-1.0495,-1.0853,-1.1064,0.0,0.0,0.0,0.0,0.0,0.0,0.0,0.0,0.0,-0.8311,-0.7757,-0.6991,-0.6201,-0.5388,-0.4503,-0.3471,-0.3368,-0.3525,-0.3284,-0.3259,-0.3494,-0.4151,-0.6055,-0.8142,-0.9793,-1.1175,-1.2054,-1.1845,-1.3646,-1.5256,-1.5583,-1.5436,-1.5766,-1.7254,-1.7492,-1.767,-1.8082,-1.8266,-1.8408,-1.8506,-1.9294,-2.011,-2.0842,-2.1675,-2.233,-2.2754,-2.3401,-2.3675,-2.3455,-2.5539,-2.6646,-2.6587,-2.8036,-2.8837,-2.8997,-2.8997,-2.9188,-2.9511,-2.9682,-2.979,-2.988,-3.0574,-3.1579,-3.2844,-3.4141,-3.4602,-3.4517,-3.4517,-3.4495,-3.4495,-3.4495,-3.4626,-3.4848,0.0,0.0,0.0,0.0,0.0,0.0,0.0,0.0,0.0,0.0,0.0,0.0,0.0,0.0,0.0,0.0,0.0,0.0,0.0,0.0,-1.0579,-1.076,-1.0467,-1.0394,-1.0498,-1.0743,-1.0786,-1.0595,-0.995,-0.9435,-0.9037,-0.9127,-0.9194,-0.9327,-0.9938,-1.0432,-1.0796,-1.1213,-1.1437,-1.1542,-1.1871,-1.2197,-1.2453,-1.2205,0.0,0.0,0.0,0.0,0.0,0.0,0.0,0.0,-0.8245,-0.7849,-0.7465,-0.6947,-0.5442,-0.3771,-0.2932,-0.3485,-0.4155,-0.3554,-0.3718,-0.4227,-0.5063,-0.5982,-0.7196,-0.9088,-0.9751,-1.0347,-1.1529,-1.1976,-1.3068,-1.581,-1.5908,-1.6038,-1.7375,-1.7429,-1.7524,-1.8091,-1.8065,-1.807,-1.8304,-1.8858,-1.9439,-2.0036,-2.0708,-2.1557,-2.2538,-2.2715,-2.3121,-2.3848,-2.5481,-2.6322,-2.633,-2.7851,-2.8628,-2.8634,-2.8634,-2.8819,-2.9166,-2.9511,-2.9793,-3.0084,-3.1617,-3.2675,-3.336,-3.4223,-3.4495,-3.4404,-3.445,-3.4386,-3.4316,-3.445,-3.4517,-3.4583,0.0,0.0,0.0,0.0,0.0,0.0,0.0,0.0,0.0,0.0,0.0,0.0,0.0,0.0,0.0,0.0,0.0,0.0,0.0,0.0,-1.0403,-1.0573,-1.0495,-1.0469,-1.0495,-1.0599,-1.0586,-1.043,-1.0193,-1.0047,-1.0004,-0.9757,-1.0076,-1.0808,-1.039,-1.0647,-1.1401,-1.141,-1.147,-1.1613,-1.1932,-1.217,-1.2268,-1.1703,-1.1424,0.0,0.0,0.0,0.0,0.0,0.0,0.0,-0.7934,-0.7249,-0.6349,-0.5452,-0.5895,-0.6078,-0.3353,-0.3446,-0.4156,-0.3543,-0.3401,-0.3384,-0.3385,-0.4158,-0.5422,-0.7409,-0.926,-1.0692,-1.1234,-1.1628,-1.2293,-1.3572,-1.3895,-1.4584,-1.6207,-1.6588,-1.6969,-1.771,-1.7794,-1.7794,-1.7844,-1.8665,-1.9577,-2.0481,-2.1409,-2.2132,-2.2594,-2.2692,-2.2727,-2.2728,-2.4257,-2.5321,-2.5775,-2.7308,-2.8156,-2.8316,-2.8316,-2.8478,-2.8819,-2.9212,-2.9926,-3.0879,-3.177,-3.2594,-3.336,-3.4072,-3.4316,-3.4245,-3.4269,-3.4269,-3.4293,-3.434,-3.4404,-3.445,0.0,0.0,0.0,0.0,0.0,0.0,0.0,0.0,0.0,0.0,0.0,0.0,0.0,0.0,0.0,0.0,0.0,0.0,0.0,-1.0582,-1.0838,-1.0409,-1.0637,-1.0617,-1.0224,-1.0508,-1.0632,-1.0597,-1.0447,-1.0274,-1.0067,-0.9711,-0.996,-1.0613,-1.0328,-1.0654,-1.1472,-1.1599,-1.171,-1.1788,-1.1763,-1.1854,-1.1939,-1.1788,-1.1597,-1.1361,-1.0995,0.0,0.0,0.0,0.0,0.0,0.0,0.0,-0.5956,-0.4899,-0.5284,-0.5612,-0.357,-0.3401,-0.3716,-0.3468,-0.3278,-0.3169,-0.321,-0.342,-0.4042,-0.5709,-0.7625,-0.9309,-1.0382,-1.108,-1.1844,-1.2847,-1.3277,-1.405,-1.5647,-1.6371,-1.6905,-1.7344,-1.7618,-1.7726,-1.7658,-1.8132,-1.8847,-1.9864,-2.0013,-2.0758,-2.2339,-2.2114,-2.2257,-2.3009,-2.4379,-2.5248,-2.55,-2.6981,-2.7766,-2.7858,-2.7926,-2.8129,-2.8478,-2.8997,-2.9943,-3.1182,-3.1755,-3.2549,-3.3481,-3.4035,-3.4221,-3.4197,-3.4245,-3.4269,-3.4293,-3.4363,-3.4427,-3.4473,0.0,0.0,0.0,0.0,0.0,0.0,0.0,0.0,0.0,0.0,0.0,0.0,0.0,0.0,0.0,0.0,0.0,0.0,0.0,-1.0925,-1.1266,-1.0369,-1.0883,-1.0878,-1.0211,-1.0574,-1.0801,-1.0873,-1.0705,-1.0358,-0.9831,-0.9598,-0.9687,-1.0072,-1.013,-1.0535,-1.1197,-1.1638,-1.1805,-1.1728,-1.1766,-1.177,-1.181,-1.2178,-1.2079,-1.1721,-1.1611,-1.0935,-0.9972,-0.9177,0.0,0.0,0.0,0.0,-0.6041,-0.5088,-0.4658,-0.4367,-0.3749,-0.3389,-0.3251,-0.333,-0.3245,-0.3196,-0.3521,-0.3308,-0.3378,-0.448,-0.5858,-0.7422,-0.919,-1.0197,-1.1195,-1.25,-1.3079,-1.3834,-1.5214,-1.6196,-1.6865,-1.7093,-1.7432,-1.7635,-1.7589,-1.7589,-1.799,-1.9024,-1.8433,-1.9171,-2.1799,-2.1341,-2.1726,-2.3338,-2.4644,-2.5323,-2.5355,-2.6789,-2.7496,-2.7496,-2.763,-2.7829,-2.8147,-2.8822,-2.9868,-3.1177,-3.1653,-3.2515,-3.3634,-3.3961,-3.4148,-3.4197,-3.4269,-3.4293,-3.4316,-3.445,-3.4495,-3.4495,0.0,0.0,0.0,0.0,0.0,0.0,0.0,0.0,0.0,0.0,-0.929,-0.9666,-0.916,-0.94,0.0,0.0,0.0,0.0,-0.8974,0.0,0.0,-1.0403,-1.1133,-1.1483,-1.1395,-1.1227,-1.1132,-1.1155,-1.0825,-1.0433,-0.9971,-1.016,-1.0436,-1.075,-1.0254,-1.0241,-1.066,-1.1289,-1.1187,-1.0765,-1.2587,-1.2972,-1.2491,-1.2732,-1.2768,-1.262,-1.1989,-1.1035,-1.0064,-0.9825,-0.8987,0.0,0.0,0.0,-0.663,-0.6195,-0.532,-0.4409,-0.397,-0.3574,-0.3281,-0.3227,-0.3202,-0.3165,-0.3101,-0.3612,-0.421,-0.4625,-0.5386,-0.636,-0.7674,-0.8521,-0.959,-1.1273,-1.2241,-1.3234,-1.4483,-1.5417,-1.6258,-1.701,-1.7101,-1.7216,-1.7489,-1.7512,-1.7937,-1.9007,-1.899,-1.9493,-2.0828,-2.0645,-2.0993,-2.2113,-2.3423,-2.4475,-2.5216,-2.673,-2.7496,-2.7496,-2.7587,-2.7689,-2.7893,-2.8558,-2.9622,-3.0965,-3.15,-3.2456,-3.3697,-3.3688,-3.3884,-3.4197,-3.4269,-3.4293,-3.4316,-3.4404,-3.4409,-3.4409,0.0,0.0,0.0,0.0,0.0,0.0,0.0,0.0,0.0,0.0,0.0,-0.9316,-0.906,-0.918,0.0,0.0,0.0,0.0,-1.0005,-1.0681,0.0,-1.0473,-1.1157,-1.1388,-1.1061,-1.0843,-1.0742,-1.069,-1.0018,-0.963,-0.9495,-0.973,-1.01,-1.0581,-1.0593,-1.0932,-1.1475,-1.2106,-1.2253,-1.2139,-1.2766,-1.3159,-1.3311,-1.3118,-1.3375,-1.3682,-1.2798,-1.2196,-1.1687,-1.0679,-0.9823,-0.906,-0.8435,0.0,0.0,0.0,-0.5606,-0.4475,-0.3535,-0.4107,-0.4724,-0.364,-0.3801,-0.4082,-0.3564,-0.3904,-0.4428,-0.4828,-0.5175,-0.5922,-0.7615,-0.8569,-0.9517,-1.0753,-1.1943,-1.2952,-1.372,-1.5007,-1.5978,-1.6336,-1.6783,-1.7076,-1.7167,-1.7377,-1.7693,-1.8168,-1.8202,-1.8833,-2.022,-2.0191,-2.0771,-2.221,-2.3283,-2.4206,-2.4982,-2.6278,-2.7163,-2.763,-2.7587,-2.7569,-2.7665,-2.8647,-2.9519,-3.0332,-3.1255,-3.2133,-3.296,-3.3421,-3.3688,-3.3891,-3.4179,-3.4293,-3.4316,-3.4427,-3.4473,-3.4473,0.0,0.0,0.0,0.0,0.0,0.0,0.0,0.0,0.0,0.0,0.0,0.0,-0.895,0.0,0.0,0.0,0.0,0.0,-1.0573,0.0,0.0,0.0,0.0,-1.1478,-1.0944,-1.0952,-1.0775,-1.039,-0.9625,-0.9194,-0.9085,-0.9263,-0.9639,-1.0163,-1.0443,-1.0973,-1.1702,-1.2193,-1.2456,-1.2571,-1.311,-1.3489,-1.3792,-1.4169,-1.4712,-1.5142,-1.415,-1.3695,-1.3302,-1.1777,-1.0736,-1.0022,-0.9544,-0.9278,0.0,0.0,0.0,-0.47,-0.3918,-0.476,-0.5533,-0.4141,-0.4335,-0.4703,-0.4037,-0.4272,-0.4762,-0.5181,-0.5485,-0.6161,-0.7817,-0.8627,-0.9424,-1.054,-1.1853,-1.283,-1.3231,-1.4693,-1.5767,-1.5811,-1.6363,-1.6809,-1.6885,-1.7167,-1.7436,-1.7715,-1.7732,-1.836,-1.9773,-1.9973,-2.0666,-2.2044,-2.3033,-2.392,-2.4684,-2.5974,-2.6946,-2.7552,-2.7509,-2.7465,-2.7487,-2.8576,-2.9299,-2.9777,-3.0984,-3.1788,-3.2299,-3.3009,-3.3411,-3.3634,-3.4055,-3.4245,-3.4316,-3.4427,-3.4473,-3.4495,0.0,0.0,0.0,0.0,0.0,0.0,0.0,0.0,0.0,0.0,0.0,0.0,-0.9111,-0.8817,-0.8484,-0.8127,0.0,0.0,0.0,0.0,0.0,0.0,0.0,0.0,-1.1826,-1.2259,-1.1847,-1.0578,-1.0339,-0.9805,-0.9017,-0.915,-0.9398,-0.9713,-0.9292,-0.9514,-1.0231,-1.0639,-1.0536,-1.0386,-1.3937,-1.4533,-1.3625,-1.6327,-1.7348,-1.7226,-1.6355,-1.5338,-1.426,-1.3148,-1.1711,-1.0508,-1.1282,-1.0123,-0.8724,0.0,0.0,0.0,-0.5941,-0.5408,-0.4673,-0.4642,-0.4573,-0.444,-0.4165,-0.484,-0.5583,-0.5731,-0.6511,-0.7347,-0.7834,-0.7994,-0.8677,-1.05,-1.1866,-1.283,-1.3231,-1.4456,-1.5448,-1.5754,-1.5824,-1.6133,-1.6834,-1.691,-1.7319,-1.8266,-1.8358,-1.8687,-1.9372,-2.0037,-2.0574,-2.0982,-2.2202,-2.3362,-2.4411,-2.6124,-2.7021,-2.7117,-2.7386,-2.7421,-2.7348,-2.8092,-2.8784,-2.9488,-3.0765,-3.1625,-3.2144,-3.2368,-3.2916,-3.3625,-3.3823,-3.4074,-3.4316,-3.4363,-3.4404,-3.4409,0.0,0.0,0.0,0.0,0.0,0.0,0.0,0.0,0.0,0.0,0.0,0.0,0.0,-0.8973,-0.8757,-0.8501,-0.9015,0.0,0.0,0.0,0.0,0.0,0.0,0.0,-1.2933,-1.2599,-1.2025,-1.1234,-1.0571,-1.0042,-0.9715,-0.9891,-0.9954,-0.997,-1.0283,-1.0679,-1.1167,-1.189,-1.2315,-1.2706,-1.4648,-1.5621,-1.5984,-1.654,-1.7783,-1.8969,-1.6929,-1.6651,-1.6926,-1.468,-1.3531,-1.2971,-1.259,-1.2276,-1.2044,-1.2009,-0.9459,-0.6739,-0.719,-0.6614,-0.594,-0.6136,-0.6137,-0.5871,-0.4996,-0.6032,-0.6961,-0.6277,-0.6859,-0.7594,-0.786,-0.7945,-0.842,-0.9688,-1.0924,-1.2016,-1.2816,-1.4009,-1.4966,-1.5433,-1.5682,-1.5909,-1.6188,-1.6628,-1.7233,-1.8028,-1.8277,-1.888,-1.9992,-2.029,-2.0616,-2.1131,-2.179,-2.2831,-2.4377,-2.5407,-2.6282,-2.7051,-2.7036,-2.7198,-2.7473,-2.8574,-2.9231,-2.9541,-3.0871,-3.1542,-3.1787,-3.2248,-3.2601,-3.3001,-3.3332,-3.3662,-3.3998,-3.4049,-3.4197,-3.434,0.0,0.0,0.0,0.0,0.0,0.0,0.0,0.0,-1.0317,-0.9814,0.0,0.0,0.0,0.0,-0.9863,-0.9683,-1.0388,-1.1186,-1.199,-1.2046,0.0,0.0,0.0,0.0,-1.3829,-1.3584,-1.2905,-1.1841,-1.1209,-1.0773,-1.0509,-1.0629,-1.0662,-1.0604,-1.1346,-1.1744,-1.1843,-1.2506,-1.3154,-1.3853,-1.5727,-1.6687,-1.7076,-1.7797,-1.8968,-1.9977,-1.8173,-1.8244,-1.8838,-1.6661,-1.5605,-1.5022,-1.4042,-1.3918,-1.3984,-1.3182,-1.089,-0.8668,-0.8732,-0.8077,-0.74,-0.7376,-0.7343,-0.7091,-0.6307,-0.721,-0.8039,-0.7448,-0.7734,-0.8158,-0.8348,-0.8359,-0.8598,-0.9433,-1.0479,-1.152,-1.2494,-1.3714,-1.4627,-1.5011,-1.5549,-1.5936,-1.6054,-1.6668,-1.7471,-1.8413,-1.8704,-1.9378,-2.0624,-2.0689,-2.087,-2.1214,-2.1691,-2.2514,-2.3742,-2.4647,-2.5547,-2.64,-2.6704,-2.6971,-2.7296,-2.838,-2.9124,-2.9592,-3.0486,-3.1133,-3.1617,-3.202,-3.2352,-3.2639,-3.2908,-3.3273,-3.3652,-3.3689,-3.3823,-3.3961,0.0,0.0,0.0,0.0,0.0,0.0,0.0,0.0,-1.1515,-1.1172,0.0,0.0,0.0,0.0,0.0,-1.1617,-1.2655,-1.2895,-1.1906,-1.2781,0.0,0.0,0.0,0.0,-1.4577,-1.5333,-1.4646,-1.2439,-1.243,-1.2095,-1.1453,-1.1446,-1.1505,-1.1642,-1.2434,-1.2526,-1.2117,-1.2341,-1.272,-1.3466,-1.7112,-1.7653,-1.6699,-2.0222,-2.1054,-2.0308,-2.0258,-2.0123,-1.9855,-1.9062,-1.7844,-1.6522,-1.5671,-1.486,-1.4129,-1.3577,-1.2249,-1.091,0.0,0.0,0.0,-0.8332,-0.8077,-0.7986,-0.8002,-0.8375,-0.8838,-0.9268,-0.9268,-0.9197,-0.9301,-0.9157,-0.9215,-0.9848,-1.0594,-1.1437,-1.2374,-1.3632,-1.4501,-1.4529,-1.5471,-1.6242,-1.6589,-1.709,-1.8022,-1.9563,-1.9673,-2.0146,-2.1245,-2.1294,-2.1214,-2.1103,-2.1891,-2.2394,-2.2492,-2.3911,-2.482,-2.5179,-2.6318,-2.6839,-2.6808,-2.7373,-2.8331,-2.9574,-2.9608,-3.0368,-3.16,-3.1746,-3.2091,-3.2588,-3.2654,-3.2939,-3.3291,-3.3291,-3.3291,-3.3321,0.0,0.0,0.0,0.0,0.0,-1.4826,-1.4085,-1.4253,-1.4289,0.0,0.0,0.0,-1.264,-1.2281,-1.2037,-1.1899,-1.275,-1.3887,-1.5288,-1.4441,-1.4268,-1.5146,-1.6345,-1.6717,-1.609,-1.6304,-1.6083,-1.5419,-1.5355,-1.5236,-1.5072,-1.5055,-1.4729,-1.4185,-1.4508,-1.4585,-1.4407,-1.3511,-1.3696,-1.4816,-1.7161,-1.8315,-1.8841,-2.0532,-2.1818,-2.2571,-2.1361,-2.1397,-2.1876,-2.1118,-1.9682,-1.785,-1.5998,-1.5103,-1.4659,-1.4137,-1.3433,-1.2766,-1.2382,0.0,0.0,0.0,0.0,0.0,-0.8566,-0.9848,-1.0788,-0.9107,-0.9621,-1.0293,-0.9862,-0.9699,-0.9862,-1.0697,-1.0943,-1.1435,-1.2627,-1.3523,-1.4433,-1.5398,-1.6045,-1.6574,-1.6979,-1.7385,-1.8052,-1.9061,-1.9109,-1.965,-2.0878,-2.1087,-2.1071,-2.0974,-2.1198,-2.1583,-2.2144,-2.2971,-2.391,-2.4906,-2.5686,-2.6333,-2.6889,-2.7519,-2.8199,-2.8864,-2.9937,-3.061,-3.0988,-3.1576,-3.1965,-3.2249,-3.2266,-3.2537,-3.2939,-3.2939,-3.3093,-3.3321,0.0,0.0,0.0,-1.5595,-1.5976,-1.6375,-1.5972,-1.6258,-1.6275,0.0,0.0,0.0,-1.474,-1.3995,-1.3462,-1.3167,-1.374,-1.4651,-1.5892,-1.524,-1.5089,-1.5728,-1.665,-1.7263,-1.7485,-1.7688,-1.7342,-1.647,-1.6572,-1.6581,-1.6496,-1.6553,-1.6309,-1.5829,-1.5969,-1.5853,-1.5537,-1.5091,-1.5233,-1.5974,-1.8274,-1.9283,-1.9624,-2.1224,-2.2294,-2.2862,-2.2199,-2.2395,-2.2929,-2.262,-2.1158,-1.919,-1.7831,-1.6672,-1.5746,-1.5337,-1.5134,-1.4932,-1.4328,-1.3684,-1.3052,-1.2555,0.0,0.0,-1.1135,-1.1665,-1.2005,-1.1108,-1.1307,-1.1595,-1.1469,-1.148,-1.1768,-1.2532,-1.283,-1.3062,-1.336,-1.4373,-1.5344,-1.6098,-1.6799,-1.7301,-1.7528,-1.8056,-1.8701,-1.9409,-1.9465,-1.9847,-2.0795,-2.0941,-2.099,-2.0893,-2.0861,-2.1017,-2.1376,-2.2319,-2.3179,-2.3922,-2.5123,-2.5872,-2.6248,-2.6856,-2.7452,-2.8135,-2.9259,-3.0067,-3.0678,-3.1379,-3.1819,-3.202,-3.2073,-3.2283,-3.2537,-3.2537,-3.2669,-3.283,0.0,0.0,-1.8557,-1.8235,-1.7711,-1.7411,-1.7656,-1.7941,-1.7792,0.0,-1.757,-1.7808,-1.6846,-1.6037,-1.5334,-1.4732,-1.5152,-1.5242,-1.4773,-1.5465,-1.585,-1.5778,-1.5967,-1.6801,-1.8424,-1.8931,-1.8306,-1.6553,-1.6889,-1.6952,-1.6786,-1.6926,-1.6934,-1.6888,-1.698,-1.6617,-1.5985,-1.6727,-1.697,-1.7096,-1.9768,-2.0298,-1.9737,-2.21,-2.2644,-2.2238,-2.2862,-2.3128,-2.3221,-2.3567,-2.2499,-2.1025,-2.0867,-1.9491,-1.783,-1.7188,-1.7263,-1.7345,-1.6263,-1.6037,-1.5853,-1.4761,-1.3873,0.0,-1.4457,-1.3584,-1.2925,-1.3924,-1.3493,-1.3042,-1.3385,-1.3752,-1.411,-1.4538,-1.5395,-1.5578,-1.45,-1.5728,-1.6711,-1.6747,-1.7697,-1.8295,-1.8151,-1.9034,-1.9772,-2.0226,-2.0259,-2.0407,-2.0789,-2.0794,-2.0828,-2.0877,-2.0794,-2.0693,-2.0637,-2.1895,-2.2602,-2.2791,-2.4628,-2.5443,-2.5319,-2.5786,-2.6509,-2.7444,-2.8176,-2.9191,-3.0379,-3.1158,-3.1634,-3.1894,-3.202,-3.2108,-3.2179,-3.2179,-3.2179,-3.2179,0.0,-2.1554,-2.1033,-1.9548,-2.0041,-2.0134,-1.8551,-1.9411,-1.9875,-1.8947,-1.8672,-1.8457,-1.8146,-1.6893,-1.5633,-1.4532,-1.5684,-1.5848,-1.4487,-1.558,-1.6274,-1.6249,-1.5991,-1.6377,-1.7462,-1.8076,-1.8329,-1.8141,-1.8395,-1.8538,-1.8603,-1.8677,-1.845,-1.7991,-1.7846,-1.7405,-1.6788,-1.7155,-1.778,-1.8605,-1.9495,-2.0433,-2.1402,-2.2492,-2.3218,-2.3677,-2.3656,-2.3364,-2.3082,-2.3365,-2.4446,-2.557,-2.4851,-2.428,-2.3251,-2.0298,-1.9964,-2.0022,-1.7599,-1.7209,-1.7231,-1.6046,-1.5722,0.0,-1.4519,-1.4803,-1.4852,-1.3474,-1.3797,-1.4074,-1.3404,-1.3864,-1.4314,-1.417,-1.6163,-1.7249,-1.5973,-1.6382,-1.7,-1.7562,-1.8687,-1.9279,-1.8912,-2.0074,-2.0651,-2.0088,-2.0279,-2.0413,-2.0272,-2.0269,-2.041,-2.0744,-2.0509,-2.0724,-2.1393,-2.1929,-2.257,-2.3266,-2.4048,-2.4744,-2.5406,-2.5631,-2.6115,-2.6842,-2.8349,-2.9134,-2.9462,-3.0747,-3.1521,-3.1894,-3.1948,-3.2055,-3.2179,-3.202,-3.202,-3.2126,-2.2172,-2.2257,-2.1795,-2.0508,-2.084,-2.0741,-1.9226,-1.9969,-2.0256,-1.8952,-1.8376,-1.7967,-1.7608,-1.661,-1.5774,-1.5142,-1.5449,-1.5797,-1.6091,-1.5618,-1.5361,-1.5344,-1.5154,-1.5485,-1.6416,-1.7631,-1.8196,-1.8059,-1.8816,-1.9235,-1.9326,-1.9612,-1.9883,-2.0097,-1.93,-1.8912,-1.8832,-1.861,-1.8579,-1.8781,-1.983,-2.1072,-2.2361,-2.2812,-2.343,-2.3949,-2.3563,-2.3446,-2.3529,-2.4099,-2.458,-2.5166,-2.6676,-2.5859,-2.4135,-2.3019,-2.2737,-2.2264,-1.9818,-1.969,-1.9795,-1.7912,-1.7557,0.0,0.0,-1.6039,-1.5776,-1.5301,-1.5364,-1.5418,-1.5005,-1.5427,-1.5819,-1.5916,-1.7276,-1.8042,-1.7253,-1.8187,-1.9075,-1.9513,-2.0064,-2.0386,-2.0177,-2.093,-2.1182,-2.074,-2.0934,-2.0939,-2.0655,-2.0347,-2.0399,-2.0879,-2.0237,-2.0358,-2.1402,-2.1728,-2.2337,-2.3222,-2.3882,-2.4313,-2.4623,-2.4799,-2.5044,-2.5497,-2.7339,-2.8307,-2.8783,-3.0409,-3.1252,-3.1542,-3.16,-3.1765,-3.1965,-3.1765,-3.1839,-3.1948,-2.2262,-2.2329,-2.2025,-2.1224,-2.101,-2.0622,-1.9663,-2.0047,-1.9915,-1.8346,-1.7765,-1.7261,-1.6721,-1.6278,-1.6046,-1.5997,-1.5514,-1.5856,-1.741,-1.5894,-1.4756,-1.4332,-1.452,-1.5077,-1.5935,-1.7547,-1.8144,-1.765,-1.8784,-1.935,-1.9409,-1.9833,-2.0567,-2.1488,-2.0504,-2.0118,-2.0146,-1.9823,-1.9397,-1.9026,-2.0442,-2.1559,-2.2393,-2.2681,-2.3158,-2.3668,-2.3328,-2.3474,-2.3935,-2.447,-2.4061,-2.3827,-2.6689,-2.6083,-2.4439,-2.4967,-2.4922,-2.4249,-2.2049,-2.1944,-2.1962,-1.9767,-1.946,-1.9431,0.0,0.0,0.0,-1.7404,-1.7117,-1.6723,-1.6576,-1.6857,-1.7254,-1.7548,-1.811,-1.8478,-1.8358,-1.9929,-2.1039,-2.0845,-2.1351,-2.1557,-2.1114,-2.1384,-2.1551,-2.1561,-2.152,-2.1427,-2.126,-2.0659,-2.0542,-2.1012,-2.0114,-2.0182,-2.138,-2.1613,-2.2214,-2.3137,-2.3808,-2.4051,-2.3867,-2.3994,-2.4173,-2.4558,-2.6255,-2.7486,-2.839,-3.0005,-3.0818,-3.1072,-3.1235,-3.1466,-3.1726,-3.1521,-3.1617,-3.1802,-2.3244,-2.313,-2.2594,-2.1616,-2.1248,-2.0736,-1.973,-1.981,-1.9506,-1.819,-1.7705,-1.7352,-1.6909,-1.6918,-1.6858,-1.6613,-1.7039,-1.7036,-1.6262,-1.6853,-1.6336,-1.4384,-1.5316,-1.6201,-1.6831,-1.8039,-1.8515,-1.8191,-1.8537,-1.8826,-1.9046,-1.9058,-1.934,-1.9898,-2.0448,-1.9817,-1.8392,-1.9553,-2.0331,-2.0849,-2.1265,-2.1196,-2.0888,-2.1409,-2.2197,-2.3082,-2.3469,-2.3673,-2.3595,-2.2887,-2.382,-2.5122,-2.4189,-2.5996,-2.7903,-2.5207,-2.546,-2.6014,-2.341,-2.2396,-2.1862,-2.0961,-2.1486,-2.1512,-1.8906,0.0,-1.8195,-1.7906,0.0,-1.7579,-1.6232,0.0,0.0,-1.6647,-1.79,-1.9,-1.9132,-2.0327,-2.0743,-1.9574,-2.1894,-2.278,-2.0798,-2.1081,-2.1631,-2.2076,-2.1566,-2.1274,-2.138,-2.0756,-2.0513,-2.0806,-2.054,-2.0881,-2.1999,-2.1901,-2.2408,-2.3533,-2.3595,-2.3754,-2.4078,-2.4142,-2.4617,-2.5422,-2.6345,-2.741,-2.8636,-2.9409,-3.0085,-3.0609,-3.1072,-3.1329,-3.1521,-3.1308,-3.1346,-3.1517,-2.3188,-2.3088,-2.2513,-2.1361,-2.1075,-2.059,-1.9401,-1.8737,-1.8157,-1.753,-1.6883,-1.643,-1.6206,-1.6032,-1.6091,-1.6478,-1.6869,-1.6932,-1.6499,-1.7043,-1.6752,-1.5354,-1.6324,-1.6761,-1.6418,-1.8535,-1.909,-1.8003,-1.8996,-1.9572,-1.9767,-1.9799,-2.0411,-2.145,-2.1354,-2.1263,-2.118,-2.1193,-2.1191,-2.1213,-2.1606,-2.1409,-2.1015,-2.2631,-2.3301,-2.3355,-2.3301,-2.3424,-2.3664,-2.3757,-2.3923,-2.4373,-2.5974,-2.6521,-2.6522,-2.6475,-2.6617,-2.6295,-2.4023,-2.3716,-2.3488,-2.1227,-2.242,-2.3311,-2.0026,-2.007,-2.0596,-1.9837,0.0,0.0,0.0,0.0,0.0,0.0,-1.8735,-1.924,-1.9099,-2.0161,-2.0957,-2.0895,-2.207,-2.2516,-2.1639,-2.2351,-2.2953,-2.3148,-2.2432,-2.2164,-2.2666,-2.1397,-2.0796,-2.1038,-2.0418,-2.064,-2.1787,-2.1398,-2.1883,-2.3167,-2.3071,-2.3281,-2.3754,-2.3837,-2.4158,-2.4759,-2.5879,-2.6999,-2.8178,-2.9191,-2.9962,-3.0526,-3.0733,-3.0958,-3.1213,-3.1072,-3.1173,-3.1368,-2.2712,-2.2582,-2.2096,-2.1101,-2.0684,-2.0078,-1.8921,-1.7921,-1.7229,-1.7089,-1.6461,-1.6041,-1.5918,-1.5892,-1.6114,-1.6869,-1.7287,-1.763,-1.7823,-1.7812,-1.7637,-1.7127,-1.7357,-1.7633,-1.7855,-1.9011,-1.9266,-1.8499,-1.9409,-2.0015,-2.0296,-2.041,-2.1065,-2.2118,-2.1883,-2.2197,-2.2849,-2.2248,-2.2053,-2.2066,-2.1993,-2.2152,-2.2572,-2.3943,-2.4147,-2.3687,-2.3443,-2.3475,-2.3664,-2.4006,-2.381,-2.3928,-2.6737,-2.6664,-2.5857,-2.7536,-2.7696,-2.6961,-2.5247,-2.5154,-2.4958,-2.2462,-2.3637,-2.4714,-2.2115,-2.167,-2.1816,-2.1984,-2.1804,0.0,0.0,0.0,-2.0121,-1.969,0.0,-1.9779,-1.9593,-2.0401,-2.1086,-2.1312,-2.1667,-2.2194,-2.2914,-2.3422,-2.3846,-2.4097,-2.3544,-2.3343,-2.3607,-2.2287,-2.1423,-2.1166,-2.0395,-2.057,-2.1753,-2.1253,-2.17,-2.3073,-2.3005,-2.3133,-2.3538,-2.3566,-2.3852,-2.441,-2.5368,-2.6583,-2.8003,-2.8936,-2.9779,-3.0526,-3.0526,-3.0651,-3.0912,-3.1234,-3.1523,-3.1735,-2.1869,-2.1628,-2.1368,-2.1055,-2.0139,-1.9213,-1.8422,-1.772,-1.7284,-1.7199,-1.6929,-1.6708,-1.6524,-1.7201,-1.7873,-1.8216,-1.9124,-1.9946,-2.0423,-1.9812,-1.96,-1.9949,-1.846,-1.9155,-2.251,-1.957,-1.8721,-2.022,-1.9634,-1.9639,-2.0208,-2.0289,-2.0373,-2.054,-2.1539,-2.1752,-2.1394,-2.1909,-2.2941,-2.416,-2.256,-2.357,-2.5878,-2.4595,-2.3981,-2.3851,-2.4139,-2.4014,-2.3523,-2.2465,-2.3188,-2.4559,-2.4629,-2.6007,-2.7657,-2.8008,-2.8501,-2.8689,-2.758,-2.6512,-2.5661,-2.5554,-2.5566,-2.5554,-2.5441,-2.2699,-2.101,-2.3973,-2.5865,-2.5685,-2.1533,-2.1712,-2.2104,-2.0859,-2.0705,0.0,0.0,-2.1353,-2.0979,-1.9673,-2.0652,-2.2271,-2.4417,-2.3881,-2.3732,-2.4522,-2.4826,-2.4597,-2.3669,-2.3311,-2.2471,-2.1059,-2.0733,-2.1037,-2.2053,-2.181,-2.2321,-2.3565,-2.3565,-2.358,-2.3595,-2.3538,-2.4063,-2.4965,-2.4958,-2.6283,-2.8472,-2.8505,-2.9314,-3.0526,-3.0526,-3.0526,-3.0676,-3.2038,-3.2625,-3.2938,-2.1448,-2.1198,-2.0893,-2.0532,-2.0035,-1.9369,-1.8422,-1.7612,-1.7206,-1.7553,-1.7032,-1.6797,-1.7051,-1.7227,-1.7745,-1.8703,-1.951,-2.0086,-2.0358,-2.0759,-2.0474,-1.9359,-1.9884,-1.9913,-1.911,-1.8591,-1.863,-1.9315,-1.9794,-2.0246,-2.0663,-2.0289,-2.0407,-2.0957,-2.1741,-2.23,-2.271,-2.2957,-2.3594,-2.4362,-2.3738,-2.422,-2.5324,-2.5058,-2.4713,-2.4323,-2.4161,-2.3876,-2.3522,-2.3279,-2.3724,-2.4552,-2.5362,-2.578,-2.6136,-2.6938,-2.6912,-2.6389,-2.5308,-2.4739,-2.4629,-2.5428,-2.5615,-2.56,-2.5593,-2.4641,-2.3948,-2.4732,-2.6129,-2.6654,-2.4829,-2.3521,-2.2777,-2.293,-2.3022,-2.3012,0.0,-2.2045,-2.1403,-2.1151,-2.1344,-2.1714,-2.2176,-2.302,-2.3936,-2.4922,-2.484,-2.5058,-2.5697,-2.396,-2.2657,-2.2056,-2.1381,-2.1158,-2.1433,-2.1493,-2.1898,-2.2655,-2.2712,-2.2977,-2.3407,-2.3839,-2.4354,-2.4926,-2.5291,-2.6314,-2.7777,-2.7814,-2.8643,-2.9895,-2.9895,-3.0153,-3.0676,-3.2055,-3.262,-3.2947,-2.1536,-2.1415,-2.1151,-2.0643,-2.0222,-1.967,-1.8838,-1.7923,-1.7453,-1.7944,-1.7415,-1.723,-1.7879,-1.8142,-1.8682,-1.971,-2.0561,-2.1204,-2.1546,-2.1613,-2.1498,-2.1,-2.055,-2.0311,-2.0297,-1.914,-1.8784,-1.9344,-1.9886,-2.0389,-2.0875,-2.0475,-2.0595,-2.1215,-2.1649,-2.2457,-2.3531,-2.3681,-2.4308,-2.5179,-2.5196,-2.5339,-2.5547,-2.5513,-2.4901,-2.4045,-2.4047,-2.3797,-2.3549,-2.3732,-2.406,-2.4603,-2.5802,-2.5939,-2.5847,-2.6843,-2.661,-2.5886,-2.5235,-2.43,-2.3748,-2.4529,-2.5164,-2.5745,-2.6315,-2.5971,-2.5444,-2.529,-2.6936,-2.7878,-2.6124,-2.5139,-2.4666,-2.4855,-2.4983,-2.4849,0.0,-2.3056,-2.2282,-2.2346,-2.1861,-2.1601,-2.1739,-2.2592,-2.391,-2.5592,-2.5408,-2.5801,-2.7022,-2.4737,-2.3244,-2.2922,-2.1682,-2.1124,-2.1292,-2.1475,-2.1882,-2.2469,-2.2512,-2.2775,-2.3319,-2.3909,-2.4436,-2.4942,-2.546,-2.6496,-2.7773,-2.7831,-2.866,-2.9928,-3.0112,-3.0316,-3.0709,-3.2542,-3.379,-3.4793,-2.2104,-2.2191,-2.2123,-2.1387,-2.0722,-2.0103,-1.9594,-1.8631,-1.8071,-1.8398,-1.8114,-1.8151,-1.8963,-1.9814,-2.0592,-2.125,-2.2269,-2.3141,-2.3794,-2.26,-2.2751,-2.4643,-2.0606,-2.0731,-2.5896,-2.1409,-1.9488,-2.0548,-2.0,-2.0165,-2.0897,-2.084,-2.0942,-2.1246,-2.131,-2.2248,-2.3768,-2.4028,-2.516,-2.6759,-2.6826,-2.6825,-2.674,-2.5976,-2.4582,-2.3184,-2.3849,-2.384,-2.3549,-2.3732,-2.4155,-2.4742,-2.5729,-2.6312,-2.6792,-2.7547,-2.7458,-2.7113,-2.7155,-2.5201,-2.3162,-2.3161,-2.4354,-2.5935,-2.7522,-2.6667,-2.563,-2.5878,-2.843,-2.9398,-2.5471,-2.648,-2.7589,-2.6543,-2.6534,-2.6362,-2.545,-2.4393,-2.3544,-2.3106,-2.2198,-2.1956,-2.2879,-2.2687,-2.3631,-2.6392,-2.6499,-2.6795,-2.762,-2.5628,-2.4191,-2.3485,-2.1757,-2.1104,-2.1602,-2.1813,-2.2221,-2.2844,-2.2889,-2.3083,-2.3319,-2.3752,-2.4338,-2.4942,-2.5497,-2.6742,-2.8362,-2.8439,-2.9231,-3.0502,-3.105,-3.1004,-3.0957,-3.3373,-3.59,-3.8138,-2.3052,-2.2917,-2.272,-2.2103,-2.1484,-2.0732,-1.9746,-1.9922,-1.9965,-1.9459,-1.9734,-1.9995,-2.0041,-2.0565,-2.1078,-2.1533,-2.2669,-2.355,-2.4142,-2.4232,-2.4482,-2.4896,-2.4447,-2.5272,-2.7714,-2.6528,-2.5254,-2.4022,-2.1655,-2.1155,-2.2329,-2.1392,-2.1263,-2.1802,-2.2052,-2.3046,-2.459,-2.5748,-2.7163,-2.8539,-2.7777,-2.7199,-2.6706,-2.5747,-2.4903,-2.4173,-2.4013,-2.3762,-2.3549,-2.3792,-2.4099,-2.4474,-2.4968,-2.5336,-2.5638,-2.588,-2.5942,-2.5815,-2.5236,-2.4538,-2.3991,-2.4058,-2.4234,-2.4732,-2.594,-2.7717,-2.9111,-2.9179,-2.9939,-2.9516,-2.5948,-2.683,-2.797,-2.749,-2.7489,-2.7448,-2.712,-2.5966,-2.4864,-2.4056,-2.4164,-2.3572,-2.1729,-2.2833,-2.4052,-2.4999,-2.6361,-2.7456,-2.814,-2.5918,-2.4566,-2.4383,-2.2609,-2.1698,-2.1746,-2.2077,-2.231,-2.2402,-2.3068,-2.3465,-2.3551,-2.4592,-2.5182,-2.5389,-2.5905,-2.6792,-2.7805,-2.7751,-2.8619,-2.9939,-3.037,-3.1558,-3.3054,-3.3365,-3.5119,-3.7286,-2.4457,-2.385,-2.3345,-2.337,-2.3148,-2.2475,-2.1212,-2.0925,-2.0764,-2.0415,-2.1014,-2.1253,-2.0825,-2.1985,-2.279,-2.2684,-2.3811,-2.4613,-2.4833,-2.5466,-2.5721,-2.5549,-2.6614,-2.7585,-2.8383,-2.8709,-2.7551,-2.4876,-2.3421,-2.2604,-2.2394,-2.1391,-2.1364,-2.2216,-2.2906,-2.3823,-2.5007,-2.6888,-2.8111,-2.8729,-2.8749,-2.8508,0.0,-2.6923,-2.6368,-2.6072,-2.5234,-2.4319,-2.3553,-2.3917,-2.4174,-2.4402,-2.4689,-2.5,-2.5243,-2.5293,-2.539,-2.5421,-2.4978,-2.4864,-2.4888,-2.4952,-2.4843,-2.4981,-2.5944,-2.7269,-2.8508,-2.9218,-2.8822,-2.7758,-2.577,-2.7466,-2.903,-2.8664,-2.8516,-2.8323,-2.7932,-2.7012,-2.6065,-2.5105,-2.5177,-2.4408,-2.2176,-2.3243,-2.4214,-2.4583,-2.5744,-2.6811,-2.7712,-2.5834,-2.4728,-2.4762,-2.2946,-2.1949,-2.1902,-2.231,-2.2429,-2.2232,-2.3142,-2.3601,-2.3631,-2.4846,-2.5427,-2.554,-2.6137,-2.7108,-2.8262,-2.8281,-2.9217,-3.0632,-3.082,-3.2232,-3.4074,-3.3264,-3.444,-3.6508,-2.6037,-2.4952,-2.4113,-2.4754,-2.4999,-2.4672,-2.3434,-2.2177,-2.1441,-2.1634,-2.2282,-2.2433,-2.1707,-2.3631,-2.4807,-2.4281,-2.5311,-2.5923,-2.5821,-2.641,-2.6688,-2.6516,-2.7783,-2.8519,-2.8635,-2.9088,-2.7898,-2.4916,-2.5128,-2.4262,-2.2345,-2.1415,-2.1462,-2.2453,-2.3607,-2.4672,-2.5703,-2.7753,-2.8511,-2.8384,-2.9565,-3.0004,-2.9779,-2.8642,-2.8219,-2.8108,-2.6854,-2.5332,-2.3995,-2.4409,-2.4577,-2.4647,-2.4907,-2.512,-2.5274,-2.532,-2.5403,-2.5538,-2.5599,-2.5615,-2.5629,-2.5687,-2.5683,-2.587,-2.6564,-2.6137,-2.5996,-2.7392,-2.6633,-2.5649,-2.5349,-2.78,-2.9808,-2.9624,-2.928,-2.8889,-2.8452,-2.7931,-2.7326,-2.6476,-2.6056,0.0,-2.3744,-2.4045,-2.4451,-2.4682,-2.5102,-2.5862,-2.7037,-2.5731,-2.4912,-2.4941,-2.3293,-2.2292,-2.2123,-2.2572,-2.2673,-2.2374,-2.3366,-2.3836,-2.3894,-2.4894,-2.5465,-2.5652,-2.6295,-2.7468,-2.897,-2.9248,-3.0387,-3.1897,-3.1823,-3.2825,-3.4217,-3.3102,-3.387,-3.5602,-2.7097,-2.6261,-2.5564,-2.5268,-2.5749,-2.6028,-2.5726,-2.5354,-2.4728,-2.3734,-2.4316,-2.459,-2.3991,-2.4572,-2.5067,-2.5322,-2.5959,-2.6505,-2.6814,-2.7375,-2.7689,-2.7682,-2.8432,-2.9139,-2.9806,-2.9026,-2.8442,-2.8188,-2.6726,-2.5813,-2.5389,-2.2933,-2.1978,-2.2381,-2.3802,-2.597,-2.8564,-2.8829,-2.9201,-2.966,-2.9842,-2.9914,-2.9805,-2.8986,-2.8675,-2.8544,-2.7264,-2.6581,-2.632,-2.6395,-2.611,-2.5737,-2.5916,-2.5571,-2.5166,-2.5329,-2.5478,-2.5599,-2.5663,-2.5632,-2.5625,-2.5683,-2.5663,-2.5658,-2.58,-2.5706,-2.5658,-2.5892,-2.6449,-2.6571,-2.5495,-2.6288,-2.7623,-2.9251,-2.8817,-2.8653,-2.9697,-2.957,-2.9246,-2.8919,-2.8863,-2.8011,-2.588,-2.5995,-2.562,-2.4157,-2.5683,-2.6914,-2.7473,-2.6612,-2.5994,-2.5786,-2.5,-2.3978,-2.2768,-2.3201,-2.3375,-2.3283,-2.4443,-2.5064,-2.5196,-2.5839,-2.6137,-2.6173,-2.6624,-2.7351,-2.8271,-2.9296,-3.0812,-3.2437,-3.2266,-3.2743,-3.346,-3.3158,-3.3376,-3.3906,-2.7201,-2.6735,-2.6423,-2.6182,-2.6676,-2.7053,-2.6872,-2.665,-2.618,-2.5287,-2.5623,-2.5648,-2.4902,-2.582,-2.632,-2.5886,-2.6683,-2.7265,-2.7282,-2.7959,-2.8319,-2.8429,-2.9044,-2.9502,-2.972,-2.9637,-2.9461,-2.9276,-2.7975,-2.7313,-2.7213,-2.5862,-2.4919,-2.4427,-2.5638,-2.7111,-2.8712,-2.934,-2.966,-2.9831,-3.0362,-3.0588,-3.0497,-2.9839,-2.964,-2.9601,-2.869,-2.8406,-2.831,-2.7412,-2.6968,-2.6801,-2.6937,-2.6779,-2.6581,-2.6792,-2.6893,-2.6851,-2.6482,-2.6341,-2.6222,-2.5797,-2.5683,-2.5644,-2.5609,-2.5598,-2.5571,-2.5511,-2.595,-2.6304,-2.6236,-2.6673,-2.7447,-2.8774,-2.8839,-2.9063,-3.0002,-3.0002,-2.995,-3.0068,-2.984,-2.9042,-2.7388,-2.723,-2.6636,-2.5219,-2.6366,-2.7487,-2.8236,-2.7999,-2.7519,-2.6745,-2.6212,-2.5242,-2.3864,-2.3682,-2.3752,-2.4022,-2.4681,-2.517,-2.5539,-2.6286,-2.659,-2.6624,-2.7049,-2.7764,-2.8753,-3.0296,-3.1702,-3.2866,-3.2705,-3.2866,-3.3214,-3.3214,-3.3274,-3.352,-2.7628,-2.7394,-2.7294,-2.7506,-2.804,-2.8278,-2.7854,-2.7582,-2.7241,-2.6565,-2.6346,-2.6053,-2.5406,-2.6641,-2.722,-2.6504,-2.73,-2.7825,-2.7749,-2.8512,-2.8919,-2.8916,-2.9597,-2.9935,-2.9859,-3.0502,-3.0718,-3.0489,-2.9024,-2.8345,-2.8364,-2.838,-2.7875,-2.7019,-2.7949,-2.8364,-2.8474,-2.9724,-3.0014,-2.9727,-3.0586,-3.0928,-3.0877,-3.0405,-3.0311,-3.0395,-2.996,-2.9869,-2.976,-2.8419,-2.7894,-2.7815,-2.7964,-2.7971,-2.7949,-2.8155,-2.8201,-2.8088,-2.7452,-2.7284,-2.7061,-2.6182,-2.5953,-2.5898,-2.5651,-2.5585,-2.556,-2.5506,-2.5488,-2.579,-2.6834,-2.719,-2.7649,-2.8673,-2.8987,-2.9481,-3.0575,-3.0516,-3.0524,-3.0936,-3.0486,-2.9773,-2.8783,-2.8393,-2.7834,-2.6994,-2.7197,-2.7672,-2.8404,-2.8806,-2.8483,-2.7267,-2.6915,-2.6042,-2.4548,-2.4284,-2.4317,-2.4652,-2.5128,-2.5564,-2.6007,-2.6727,-2.7049,-2.7049,-2.7452,-2.8364,-2.9694,-3.1153,-3.229,-3.3086,-3.3011,-3.3042,-3.3135,-3.3262,-3.3352,-3.352,-2.9485,-2.9017,-2.8588,-2.953,-3.0168,-3.0186,-2.9107,-2.9173,-2.8876,-2.7473,-2.6535,-2.6062,-2.6091,-2.6244,-2.6703,-2.7471,-2.7627,-2.7947,-2.856,-2.9274,-2.9572,-2.928,-3.0055,-3.0754,-3.1291,-3.1517,-3.2293,-3.3663,-2.9959,-2.8416,-2.8918,-2.8923,-2.9015,-2.9237,-3.0124,-3.0071,-2.9436,-3.0357,-3.0396,-2.9863,-2.9975,-3.0012,-3.0012,-2.9954,-2.9952,-2.9967,-3.0026,-3.0103,-3.0164,-3.0121,-2.9509,-2.8797,-2.8994,-2.8563,-2.8028,-2.8164,-2.8232,-2.8265,-2.8207,-2.8184,-2.7946,-2.701,-2.6793,-2.6587,-2.578,-2.5551,-2.5512,-2.5493,-2.5453,-2.5685,-2.6563,-2.6562,-2.7189,-2.9489,-2.9153,-2.9551,-3.2333,-3.2038,-3.1703,-3.2165,-3.1898,-3.1348,-3.0442,-3.0016,-2.9624,-2.9314,-2.8164,-2.7296,-2.6916,-2.792,-2.7917,-2.6726,-2.6917,-2.6068,-2.3977,-2.5349,-2.5748,-2.5145,-2.6684,-2.749,-2.7572,-2.7537,-2.7495,-2.7465,-2.7794,-2.905,-3.0839,-3.0908,-3.1786,-3.3086,-3.3011,-3.3042,-3.3135,-3.3262,-3.3352,-3.352,-2.9817,-2.9812,-2.9782,-3.002,-3.0603,-3.087,-3.0249,-2.9864,-2.9445,-2.8909,-2.8375,-2.7771,-2.6985,-2.7454,-2.7684,-2.7249,-2.756,-2.7969,-2.85,-2.9116,-2.9658,-3.0013,-3.0746,-3.1249,-3.1497,-3.2492,-3.3474,-3.4404,-3.2229,-3.0395,-2.8877,-2.8956,-2.9739,-3.107,-3.1123,-3.1128,-3.1091,-3.16,-3.1651,-3.1402,-3.1402,-3.1118,-3.0682,-3.0763,-3.0502,-3.0085,-3.0196,-3.0263,-3.0342,-3.0461,-3.0238,-2.993,-3.0009,-2.9861,-2.9682,-2.9743,-2.9784,-2.9698,-2.9162,-2.8998,-2.873,-2.7832,-2.7235,-2.675,-2.6407,-2.5894,-2.5492,-2.5503,-2.5445,-2.55,-2.5858,-2.6186,-2.6873,-2.8208,-2.8372,-2.9195,-3.1686,-3.1667,-3.181,-3.2939,-3.2592,-3.2156,-3.1829,-3.142,-3.0909,-3.0308,-2.9972,-2.9732,-2.964,-3.0797,-3.118,-3.0564,-2.977,-2.8735,-2.7572,-2.6805,-2.6558,-2.6822,-2.7056,-2.7363,-2.7794,-2.789,-2.8047,-2.821,-2.8802,-2.9801,-3.1039,-3.1376,-3.2146,-3.3086,-3.3055,-3.3073,-3.3117,-3.3304,-3.3382,-3.3574,-3.0815,-3.1096,-3.1408,-3.1526,-3.1726,-3.1781,-3.1511,-3.1014,-3.0569,-3.0302,-3.0352,-2.9711,-2.7965,-2.8412,-2.8458,-2.7438,-2.7935,-2.8382,-2.8553,-2.9426,-3.018,-3.0651,-3.1411,-3.1844,-3.1951,-3.333,-3.4318,-3.4988,-3.3949,-3.2384,-3.0378,-3.0028,-3.0814,-3.2443,-3.2072,-3.1996,-3.2222,-3.2672,-3.2722,-3.2492,-3.2488,-3.2175,-3.1707,-3.1842,-3.1527,-3.1032,-3.1118,-3.1187,-3.1241,-3.1378,-3.1421,-3.1325,-3.0823,-3.072,-3.0796,-3.079,-3.0792,-3.0675,-3.0054,-2.9668,-2.9274,-2.8623,-2.7618,-2.6783,-2.6773,-2.611,-2.5484,-2.5464,-2.5429,-2.5385,-2.536,-2.5966,-2.6852,-2.8032,-2.8499,-2.9589,-3.2042,-3.2035,-3.2129,-3.3122,-3.2803,-3.2574,-3.2838,-3.2355,-3.182,-3.1409,-3.181,-3.1785,-3.1093,-3.2355,-3.2727,-3.1882,-3.0801,-2.9819,-2.9052,-2.7766,-2.7317,-2.7682,-2.7513,-2.7638,-2.8065,-2.8228,-2.8549,-2.8993,-2.9536,-3.0387,-3.1401,-3.1827,-3.2451,-3.3165,-3.3135,-3.3117,-3.3165,-3.3334,-3.3393,-3.3628,-3.3045,-3.3255,-3.3633,-3.473,-3.4147,-3.3351,-3.2928,-3.2931,-3.2545,-3.1411,-3.2141,-3.1722,-2.8992,-2.8682,-2.8628,-2.8389,-2.9126,-2.9376,-2.8918,-3.0506,-3.137,-3.1095,-3.2049,-3.2719,-3.2975,-3.384,-3.4808,-3.5872,-3.4605,-3.4039,-3.4107,-3.2627,-3.2441,-3.3279,-3.3147,-3.2845,-3.2463,-3.3389,-3.3358,-3.2703,-3.2694,-3.2756,-3.2885,-3.2948,-3.2968,-3.2977,-3.313,-3.3174,-3.3192,-3.3321,-3.3365,-3.3066,-3.1331,-3.0794,-3.0793,-3.081,-3.0795,-3.0798,-3.0781,-3.0152,-2.9458,-2.9316,-2.8028,-2.6786,-2.6729,-2.6075,-2.5484,-2.5401,-2.5404,-2.5388,-2.5302,-2.5907,-2.723,-2.9765,-3.0064,-3.1113,-3.4301,-3.3794,-3.298,-3.273,-3.2543,-3.2684,-3.34,-3.2764,-3.2469,-3.2955,-3.3541,-3.2677,-2.9979,-3.1289,-3.108,-2.8823,-2.8798,-2.8152,-2.6763,-2.7975,-2.811,-2.7216,-2.8342,-2.8815,-2.8694,-2.8637,-2.9029,-2.9771,-2.9816,-3.0695,-3.2198,-3.2043,-3.2499,-3.3292,-3.3165,-3.3165,-3.331,-3.3382,-3.3393,-3.3628,-3.4467,-3.4943,-3.5393,-3.5745,-3.5532,-3.5258,-3.5069,-3.5019,-3.4878,-3.4378,-3.4574,-3.4204,-3.2743,-3.1115,-3.0055,-2.993,-2.9868,-3.0231,-3.1096,-3.1376,-3.1913,-3.2894,-3.3428,-3.3749,-3.3876,-3.5066,-3.5575,-3.5423,-3.4643,-3.3967,-3.335,-3.2325,-3.2788,-3.4452,-3.4376,-3.4333,-3.4337,-3.4684,-3.4712,-3.4539,-3.4596,-3.4287,-3.3808,-3.3916,-3.3611,-3.3153,-3.3231,-3.329,-3.3341,-3.3386,-3.3404,-3.33,-3.2741,-3.2166,-3.1694,-3.1699,-3.1268,-3.0795,-3.074,-3.0501,-3.0239,-3.0205,-2.8868,-2.7561,-2.7593,-2.6464,-2.5421,-2.5404,-2.5351,-2.5322,-2.5292,-2.63,-2.7622,-2.9013,-3.0021,-3.1374,-3.3541,-3.3374,-3.3216,-3.3724,-3.3757,-3.4067,-3.4872,-3.4705,-3.4504,-3.4355,-3.5005,-3.4135,-3.1244,-3.2466,-3.2882,-3.2002,-3.0837,-3.0086,-2.9773,-2.9036,-2.8542,-2.8288,-2.8658,-2.8785,-2.8694,-2.8637,-2.9047,-2.9826,-3.0315,-3.1165,-3.2234,-3.2601,-3.2967,-3.331,-3.3262,-3.3525,-3.3876,-3.3551,-3.3647,-3.415,-3.5586,-3.591,-3.6109,-3.6109,-3.5871,-3.5611,-3.5524,-3.5495,-3.5465,-3.5339,-3.5278,-3.5066,-3.4643,-3.2921,-3.1618,-3.1122,-3.1059,-3.1335,-3.1978,-3.2051,-3.2485,-3.3463,-3.3836,-3.4081,-3.4111,-3.534,-3.5769,-3.5277,-3.5072,-3.4532,-3.3715,-3.3204,-3.3673,-3.4973,-3.5073,-3.5185,-3.524,-3.5328,-3.543,-3.5532,-3.5563,-3.5279,-3.4855,-3.4957,-3.4461,-3.3782,-3.4167,-3.4109,-3.3905,-3.4253,-3.4353,-3.4336,-3.4336,-3.3717,-3.2888,-3.2246,-3.1677,-3.1152,-3.0765,-3.0397,-3.0179,-3.0486,-2.9242,-2.7856,-2.7575,-2.6668,-2.5781,-2.5437,-2.5572,-2.5828,-2.6079,-2.7147,-2.846,-2.9927,-3.1143,-3.243,-3.3809,-3.4062,-3.4086,-3.3995,-3.3974,-3.4267,-3.5044,-3.4857,-3.482,-3.521,-3.5373,-3.4659,-3.2849,-3.3229,-3.3225,-3.2581,-3.1183,-3.0396,-3.0254,-2.9253,-2.8761,-2.8761,-2.8834,-2.8887,-2.8915,-2.9083,-2.9856,-3.1034,-3.17,-3.2475,-3.3285,-3.3633,-3.3599,-3.3322,-3.3292,-3.3538,-3.3867,-3.3515,-3.3779,-3.4397,-3.6389,-3.6307,-3.6069,-3.6069,-3.5389,-3.4867,-3.4838,-3.4838,-3.4838,-3.4838,-3.4739,-3.4739,-3.4924,-3.4192,-3.3231,-3.2159,-3.2583,-3.2603,-3.1972,-3.2642,-3.3117,-3.3183,-3.3651,-3.3915,-3.3915,-3.4989,-3.5466,-3.538,-3.5694,-3.5549,-3.4945,-3.492,-3.494,-3.4936,-3.5341,-3.543,-3.5326,-3.5461,-3.5592,-3.5698,-3.5723,-3.5791,-3.5912,-3.589,-3.5364,-3.4707,-3.5527,-3.5293,-3.4726,-3.5602,-3.5891,-3.589,-3.5884,-3.529,-3.4272,-3.2654,-3.2084,-3.1799,-3.0925,-3.0059,-2.956,-3.0307,-2.9284,-2.7855,-2.6977,-2.6774,-2.6545,-2.5658,-2.6107,-2.6837,-2.7412,-2.8341,-2.9775,-3.1951,-3.3183,-3.4168,-3.4982,-3.5627,-3.5433,-3.3885,-3.3479,-3.3634,-3.4357,-3.3754,-3.396,-3.5502,-3.4936,-3.4487,-3.4495,-3.3533,-3.2421,-3.1193,-3.0369,-2.959,-2.8949,-2.8974,-2.8937,-2.8816,-2.9062,-2.9267,-2.9405,-3.0037,-3.1315,-3.3106,-3.3659,-3.4365,-3.5119,-3.4954,-3.4345,-3.3495,-3.337,-3.3394,-3.3526,-3.3472,-3.3857,-3.4508,-3.6035,-3.6465,-3.6827,-3.6777,-3.6584,-3.6428,-3.6378,-3.6378,-3.6378,-3.6378,-3.6352,-3.6103,-3.5484,-3.5379,-3.4965,-3.4032,-3.3773,-3.3762,-3.4128,-3.397,-3.419,-3.494,-3.5058,-3.515,-3.5254,-3.5612,-3.5637,-3.5248,-3.5381,-3.5358,-3.5215,-3.5213,-3.5218,-3.5225,-3.5465,-3.5562,-3.5523,-3.5624,-3.5742,-3.5869,-3.5914,-3.5942,-3.5908,-3.5208,-3.4824,-3.4604,-3.4114,-3.4222,-3.4635,-3.48,-3.5291,-3.5802,-3.5752,-3.5587,-3.5224,-3.4205,-3.2934,-3.1803,-3.1584,-3.0878,-3.0269,-3.0442,-2.9747,-2.8753,-2.7827,-2.7624,-2.7547,-2.7332,-2.7834,-2.8191,-2.7655,-2.9737,-3.1533,-3.1497,-3.3809,-3.5704,-3.597,-3.6122,-3.6065,-3.5685,-3.5096,-3.5021,-3.5761,-3.5647,-3.5626,-3.58,-3.5649,-3.5227,-3.4458,-3.351,-3.2908,-3.2688,-3.2371,-3.1871,-3.1143,-3.1102,-3.0746,-3.0095,-3.081,-3.0816,-3.0262,-3.1671,-3.292,-3.3948,-3.4649,-3.5458,-3.6226,-3.5276,-3.4797,-3.4549,-3.3698,-3.3952,-3.4715,-3.4267,-3.4751,-3.5705,-3.596,-3.601,-3.6001,-3.5843,-3.5797,-3.5797,-3.5843,-3.5731,-3.5731,-3.596,-3.5912,-3.5698,-3.5315,-3.5388,-3.5262,-3.4788,-3.442,-3.4367,-3.4734,-3.4433,-3.4483,-3.5027,-3.5149,-3.5214,-3.5298,-3.5515,-3.5534,-3.5325,-3.5405,-3.5423,-3.5399,-3.5485,-3.5494,-3.5456,-3.5674,-3.5779,-3.5795,-3.5825,-3.588,-3.5949,-3.5994,-3.6009,-3.5937,-3.543,-3.4741,-3.4053,-3.3939,-3.3688,-3.3526,-3.4257,-3.4812,-3.5262,-3.5601,-3.5678,-3.5563,-3.5136,-3.4013,-3.2773,-3.1967,-3.1407,-3.0954,-3.0586,-3.0141,-2.9561,-2.8653,-2.8439,-2.8426,-2.8363,-2.8943,-2.9512,-2.9749,-3.1834,-3.3524,-3.3486,-3.504,-3.6255,-3.6293,-3.5969,-3.5759,-3.5759,-3.5359,-3.5283,-3.572,-3.5703,-3.5458,-3.4965,-3.5247,-3.5055,-3.4165,-3.397,-3.3658,-3.3212,-3.2713,-3.2073,-3.1275,-3.082,-3.0618,-3.0628,-3.1115,-3.1551,-3.2011,-3.3203,-3.4439,-3.5691,-3.6381,-3.6969,-3.7343,-3.6218,-3.5431,-3.4908,-3.4123,-3.4213,-3.4786,-3.4715,-3.5295,-3.6091,-3.5837,-3.5344,-3.4773,-3.4524,-3.4435,-3.4476,-3.4626,-3.4454,-3.4435,-3.4851,-3.4751,-3.471,-3.4889,-3.4927,-3.4945,-3.4945,-3.4832,-3.4718,-3.4679,-3.4579,-3.4519,-3.4561,-3.4775,-3.4905,-3.4923,-3.5206,-3.5411,-3.5532,-3.5611,-3.5621,-3.5563,-3.5753,-3.5768,-3.5663,-3.5909,-3.599,-3.5986,-3.6124,-3.6101,-3.6012,-3.6267,-3.6289,-3.6183,-3.6161,-3.5201,-3.3921,-3.4404,-3.3717,-3.277,-3.4031,-3.4559,-3.4782,-3.5456,-3.5623,-3.5558,-3.5393,-3.4936,-3.4118,-3.2528,-3.1892,-3.1499,-3.07,-3.0425,-3.0186,-2.9448,-2.9279,-2.9225,-2.9112,-2.9827,-3.0868,-3.2177,-3.3903,-3.5325,-3.5912,-3.6387,-3.6577,-3.6312,-3.5817,-3.5398,-3.5284,-3.5077,-3.5001,-3.5057,-3.504,-3.4737,-3.3994,-3.4623,-3.4718,-3.3978,-3.4529,-3.4429,-3.3468,-3.267,-3.1821,-3.0961,-3.0227,-3.0309,-3.124,-3.1484,-3.2467,-3.4112,-3.4881,-3.609,-3.7637,-3.8278,-3.8545,-3.8423,-3.72,-3.6173,-3.5293,-3.4563,-3.4401,-3.4623,-3.5134,-3.5705,-3.6231,-3.5269,-3.516,-3.5013,-3.4925,-3.4907,-3.487,-3.4851,-3.4812,-3.4812,-3.4889,-3.487,-3.487,-3.4908,-3.5054,-3.5141,-3.5141,-3.5289,-3.5304,-3.5122,-3.5088,-3.5155,-3.5315,-3.5364,-3.5425,-3.5456,-3.5572,-3.5639,-3.5676,-3.5794,-3.5846,-3.584,-3.5929,-3.5966,-3.5947,-3.5979,-3.5968,-3.5968,-3.6698,-3.6598,-3.6034,-3.7454,-3.7619,-3.7019,-3.6941,-3.6746,-3.6324,-3.4936,-3.4764,-3.5113,-3.4543,-3.4812,-3.5433,-3.5509,-3.5515,-3.5334,-3.4434,-3.4707,-3.5078,-3.4097,-3.2788,-3.1499,-3.0633,-3.0379,-3.0278,-3.0143,-3.0069,-3.0021,-2.9994,-3.1177,-3.2276,-3.2457,-3.4452,-3.5875,-3.5192,-3.6937,-3.7828,-3.6406,-3.6729,-3.6844,-3.6122,-3.5324,-3.4831,-3.4851,-3.5334,-3.5348,-3.4621,-3.5298,-3.539,-3.4602,-3.4674,-3.4693,-3.4563,-3.441,-3.3917,-3.3031,-3.2899,-3.2938,-3.3185,-3.4602,-3.5455,-3.5855,-3.7389,-3.8222,-3.8527,-3.9318,-3.9592,-3.9326,-3.7474,-3.6832,-3.6861,-3.4997,-3.4932,-3.5847,-3.5935,-3.6317,-3.6978,-3.5258,-3.5178,-3.5152,-3.5094,-3.511,-3.5088,-3.5072,-3.4982,-3.4982,-3.5174,-3.5105,-3.5069,-3.5209,-3.5308,-3.5379,-3.5424,-3.5509,-3.5526,-3.5469,-3.5445,-3.5451,-3.5553,-3.5588,-3.5631,-3.5713,-3.5733,-3.5781,-3.5872,-3.5919,-3.5942,-3.5965,-3.6431,-3.6147,-3.5311,-3.6718,-3.6814,-3.5995,-3.7294,-3.7616,-3.7318,-3.8089,-3.8156,-3.7793,-3.7753,-3.7436,-3.6833,-3.5553,-3.5049,-3.4923,-3.4457,-3.4569,-3.4943,-3.5196,-3.4979,-3.4519,-3.387,-3.3837,-3.3911,-3.359,-3.2622,-3.1475,-3.0573,-3.033,-3.0286,-3.0202,-3.0166,-3.0276,-3.0689,-3.1743,-3.2797,-3.3636,-3.5496,-3.69,-3.6956,-3.7562,-3.7752,-3.6955,-3.6386,-3.5892,-3.5492,-3.4996,-3.4691,-3.4691,-3.4986,-3.4811,-3.4007,-3.4722,-3.4835,-3.3989,-3.436,-3.4604,-3.4628,-3.4317,-3.396,-3.3563,-3.3524,-3.3732,-3.4262,-3.5511,-3.6304,-3.6793,-3.8066,-3.882,-3.9165,-3.9633,-3.9758,-3.9481,-3.7869,-3.7267,-3.7253,-3.5849,-3.5739,-3.6434,-3.6534,-3.7226,-3.8087,-3.5438,-3.5361,-3.5345,-3.5346,-3.5335,-3.5336,-3.5321,-3.5197,-3.5212,-3.5515,-3.5372,-3.5325,-3.5528,-3.556,-3.5558,-3.562,-3.563,-3.566,-3.5693,-3.5669,-3.565,-3.563,-3.5696,-3.5755,-3.585,-3.5844,-3.5899,-3.6005,-3.6192,-3.627,-3.6305,-3.7109,-3.6658,-3.5281,-3.7491,-3.7604,-3.6261,-3.7964,-3.8546,-3.839,-3.8773,-3.8782,-3.8598,-3.8792,-3.8412,-3.763,-3.654,-3.5736,-3.5106,-3.4584,-3.4441,-3.457,-3.4912,-3.4613,-3.402,-3.3355,-3.2861,-3.2594,-3.2982,-3.2486,-3.1648,-3.0643,-3.0238,-3.009,-3.003,-2.9981,-3.0231,-3.1092,-3.1944,-3.299,-3.4586,-3.6292,-3.7581,-3.8055,-3.7943,-3.7543,-3.6896,-3.5834,-3.5018,-3.4807,-3.4666,-3.4602,-3.4602,-3.4561,-3.4277,-3.362,-3.4183,-3.4258,-3.3602,-3.4139,-3.442,-3.4233,-3.3763,-3.3599,-3.3805,-3.3747,-3.4275,-3.5331,-3.6203,-3.6993,-3.7751,-3.8463,-3.9062,-3.9526,-3.967,-3.958,-3.9257,-3.8044,-3.7507,-3.7335,-3.6453,-3.6363,-3.6808,-3.6955,-3.7795,-3.8811,-3.5688,-3.5713,-3.5772,-3.576,-3.576,-3.5741,-3.5668,-3.5639,-3.5639,-3.5676,-3.5668,-3.5668,-3.5676,-3.5696,-3.5696,-3.5685,-3.5685,-3.5693,-3.5693,-3.5801,-3.5827,-3.5693,-3.5755,-3.585,-3.5974,-3.5986,-3.5981,-3.6005,-3.6747,-3.7108,-3.7128,-3.7943,-3.7814,-3.6967,-3.796,-3.7854,-3.7034,-3.8769,-3.9005,-3.8355,-3.9909,-4.0072,-3.9503,-4.0234,-4.0474,-4.0166,-3.8247,-3.7666,-3.7486,-3.538,-3.4868,-3.5098,-3.4889,-3.4813,-3.4472,-3.2712,-3.2084,-3.2198,-3.333,-3.3051,-3.2164,-3.0979,-3.0077,-2.9514,-2.9696,-2.968,-2.9943,-3.0989,-3.1891,-3.299,-3.4586,-3.6311,-3.7242,-3.6519,-3.7657,-3.7768,-3.5339,-3.5586,-3.5679,-3.4802,-3.4645,-3.4602,-3.4602,-3.4495,-3.439,-3.4334,-3.439,-3.439,-3.4334,-3.439,-3.4072,-3.3428,-3.329,-3.3608,-3.4423,-3.4375,-3.5202,-3.6934,-3.7694,-3.8496,-3.9339,-3.9395,-3.947,-3.9502,-3.9526,-3.9261,-3.8773,-3.7805,-3.7467,-3.7417,-3.645,-3.6458,-3.6978,-3.6992,-3.758,-3.8457,-3.5819,-3.5805,-3.58,-3.5801,-3.5762,-3.5723,-3.571,-3.5732,-3.5752,-3.5713,-3.5732,-3.5752,-3.5693,-3.5732,-3.5776,-3.5827,-3.5814,-3.5846,-3.5885,-3.5923,-3.5942,-3.5894,-3.5904,-3.5934,-3.5942,-3.5938,-3.5934,-3.5943,-3.6799,-3.7206,-3.7226,-3.8587,-3.8438,-3.7124,-3.9046,-3.9092,-3.787,-3.9564,-4.0084,-3.9809,-4.0435,-4.0417,-4.0019,-4.0346,-4.0312,-3.9889,-3.8042,-3.7452,-3.7241,-3.5342,-3.4774,-3.4832,-3.4572,-3.413,-3.3583,-3.2817,-3.2586,-3.2754,-3.3605,-3.3402,-3.2561,-3.1012,-3.0389,-3.0014,-2.9568,-2.9436,-2.9659,-3.058,-3.1464,-3.2574,-3.4223,-3.5074,-3.5584,-3.5788,-3.5856,-3.5379,-3.3852,-3.3803,-3.3599,-3.2771,-3.2562,-3.249,-3.249,-3.3049,-3.3412,-3.3412,-3.4018,-3.4386,-3.4386,-3.4386,-3.4278,-3.3979,-3.3956,-3.4398,-3.5356,-3.5878,-3.6746,-3.792,-3.8729,-3.8957,-3.8646,-3.9233,-3.9427,-3.9324,-3.9452,-3.9208,-3.8693,-3.8212,-3.7805,-3.7433,-3.6867,-3.6958,-3.7392,-3.7694,-3.8543,-3.9634,-3.5907,-3.5887,-3.5864,-3.586,-3.5818,-3.5798,-3.578,-3.5827,-3.5846,-3.5795,-3.5833,-3.5853,-3.5788,-3.5833,-3.5891,-3.5929,-3.5934,-3.5947,-3.5991,-3.6007,-3.6004,-3.6001,-3.599,-3.5962,-3.5909,-3.5899,-3.602,-3.6313,-3.7164,-3.7712,-3.801,-3.9402,-3.9233,-3.787,-3.9885,-3.9944,-3.864,-4.0056,-4.0629,-4.054,-4.054,-4.038,-4.0138,-4.0138,-4.0004,-3.9548,-3.7734,-3.713,-3.6927,-3.5049,-3.4464,-3.4508,-3.4237,-3.356,-3.2919,-3.3062,-3.2976,-3.2933,-3.3566,-3.3518,-3.2929,-3.1464,-3.0923,-3.059,-3.0035,-2.9924,-3.0169,-3.1069,-3.173,-3.2571,-3.3966,-3.4413,-3.4673,-3.4989,-3.4513,-3.379,-3.2865,-3.2459,-3.2017,-3.1452,-3.1304,-3.1389,-3.1721,-3.2428,-3.2993,-3.3324,-3.4045,-3.4473,-3.4473,-3.4473,-3.4473,-3.4473,-3.4363,-3.4909,-3.6114,-3.6775,-3.7667,-3.8761,-3.9325,-3.9189,-3.8462,-3.9107,-3.9324,-3.921,-3.9227,-3.8971,-3.853,-3.8241,-3.7807,-3.7301,-3.7087,-3.7326,-3.7859,-3.8178,-3.9224,-4.0592,-3.5915,-3.5956,-3.5996,-3.5996,-3.5996,-3.5996,-3.5992,-3.5991,-3.6007,-3.5994,-3.5994,-3.5994,-3.5994,-3.5994,-3.5994,-3.5994,-3.5994,-3.5994,-3.5994,-3.5997,-3.599,-3.6001,-3.599,-3.5962,-3.5909,-3.5903,-3.6331,-3.7218,-3.8007,-3.8853,-3.9719,-4.0441,-4.0331,-3.9542,-4.0319,-4.0179,-3.9355,-4.0226,-4.0434,-4.0196,-4.0196,-4.0042,-3.9797,-3.9797,-3.9797,-3.9526,-3.7507,-3.6953,-3.6845,-3.4548,-3.3986,-3.4147,-3.3876,-3.3256,-3.2727,-3.3396,-3.304,-3.2547,-3.3205,-3.3393,-3.3212,-3.2397,-3.16,-3.1066,-3.1247,-3.1279,-3.1618,-3.2673,-3.2887,-3.3128,-3.3858,-3.4622,-3.4866,-3.3913,-3.381,-3.3508,-3.2507,-3.1863,-3.1415,-3.1286,-3.1336,-3.1795,-3.286,-3.2976,-3.3444,-3.4486,-3.4583,-3.4602,-3.4602,-3.4583,-3.4583,-3.4583,-3.434,-3.4977,-3.6586,-3.6814,-3.7773,-3.9495,-3.9444,-3.9328,-3.921,-3.921,-3.921,-3.9183,-3.8778,-3.8455,-3.8147,-3.7703,-3.7301,-3.6987,-3.7027,-3.7523,-3.8311,-3.8329,-3.9456,-4.1007,-3.5962,-3.5984,-3.6007,-3.5993,-3.5994,-3.5996,-3.5993,-3.5991,-3.601,-3.6007,-3.6007,-3.6009,-3.5994,-3.5994,-3.5994,-3.5994,-3.5994,-3.5976,-3.5935,-3.5847,-3.5808,-3.5857,-3.5909,-3.6211,-3.6792,-3.6777,-3.7144,-3.7977,-3.8778,-3.9295,-3.956,-3.977,-3.9707,-3.9445,-3.9683,-3.9495,-3.9078,-3.9957,-4.0157,-3.9922,-3.9922,-3.9794,-3.9585,-3.9585,-3.9083,-3.8219,-3.6968,-3.6173,-3.5506,-3.4128,-3.3707,-3.3762,-3.3615,-3.3469,-3.3323,-3.3437,-3.3328,-3.3201,-3.3368,-3.3422,-3.3252,-3.2426,-3.2017,-3.1719,-3.1202,-3.1128,-3.1372,-3.2056,-3.2347,-3.2474,-3.251,-3.2328,-3.1901,-3.1065,-3.0404,-2.9872,-2.9583,-2.9322,-2.917,-2.9116,-2.9143,-2.9286,-2.96,-3.0986,-3.2009,-3.2339,-3.3576,-3.4316,-3.4316,-3.4148,-3.4049,-3.4049,-3.3947,-3.4694,-3.6288,-3.6597,-3.7582,-3.9229,-3.9451,-3.9502,-3.9399,-3.9399,-3.9301,-3.9045,-3.8818,-3.8436,-3.7911,-3.7667,-3.7339,-3.7079,-3.7686,-3.8078,-3.8435,-3.9727,-4.0435,-4.0831,-3.5997,-3.6004,-3.5991,-3.6003,-3.6005,-3.601,-3.5996,-3.5996,-3.5996,-3.5957,-3.5937,-3.5917,-3.5886,-3.5884,-3.5884,-3.5884,-3.5884,-3.586,-3.5818,-3.5758,-3.5734,-3.5791,-3.581,-3.6248,-3.7144,-3.7081,-3.7615,-3.8764,-3.9263,-3.951,-3.95,-3.948,-3.9251,-3.889,-3.9114,-3.909,-3.8936,-3.9719,-3.9901,-3.9683,-3.9683,-3.9537,-3.935,-3.935,-3.8689,-3.7646,-3.674,-3.5818,-3.4871,-3.3935,-3.3577,-3.3549,-3.3481,-3.3481,-3.3491,-3.3422,-3.3422,-3.3452,-3.3393,-3.3452,-3.3382,-3.2853,-3.2726,-3.2599,-3.2119,-3.201,-3.2099,-3.2462,-3.26,-3.2564,-3.2349,-3.15,-3.0765,-3.0478,-2.9526,-2.8772,-2.8655,-2.8405,-2.8182,-2.8182,-2.8182,-2.8487,-2.9233,-3.0475,-3.1554,-3.2272,-3.34,-3.4049,-3.4049,-3.3895,-3.3807,-3.3807,-3.368,-3.4363,-3.5987,-3.6203,-3.7258,-3.9101,-3.9309,-3.938,-3.9301,-3.9301,-3.912,-3.8796,-3.8517,-3.818,-3.7773,-3.7596,-3.7496,-3.7558,-3.8153,-3.87,-3.9353,-4.0447,-4.0895,-4.1059,-3.5966,-3.597,-3.5974,-3.5981,-3.5985,-3.601,-3.5986,-3.5987,-3.5964,-3.5893,-3.5832,-3.5759,-3.5713,-3.5702,-3.5702,-3.5702,-3.5683,-3.5696,-3.5696,-3.5683,-3.5716,-3.5775,-3.5788,-3.6195,-3.7054,-3.7091,-3.7918,-3.9597,-3.9583,-3.9572,-3.9567,-3.9334,-3.8805,-3.8045,-3.8544,-3.8727,-3.8766,-3.9482,-3.966,-3.9458,-3.9433,-3.9298,-3.9073,-3.9073,-3.8433,-3.7442,-3.6648,-3.5689,-3.4639,-3.3842,-3.3549,-3.3481,-3.3422,-3.3393,-3.3393,-3.3393,-3.3393,-3.3393,-3.3393,-3.3452,-3.3499,-3.3571,-3.359,-3.3582,-3.3595,-3.3481,-3.3447,-3.3454,-3.3304,-3.3131,-3.2902,-3.1898,-3.116,-3.1314,-3.0414,-2.9603,-2.9331,-2.866,-2.8235,-2.8378,-2.8342,-2.8998,-3.0776,-3.1048,-3.1856,-3.3652,-3.3762,-3.378,-3.378,-3.3734,-3.3744,-3.3817,-3.3517,-3.4147,-3.5756,-3.5752,-3.6857,-3.8998,-3.9045,-3.9027,-3.8942,-3.8942,-3.8766,-3.8428,-3.7982,-3.7809,-3.7721,-3.7429,-3.768,-3.8289,-3.8496,-3.9411,-4.0574,-4.0644,-4.1077,-4.156,-3.576,-3.5806,-3.5845,-3.5845,-3.593,-3.5963,-3.5858,-3.5844,-3.5825,-3.5761,-3.5741,-3.5723,-3.5694,-3.5706,-3.5706,-3.5706,-3.5648,-3.5621,-3.5621,-3.5557,-3.5574,-3.5639,-3.6234,-3.6659,-3.685,-3.7566,-3.8744,-4.0359,-4.0304,-4.02,-4.0015,-3.864,-3.779,-3.7414,-3.7526,-3.7497,-3.7431,-3.894,-3.9408,-3.9183,-3.9073,-3.9007,-3.8921,-3.8785,-3.7764,-3.6439,-3.6168,-3.5111,-3.3756,-3.3535,-3.3422,-3.3422,-3.3393,-3.3393,-3.3393,-3.3393,-3.3393,-3.3393,-3.3393,-3.3382,-3.3515,-3.419,-3.4286,-3.4075,-3.3567,-3.3538,-3.3527,-3.3112,-3.3191,-3.3212,-3.2747,-3.3146,-3.277,-3.0409,-3.0189,-3.0255,-3.0178,-2.9027,-2.8655,-2.9869,-2.9494,-2.954,-3.0492,-3.1415,-3.2475,-3.3707,-3.355,-3.3408,-3.3408,-3.322,-3.3373,-3.4038,-3.3942,-3.4661,-3.6218,-3.627,-3.6924,-3.8314,-3.8597,-3.8718,-3.8688,-3.8688,-3.8504,-3.8168,-3.7964,-3.7721,-3.7485,-3.7354,-3.7623,-3.8204,-3.8942,-3.9687,-4.0447,-4.113,-4.1358,-4.1255,-3.5696,-3.5743,-3.5821,-3.5868,-3.5877,-3.5807,-3.5675,-3.5675,-3.5679,-3.5657,-3.5657,-3.564,-3.5618,-3.5607,-3.5607,-3.5607,-3.557,-3.5553,-3.5553,-3.5528,-3.5515,-3.5553,-3.5965,-3.6362,-3.6735,-3.7118,-3.8161,-3.9937,-3.981,-3.9463,-3.8936,-3.7471,-3.6519,-3.6019,-3.6308,-3.661,-3.698,-3.81,-3.8748,-3.8989,-3.8815,-3.8755,-3.8718,-3.8242,-3.7234,-3.5999,-3.5586,-3.4586,-3.3452,-3.3393,-3.3393,-3.3393,-3.3393,-3.3393,-3.3393,-3.3393,-3.3382,-3.3352,-3.3352,-3.3322,-3.34,-3.3876,-3.3948,-3.3985,-3.4165,-3.423,-3.4038,-3.3443,-3.3222,-3.3541,-3.4779,-3.5482,-3.505,-3.2577,-3.1751,-3.1075,-3.0145,-2.9603,-2.9583,-3.0362,-3.0373,-3.0521,-3.1011,-3.1978,-3.2757,-3.3332,-3.355,-3.3692,-3.3692,-3.3892,-3.4187,-3.4615,-3.4513,-3.5048,-3.6256,-3.6147,-3.6611,-3.7577,-3.8117,-3.8378,-3.8378,-3.8378,-3.8183,-3.7845,-3.7685,-3.7468,-3.7297,-3.7553,-3.8051,-3.866,-3.9557,-4.0219,-4.0777,-4.1251,-4.1272,-4.1041,-3.564,-3.5689,-3.5776,-3.5902,-3.5785,-3.563,-3.5514,-3.5553,-3.5582,-3.5585,-3.5574,-3.5558,-3.552,-3.5493,-3.5493,-3.5493,-3.5493,-3.5493,-3.5493,-3.5493,-3.5545,-3.5714,-3.5848,-3.6133,-3.6622,-3.6714,-3.7462,-3.8914,-3.8706,-3.8214,-3.7433,-3.6343,-3.5461,-3.4811,-3.5301,-3.5919,-3.6634,-3.7147,-3.779,-3.8446,-3.8407,-3.8279,-3.8096,-3.7601,-3.6723,-3.5672,-3.5016,-3.4182,-3.3393,-3.3393,-3.3393,-3.3411,-3.3382,-3.3382,-3.3382,-3.3382,-3.3322,-3.3262,-3.3262,-3.3262,-3.3268,-3.3442,-3.3491,-3.3761,-3.4763,-3.4954,-3.4784,-3.4169,-3.3859,-3.4498,-3.711,-3.7589,-3.7117,-3.5675,-3.3967,-3.22,-3.0321,-3.0551,-3.085,-3.0836,-3.1494,-3.1996,-3.2112,-3.2813,-3.3223,-3.3098,-3.383,-3.4207,-3.4049,-3.4743,-3.5206,-3.5296,-3.5155,-3.5436,-3.6249,-3.6098,-3.6338,-3.7027,-3.7613,-3.7931,-3.7931,-3.7931,-3.7774,-3.7466,-3.7334,-3.7182,-3.714,-3.7835,-3.8485,-3.9128,-4.0001,-4.0637,-4.1117,-4.1071,-4.0995,-4.0888,-3.5435,-3.5488,-3.5559,-3.5547,-3.556,-3.5522,-3.5502,-3.5522,-3.5509,-3.5515,-3.5515,-3.5501,-3.5507,-3.5493,-3.5493,-3.5493,-3.5493,-3.5493,-3.5493,-3.5446,-3.5753,-3.6507,-3.7209,-3.7194,-3.6363,-3.781,-3.8288,-3.7717,-3.7546,-3.7263,-3.6883,-3.5988,-3.5386,-3.5132,-3.5164,-3.522,-3.5386,-3.614,-3.6544,-3.6709,-3.718,-3.6973,-3.6407,-3.6871,-3.6118,-3.4782,-3.4673,-3.4111,-3.3393,-3.3393,-3.3393,-3.3411,-3.3406,-3.3376,-3.3292,-3.325,-3.3201,-3.3135,-3.3135,-3.3073,-3.3221,-3.3902,-3.4035,-3.4095,-3.4492,-3.5091,-3.546,-3.5095,-3.6058,-3.7094,-3.7502,-3.7593,-3.7522,-3.7289,-3.5806,-3.4017,-3.2276,-3.2261,-3.2428,-3.2548,-3.3799,-3.4452,-3.383,-3.4454,-3.4633,-3.399,-3.4633,-3.4707,-3.3879,-3.4553,-3.519,-3.5711,-3.5691,-3.606,-3.6851,-3.6869,-3.6882,-3.6987,-3.7087,-3.7164,-3.7164,-3.7164,-3.7126,-3.7105,-3.7066,-3.7009,-3.7079,-3.7795,-3.8443,-3.9016,-3.9817,-4.04,-4.0728,-4.0631,-4.0631,-4.0745,-3.535,-3.5432,-3.5498,-3.5493,-3.5493,-3.5493,-3.5493,-3.5493,-3.5493,-3.5493,-3.5493,-3.5493,-3.5493,-3.5493,-3.5493,-3.5493,-3.5493,-3.5474,-3.5446,-3.5883,-3.6306,-3.669,-3.6894,-3.6778,-3.631,-3.6268,-3.6042,-3.56,-3.6047,-3.6185,-3.6067,-3.4995,-3.4694,-3.499,-3.4495,-3.4788,-3.5659,-3.548,-3.57,-3.615,-3.6352,-3.6204,-3.5859,-3.5724,-3.5222,-3.4552,-3.4099,-3.3701,-3.3393,-3.3352,-3.3352,-3.3322,-3.328,-3.3201,-3.3183,-3.3152,-3.3091,-3.3042,-3.3042,-3.3011,-3.3037,-3.3394,-3.3452,-3.358,-3.4138,-3.4189,-3.461,-3.6197,-3.572,-3.4976,-3.4957,-3.4958,-3.4976,-3.4957,-3.5061,-3.4512,-3.2802,-3.2716,-3.2827,-3.2898,-3.3901,-3.4472,-3.4133,-3.4673,-3.4888,-3.4569,-3.5155,-3.5329,-3.4939,-3.5643,-3.6224,-3.6461,-3.6361,-3.6457,-3.6846,-3.669,-3.6609,-3.6609,-3.6609,-3.6771,-3.6987,-3.6987,-3.6987,-3.697,-3.6869,-3.7091,-3.7487,-3.8111,-3.8747,-3.942,-4.0216,-4.0642,-4.0793,-4.0745,-4.0776,-4.0793]}]]